[[{"header":{"parameterUnit":"m.s-1","parameterCategory":1,"la1":30.6,"la2":29.2853,"lo1":-89.7004,"lo2":-87.6739,"dy":0.0162,"dx":0.0183,"nx":112,"ny":82,"refTime":"2026-03-13T00:00:00:Z","depth":0,"parameterNumber":2,"parameterNumberName":"U-component_of_WINDS"},"data":[0.0,0.0,0.0,0.0,0.0,0.0,0.0,0.0,0.0,0.0,0.0,0.0,0.0,0.0,0.0,0.0,0.0,0.0,0.0,0.0,0.0,0.0,0.0,0.0,0.0,0.0,0.0,0.0,0.0,0.0,0.0,0.0,0.0,0.0,0.0,0.0,0.0,0.0,0.0,0.0,0.0,0.0,0.0,0.0,0.0,0.0,0.0,0.0,0.0,0.0,0.0,0.0,0.0,0.0,0.0,0.0,0.0,0.0,0.0,0.0,0.0,0.0,0.0,0.0,0.0,0.0,0.0,0.0,0.0,0.0,0.0,0.0,0.0,0.0,0.0,0.0,0.0,0.0,0.0,0.0,0.0,0.0,0.0,0.0,0.0,0.0,0.0,0.0,0.0,0.0,0.0,6.6766,7.5531,8.0877,8.0877,7.9056,7.4174,6.543,0.0,0.0,0.0,0.0,0.0,0.0,0.0,0.0,0.0,0.0,0.0,0.0,0.0,0.0,0.0,0.0,0.0,0.0,0.0,0.0,0.0,0.0,0.0,0.0,0.0,0.0,0.0,0.0,0.0,0.0,0.0,0.0,0.0,0.0,0.0,0.0,0.0,0.0,0.0,0.0,0.0,0.0,0.0,0.0,0.0,0.0,0.0,0.0,0.0,0.0,0.0,0.0,0.0,0.0,0.0,0.0,0.0,0.0,0.0,0.0,0.0,0.0,0.0,0.0,0.0,0.0,0.0,0.0,0.0,0.0,0.0,0.0,0.0,0.0,0.0,0.0,0.0,0.0,0.0,0.0,0.0,0.0,0.0,0.0,0.0,0.0,0.0,0.0,0.0,0.0,0.0,0.0,0.0,0.0,0.0,0.0,0.0,0.0,0.0,0.0,0.0,0.0,0.0,0.0,6.1226,7.4026,7.9092,8.1652,8.1806,7.8239,7.305,6.6171,0.0,0.0,0.0,0.0,0.0,0.0,0.0,0.0,0.0,0.0,0.0,0.0,0.0,0.0,0.0,0.0,0.0,0.0,0.0,0.0,0.0,0.0,0.0,0.0,0.0,0.0,0.0,0.0,0.0,0.0,0.0,0.0,0.0,0.0,0.0,0.0,0.0,0.0,0.0,0.0,0.0,0.0,0.0,0.0,0.0,0.0,0.0,0.0,0.0,0.0,0.0,0.0,0.0,0.0,0.0,0.0,0.0,0.0,0.0,0.0,0.0,0.0,0.0,0.0,0.0,0.0,0.0,0.0,0.0,0.0,0.0,0.0,0.0,0.0,0.0,0.0,0.0,0.0,0.0,0.0,0.0,0.0,0.0,0.0,0.0,0.0,0.0,0.0,0.0,0.0,0.0,0.0,0.0,0.0,0.0,0.0,0.0,0.0,0.0,0.0,0.0,0.0,0.0,6.0211,6.6864,7.7868,8.1116,8.2378,8.2028,7.9371,7.4529,6.7109,6.2361,0.0,0.0,0.0,0.0,0.0,0.0,0.0,0.0,0.0,0.0,0.0,0.0,0.0,0.0,0.0,0.0,0.0,0.0,0.0,0.0,0.0,0.0,0.0,0.0,0.0,0.0,0.0,0.0,0.0,0.0,0.0,0.0,0.0,0.0,0.0,0.0,0.0,0.0,0.0,0.0,0.0,0.0,0.0,0.0,0.0,0.0,0.0,0.0,0.0,0.0,0.0,0.0,0.0,0.0,0.0,0.0,0.0,0.0,0.0,0.0,0.0,0.0,0.0,0.0,0.0,0.0,0.0,0.0,0.0,0.0,0.0,0.0,0.0,0.0,0.0,0.0,0.0,0.0,0.0,0.0,0.0,0.0,0.0,0.0,0.0,0.0,0.0,0.0,0.0,0.0,0.0,0.0,0.0,0.0,0.0,0.0,0.0,0.0,0.0,0.0,0.0,0.0,6.8259,7.2918,8.0505,8.2437,8.3032,8.2586,7.9799,7.5044,6.7974,6.1856,0.0,0.0,0.0,0.0,0.0,0.0,0.0,0.0,0.0,0.0,0.0,0.0,0.0,0.0,0.0,0.0,0.0,0.0,0.0,0.0,0.0,0.0,0.0,0.0,0.0,0.0,0.0,0.0,0.0,0.0,0.0,0.0,0.0,0.0,0.0,0.0,0.0,0.0,0.0,0.0,0.0,0.0,0.0,0.0,0.0,0.0,0.0,0.0,0.0,0.0,0.0,0.0,0.0,0.0,0.0,0.0,0.0,0.0,0.0,0.0,0.0,0.0,0.0,0.0,0.0,0.0,0.0,0.0,0.0,0.0,0.0,0.0,0.0,0.0,0.0,0.0,0.0,0.0,0.0,0.0,0.0,0.0,0.0,0.0,0.0,0.0,0.0,0.0,0.0,0.0,0.0,0.0,0.0,0.0,0.0,0.0,0.0,0.0,0.0,0.0,0.0,0.0,6.9966,7.7273,8.2474,8.3106,8.3477,8.4146,7.783,7.2206,6.847,5.9436,0.0,0.0,0.0,0.0,0.0,0.0,0.0,0.0,0.0,0.0,0.0,0.0,0.0,0.0,0.0,0.0,0.0,0.0,0.0,0.0,0.0,0.0,0.0,0.0,0.0,0.0,0.0,0.0,0.0,0.0,0.0,0.0,0.0,0.0,0.0,0.0,0.0,0.0,0.0,0.0,0.0,0.0,0.0,0.0,0.0,0.0,0.0,0.0,0.0,0.0,0.0,0.0,0.0,0.0,0.0,0.0,0.0,0.0,0.0,0.0,0.0,0.0,0.0,0.0,0.0,0.0,0.0,0.0,0.0,0.0,0.0,0.0,0.0,0.0,0.0,0.0,0.0,0.0,0.0,0.0,0.0,0.0,0.0,0.0,0.0,0.0,0.0,0.0,0.0,0.0,0.0,0.0,0.0,0.0,0.0,0.0,0.0,0.0,0.0,0.0,0.0,0.0,7.0286,7.7292,0.0,8.4406,8.4629,8.4406,8.1177,7.608,6.8865,0.0,0.0,0.0,0.0,0.0,0.0,0.0,0.0,0.0,0.0,0.0,0.0,0.0,0.0,0.0,0.0,0.0,0.0,0.0,0.0,0.0,0.0,0.0,0.0,0.0,0.0,0.0,0.0,0.0,0.0,0.0,0.0,0.0,0.0,0.0,0.0,0.0,0.0,0.0,0.0,0.0,0.0,0.0,0.0,0.0,0.0,0.0,0.0,0.0,0.0,0.0,0.0,0.0,0.0,0.0,0.0,0.0,0.0,0.0,0.0,0.0,0.0,0.0,0.0,0.0,0.0,0.0,0.0,0.0,0.0,0.0,0.0,0.0,0.0,0.0,0.0,0.0,0.0,0.0,0.0,0.0,0.0,0.0,0.0,0.0,0.0,0.0,0.0,0.0,0.0,0.0,0.0,0.0,0.0,0.0,0.0,0.0,0.0,0.0,0.0,0.0,0.0,6.3928,7.1695,7.9,0.0,8.6598,8.6858,8.7118,8.3974,7.8372,6.9806,0.0,0.0,0.0,0.0,0.0,0.0,0.0,0.0,0.0,0.0,0.0,0.0,0.0,0.0,0.0,0.0,0.0,0.0,0.0,0.0,0.0,0.0,0.0,0.0,0.0,0.0,0.0,0.0,0.0,0.0,0.0,0.0,0.0,0.0,0.0,0.0,0.0,0.0,0.0,0.0,0.0,0.0,0.0,0.0,0.0,0.0,0.0,0.0,0.0,0.0,0.0,0.0,0.0,0.0,0.0,0.0,0.0,0.0,0.0,0.0,0.0,0.0,0.0,0.0,0.0,0.0,0.0,0.0,0.0,0.0,0.0,0.0,0.0,0.0,0.0,0.0,0.0,0.0,0.0,0.0,0.0,0.0,0.0,0.0,0.0,0.0,0.0,0.0,0.0,0.0,0.0,0.0,0.0,0.0,0.0,0.0,0.0,0.0,0.0,0.0,0.0,0.0,6.5207,7.462,8.3292,8.983,8.983,9.035,9.2802,8.5483,7.7942,0.0,0.0,0.0,0.0,0.0,0.0,0.0,0.0,0.0,0.0,0.0,0.0,0.0,0.0,0.0,0.0,0.0,0.0,0.0,0.0,0.0,0.0,0.0,0.0,0.0,0.0,0.0,0.0,0.0,0.0,0.0,0.0,0.0,0.0,0.0,0.0,0.0,0.0,0.0,0.0,0.0,0.0,0.0,0.0,0.0,0.0,0.0,0.0,0.0,0.0,0.0,0.0,0.0,0.0,0.0,0.0,0.0,0.0,0.0,0.0,0.0,0.0,0.0,0.0,0.0,0.0,0.0,0.0,0.0,0.0,0.0,0.0,0.0,0.0,0.0,0.0,0.0,0.0,0.0,0.0,0.0,0.0,0.0,0.0,0.0,0.0,0.0,0.0,0.0,0.0,0.0,0.0,0.0,0.0,0.0,0.0,0.0,0.0,0.0,0.0,0.0,0.0,0.0,6.8544,7.952,8.8381,9.2653,9.3397,9.3556,9.3536,8.946,8.2511,7.2207,0.0,0.0,0.0,0.0,0.0,0.0,0.0,0.0,0.0,0.0,0.0,0.0,0.0,0.0,0.0,0.0,0.0,0.0,0.0,0.0,0.0,0.0,0.0,0.0,0.0,0.0,0.0,0.0,0.0,0.0,0.0,0.0,0.0,0.0,0.0,0.0,0.0,0.0,0.0,0.0,0.0,0.0,0.0,0.0,0.0,0.0,0.0,0.0,0.0,0.0,0.0,0.0,0.0,0.0,0.0,0.0,0.0,0.0,0.0,0.0,0.0,0.0,0.0,0.0,0.0,0.0,0.0,0.0,0.0,0.0,0.0,0.0,0.0,0.0,0.0,0.0,0.0,0.0,0.0,0.0,0.0,0.0,0.0,0.0,0.0,0.0,0.0,0.0,0.0,0.0,0.0,0.0,0.0,0.0,0.0,0.0,0.0,0.0,0.0,0.0,0.0,0.0,7.093,8.2601,9.2003,9.6574,9.7769,9.8178,9.8157,9.4999,8.7874,7.5745,0.0,0.0,0.0,0.0,0.0,0.0,0.0,0.0,0.0,0.0,0.0,0.0,0.0,0.0,0.0,0.0,0.0,0.0,0.0,0.0,0.0,0.0,0.0,0.0,0.0,0.0,0.0,0.0,0.0,0.0,0.0,0.0,0.0,0.0,0.0,0.0,0.0,0.0,0.0,0.0,0.0,0.0,0.0,0.0,0.0,0.0,0.0,0.0,0.0,0.0,0.0,0.0,0.0,0.0,0.0,0.0,0.0,0.0,0.0,0.0,0.0,0.0,0.0,0.0,0.0,0.0,0.0,0.0,0.0,0.0,0.0,0.0,0.0,0.0,0.0,0.0,0.0,0.0,0.0,0.0,0.0,0.0,0.0,0.0,0.0,0.0,0.0,0.0,0.0,0.0,0.0,0.0,0.0,0.0,0.0,0.0,0.0,0.0,0.0,0.0,0.0,0.0,7.2778,8.4592,9.4664,10.088,10.2295,10.3289,10.4534,10.0836,9.3302,8.1018,0.0,0.0,0.0,0.0,0.0,0.0,0.0,0.0,0.0,0.0,0.0,0.0,0.0,0.0,0.0,0.0,0.0,0.0,0.0,0.0,0.0,0.0,0.0,0.0,0.0,0.0,0.0,0.0,0.0,0.0,0.0,0.0,0.0,0.0,0.0,0.0,0.0,0.0,0.0,0.0,0.0,0.0,0.0,0.0,0.0,0.0,0.0,0.0,0.0,0.0,0.0,0.0,0.0,0.0,0.0,0.0,0.0,0.0,0.0,0.0,5.6242,0.0,0.0,0.0,0.0,0.0,0.0,0.0,0.0,0.0,0.0,0.0,0.0,0.0,0.0,0.0,0.0,0.0,0.0,0.0,0.0,0.0,0.0,0.0,0.0,0.0,0.0,0.0,0.0,0.0,0.0,0.0,0.0,0.0,0.0,0.0,0.0,0.0,0.0,0.0,0.0,0.0,7.5341,8.8158,9.8333,10.29,10.4054,10.4616,10.4495,10.1295,9.4718,8.4098,7.6178,0.0,0.0,0.0,0.0,0.0,0.0,0.0,0.0,0.0,0.0,0.0,0.0,0.0,0.0,0.0,0.0,0.0,0.0,0.0,0.0,0.0,0.0,0.0,0.0,0.0,0.0,0.0,0.0,0.0,0.0,0.0,0.0,0.0,0.0,0.0,0.0,0.0,0.0,0.0,0.0,0.0,0.0,0.0,0.0,0.0,0.0,0.0,0.0,0.0,0.0,0.0,0.0,0.0,0.0,0.0,0.0,0.0,0.0,0.0,0.0,6.0165,0.0,0.0,0.0,0.0,0.0,0.0,0.0,0.0,0.0,0.0,0.0,0.0,0.0,0.0,0.0,0.0,0.0,0.0,0.0,0.0,0.0,0.0,0.0,0.0,0.0,0.0,0.0,0.0,0.0,0.0,0.0,0.0,0.0,0.0,0.0,0.0,0.0,0.0,0.0,0.0,7.7639,9.0909,10.1163,10.5486,10.6981,10.76,10.7304,10.4529,9.9013,9.0069,8.1963,0.0,0.0,0.0,0.0,0.0,0.0,0.0,0.0,0.0,0.0,0.0,0.0,0.0,0.0,0.0,0.0,0.0,0.0,0.0,0.0,0.0,0.0,0.0,0.0,0.0,0.0,0.0,0.0,0.0,0.0,0.0,0.0,0.0,0.0,0.0,0.0,0.0,0.0,0.0,0.0,0.0,0.0,0.0,0.0,0.0,0.0,0.0,0.0,0.0,0.0,0.0,0.0,0.0,7.6592,7.8323,7.8092,8.0362,8.1439,8.1246,7.4938,7.1014,6.8821,0.0,0.0,0.0,0.0,0.0,0.0,0.0,0.0,0.0,0.0,0.0,0.0,0.0,0.0,0.0,0.0,0.0,0.0,0.0,0.0,0.0,0.0,0.0,0.0,0.0,7.6101,7.5595,0.0,0.0,0.0,0.0,0.0,0.0,0.0,0.0,0.0,0.0,0.0,0.0,7.9999,9.3144,10.3164,10.743,10.9275,11.0169,11.0001,10.7779,10.3401,9.6365,8.8479,8.04,0.0,0.0,0.0,0.0,0.0,0.0,0.0,0.0,0.0,0.0,0.0,0.0,0.0,0.0,0.0,0.0,0.0,0.0,0.0,0.0,0.0,0.0,0.0,0.0,0.0,0.0,0.0,0.0,0.0,0.0,0.0,0.0,4.7107,4.8296,0.0,0.0,0.0,0.0,0.0,0.0,0.0,0.0,0.0,0.0,0.0,0.0,0.0,7.0744,7.4284,8.0592,8.3824,8.4016,9.0402,9.2672,9.121,9.2326,9.3249,9.3903,9.2903,0.0,7.6899,7.563,0.0,0.0,0.0,0.0,0.0,0.0,0.0,0.0,0.0,0.0,0.0,0.0,0.0,0.0,0.0,0.0,0.0,0.0,0.0,0.0,0.0,0.0,8.3176,8.2221,8.4028,8.5104,0.0,7.181,6.2337,5.9155,5.7025,0.0,0.0,0.0,0.0,0.0,0.0,0.0,8.3112,9.5196,10.4098,10.6923,10.8707,10.9581,10.9289,10.7695,10.463,9.9711,9.421,8.7979,8.0939,7.2745,0.0,0.0,0.0,0.0,0.0,0.0,0.0,0.0,0.0,0.0,0.0,0.0,0.0,0.0,0.0,0.0,0.0,0.0,0.0,0.0,0.0,0.0,0.0,0.0,0.0,0.0,0.0,0.0,0.0,4.8393,5.2598,5.1561,5.3135,5.2675,0.0,0.0,0.0,0.0,0.0,0.0,0.0,0.0,0.0,7.6015,7.8323,8.1554,8.5901,9.0787,9.348,9.4018,9.8904,10.0789,10.0096,10.0981,10.1597,10.202,10.202,9.8711,9.2903,8.5863,8.0054,7.5091,0.0,0.0,0.0,0.0,6.9552,7.1245,7.5399,7.6823,0.0,7.5245,0.0,0.0,0.0,0.0,0.0,0.0,0.0,0.0,0.0,0.0,0.0,9.0017,9.1595,9.221,9.1479,8.4921,7.7002,0.0,6.6782,6.3214,5.5274,0.0,0.0,0.0,0.0,7.9035,8.7066,9.6896,10.4418,10.776,10.9186,11.0088,11.0471,10.8907,10.6693,10.3828,9.8865,9.3826,8.8902,8.1016,7.3947,0.0,0.0,0.0,0.0,0.0,0.0,0.0,0.0,0.0,0.0,0.0,0.0,0.0,0.0,0.0,0.0,0.0,0.0,0.0,0.0,0.0,0.0,0.0,0.0,0.0,0.0,0.0,0.0,5.3618,5.7905,5.5369,5.8443,5.8635,0.0,0.0,0.0,0.0,0.0,0.0,7.2091,7.5745,8.04,8.6324,8.8786,9.2133,9.6557,9.9365,10.1212,10.2097,10.4789,10.6097,10.6097,10.6982,10.729,10.7098,10.729,10.6905,10.529,9.4903,8.8517,8.4824,8.0169,7.8246,7.8169,7.9169,8.0246,8.1977,8.744,8.921,8.8517,8.5593,0.0,7.9746,7.086,0.0,0.0,0.0,0.0,7.413,8.217,8.6286,8.9825,9.5557,9.6942,9.7019,9.7211,9.4595,8.9367,0.0,7.6952,7.3092,6.352,0.0,0.0,0.0,0.0,8.3483,9.1145,9.8806,10.4911,10.8479,10.9713,11.0483,11.1098,10.979,10.8213,10.6521,10.2212,9.8442,9.5441,8.8632,8.2247,7.6553,0.0,0.0,0.0,0.0,0.0,0.0,0.0,0.0,0.0,0.0,0.0,0.0,0.0,0.0,0.0,0.0,0.0,0.0,0.0,0.0,0.0,0.0,0.0,0.0,0.0,0.0,0.0,0.0,0.0,6.0704,6.4859,0.0,0.0,0.0,0.0,6.7398,7.2476,7.7553,8.2554,8.6786,9.1825,9.7788,9.9635,10.1789,10.4482,10.552,10.6521,10.729,10.829,10.8713,10.8713,10.9598,10.9598,10.879,10.9598,10.9483,10.8213,10.1981,9.8365,9.6326,9.2903,9.1056,9.021,8.9479,9.0287,9.2018,9.3941,9.4057,9.3864,9.6865,9.2364,8.5247,8.2247,7.8477,0.0,0.0,8.0862,8.3862,8.8363,9.2018,9.5249,9.8019,9.8673,9.8904,9.9712,9.7211,9.3441,0.0,8.6017,8.2726,7.7739,0.0,7.7437,7.8279,8.3024,8.8806,9.5212,10.1288,10.602,10.8598,10.9713,11.0214,11.0291,10.9406,10.8213,10.6521,10.3905,10.1597,9.9827,9.4749,8.9556,8.4439,7.5207,0.0,0.0,0.0,0.0,0.0,0.0,0.0,0.0,0.0,0.0,0.0,0.0,0.0,0.0,0.0,0.0,0.0,0.0,0.0,0.0,0.0,0.0,0.0,0.0,0.0,0.0,0.0,0.0,6.7475,7.3745,0.0,7.0744,7.2706,7.5168,7.7207,8.2593,8.7748,9.2287,9.5518,9.9211,10.3597,10.4789,10.6097,10.7482,10.9021,10.979,11.0214,11.1483,11.1906,11.1406,11.1714,11.1406,11.0598,11.0906,11.0906,11.0406,10.7713,10.4905,10.2097,9.9288,9.8327,9.8557,9.8827,9.9288,9.9981,10.1096,10.1289,10.0904,9.9942,9.5711,9.0517,8.7979,8.6132,8.5247,8.6709,8.8556,9.0941,9.4672,9.7326,9.9404,10.0904,10.1712,10.2212,10.2481,10.1096,9.9288,9.7211,9.2556,8.756,8.3192,8.3807,8.4421,8.3116,8.7648,9.3099,9.8096,10.1481,10.4713,10.779,10.8406,10.879,10.929,10.9098,10.8213,10.6521,10.452,10.2404,10.0173,9.7288,9.3326,8.8209,8.2708,7.4486,0.0,0.0,0.0,0.0,0.0,0.0,0.0,0.0,0.0,0.0,0.0,0.0,0.0,0.0,0.0,0.0,0.0,0.0,0.0,0.0,0.0,0.0,0.0,0.0,0.0,0.0,7.4861,7.4014,8.0669,8.3439,7.8631,8.1477,8.4478,8.644,9.1556,9.6211,9.9865,10.2212,10.4789,10.7598,10.8521,10.9406,11.0214,11.1598,11.2214,11.1906,11.3291,11.3407,11.2291,11.2599,11.2291,11.1522,11.1791,11.1791,11.1522,11.0906,10.9098,10.6713,10.4982,10.4789,10.5597,10.5905,10.6213,10.6482,10.6713,10.629,10.5097,10.2597,9.9481,9.6288,9.4018,9.3749,9.4249,9.4518,9.5634,9.7288,9.9865,10.1289,10.2404,10.3212,10.3712,10.3982,10.4212,10.3597,10.2904,10.2289,9.7865,9.3056,8.9402,9.0364,9.0787,8.8248,9.2441,9.6865,9.9712,10.1789,10.4212,10.7405,10.7713,10.7905,10.8406,10.7713,10.6713,10.5597,10.2597,10.0289,9.8865,9.6326,9.3095,8.9133,8.3516,7.5745,6.5859,0.0,0.0,0.0,0.0,0.0,0.0,0.0,0.0,0.0,0.0,0.0,0.0,0.0,0.0,0.0,0.0,0.0,0.0,0.0,0.0,0.0,0.0,0.0,6.609,7.4938,8.1054,8.0285,8.544,8.8094,8.5593,8.7632,9.0825,9.4903,9.9096,10.2597,10.5097,10.6905,10.8598,11.0291,11.1098,11.1906,11.2714,11.3599,11.3599,11.2791,11.3714,11.3291,11.1714,11.2406,11.2291,11.1598,11.2406,11.2291,11.1598,11.1598,11.1098,11.0291,11.0214,11.0714,11.1406,11.0483,11.0791,11.1291,11.0483,10.8598,10.629,10.5482,10.4097,10.2404,10.0712,10.1404,10.252,10.1597,10.202,10.2789,10.3712,10.3905,10.4097,10.4905,10.4482,10.4212,10.4982,10.4482,10.3982,10.3905,10.1904,9.9404,9.6903,9.7134,9.6788,9.4287,9.7442,0.0,10.0173,10.2289,10.4789,10.729,10.7598,10.7598,10.7598,10.529,10.3789,10.3789,9.8288,9.5403,9.6211,9.221,8.921,8.7517,7.7553,7.0321,6.6128,0.0,0.0,0.0,0.0,0.0,0.0,0.0,0.0,0.0,0.0,0.0,0.0,0.0,0.0,0.0,0.0,0.0,0.0,0.0,0.0,0.0,0.0,7.2937,7.3206,8.0939,8.7209,8.8825,9.371,9.6442,9.5095,9.7288,9.925,10.0404,10.3289,10.6097,10.8675,10.929,11.0598,11.2906,11.2599,11.2791,11.3599,11.4484,11.5099,11.5484,11.6292,11.6215,11.5099,11.4791,11.4099,11.3291,11.3483,11.3483,11.3291,11.3291,11.3483,11.3676,11.1175,11.0291,11.0598,11.0983,11.0906,11.0483,11.0291,10.929,10.8098,10.729,10.6213,10.502,10.3405,10.3212,10.3482,10.3289,10.3405,10.3712,10.4597,10.4789,10.4982,10.579,10.5905,10.579,10.602,10.5905,10.5405,10.4097,10.3289,10.2212,10.0289,10.0596,10.0519,9.8634,9.9827,0.0,10.2712,10.2904,10.3482,10.4789,10.4905,10.4905,10.4905,10.3712,10.2404,10.1212,9.7865,9.548,9.4441,9.271,9.0979,8.9248,8.1016,7.5014,0.0,0.0,0.0,0.0,0.0,0.0,0.0,0.0,0.0,0.0,0.0,0.0,0.0,0.0,0.0,0.0,0.0,0.0,0.0,0.0,0.0,0.0,7.6399,8.2324,8.3747,8.8209,9.2672,9.6288,9.9327,10.1096,10.0981,10.2597,10.3597,10.3597,10.602,10.829,11.0098,11.0483,11.1406,11.2906,11.3099,11.3483,11.3984,11.5215,11.5907,11.5984,11.6484,11.6292,11.5407,11.4984,11.4484,0.0,11.3984,11.3984,11.3984,11.3984,11.4291,0.0,0.0,0.0,0.0,0.0,11.2483,11.1714,11.1406,11.0714,10.9906,10.8983,10.8213,10.7098,10.5482,10.5213,10.5405,10.5097,10.5213,10.5713,10.6482,10.6713,10.679,10.729,10.7405,10.7405,10.7405,10.7213,10.6713,10.5713,10.5213,0.0,10.3097,10.2404,10.1481,9.9788,10.1212,10.2597,10.3289,10.3789,10.452,10.5405,10.579,10.5982,10.5982,10.3905,0.0,0.0,0.0,9.2941,9.0133,8.9556,0.0,0.0,0.0,0.0,0.0,0.0,0.0,0.0,7.092,6.9941,0.0,0.0,0.0,0.0,0.0,0.0,0.0,0.0,0.0,0.0,0.0,0.0,0.0,0.0,0.0,0.0,8.4709,9.1787,9.548,9.5826,9.7403,10.2097,10.2904,10.3289,10.3982,10.4905,10.5405,10.5482,10.7713,10.9483,11.0406,0.0,0.0,0.0,0.0,11.4214,11.4291,11.5792,11.6176,11.5599,11.5599,11.5215,11.4407,11.4407,11.4407,11.4291,11.4407,11.4407,11.4291,11.4291,11.4291,11.4291,11.4907,11.5599,11.6099,11.5407,11.4714,11.3907,11.3099,0.0,0.0,11.0598,10.979,10.879,10.7213,10.7213,10.7713,10.6905,10.7213,10.7982,10.8713,10.8906,10.8906,10.8906,10.8906,10.8906,10.8906,10.829,10.7713,10.7598,10.679,10.602,10.5097,10.3212,10.1289,9.975,10.2097,10.3789,10.3097,10.4905,10.6521,10.7213,0.0,0.0,10.8482,10.4905,10.2289,10.152,9.5365,9.0017,8.6055,8.5978,8.5324,8.3747,8.4401,8.5478,8.6978,8.7055,8.794,8.9286,7.7949,7.5648,0.0,0.0,0.0,0.0,0.0,0.0,0.0,0.0,0.0,0.0,0.0,0.0,0.0,0.0,0.0,8.4132,9.0171,9.5942,10.1404,10.0981,10.0712,10.2404,10.4405,10.5482,10.4905,10.629,10.7482,10.8098,10.929,11.0598,11.2099,11.2406,11.3099,11.4484,11.4907,11.5407,11.5984,11.6292,11.6792,11.7292,0.0,0.0,11.71,11.71,11.6715,11.6099,11.6792,11.6715,11.5984,11.5984,11.5984,11.5907,11.4714,11.4291,11.4484,11.4291,11.4099,11.3984,11.3791,11.3214,11.2291,11.1522,11.0714,10.979,10.8713,10.8482,0.0,10.8482,10.8482,10.8713,10.8906,10.8906,10.8906,10.8906,10.8906,10.8906,10.8906,10.829,10.7521,10.679,10.5905,10.5097,10.4289,10.4789,10.5097,10.3982,10.4405,10.5097,10.5597,10.5482,10.5213,10.4713,10.5405,10.579,10.579,10.3789,10.252,10.2404,9.7904,9.4326,9.2095,9.2672,9.2864,9.2556,9.2018,9.1902,9.221,9.2941,9.3787,9.4711,8.8867,8.6791,0.0,0.0,0.0,0.0,0.0,0.0,0.0,0.0,0.0,0.0,0.0,6.7475,7.2552,0.0,8.4247,9.0248,9.548,9.9673,10.2212,10.4405,10.579,10.579,10.6521,10.7213,10.7598,10.8406,10.9098,10.9483,11.0406,11.1406,11.2599,11.3099,11.3714,11.4599,11.5099,11.5484,11.5907,11.6292,11.6676,11.71,11.71,11.7407,11.7792,11.7792,11.7792,11.7792,11.8292,11.8215,11.7792,11.7792,11.7792,11.7715,11.6907,11.5984,11.5291,11.5291,11.5291,11.5215,11.4791,11.4407,11.3907,11.2983,11.2214,11.1291,11.0483,10.9906,10.9598,10.9598,10.9598,10.9713,11.0598,11.0791,11.0906,11.1291,11.1483,11.1483,11.1483,11.0483,10.9521,10.9021,10.7905,10.6905,10.6482,10.7098,10.7098,10.5405,10.5097,10.5405,10.629,10.679,10.679,10.6405,10.7482,10.829,10.829,10.602,10.4097,10.3289,10.0519,9.825,9.6942,9.7711,9.8134,9.8134,9.8134,9.8365,9.8788,9.925,9.9673,10.0096,9.8327,9.6596,0.0,0.0,0.0,0.0,0.0,0.0,0.0,0.0,6.4012,6.8629,7.1629,7.5476,8.2285,8.617,9.0094,9.5595,10.0096,10.2789,10.2789,10.679,10.9598,10.9406,10.879,10.8906,11.0098,11.0406,11.0483,11.0714,11.1483,11.2291,11.2906,11.3791,11.4291,11.4291,11.5215,11.5792,11.5792,11.6599,11.6984,11.6984,11.6984,11.7407,11.81,11.8215,11.86,11.91,11.91,11.91,11.91,11.91,11.91,11.91,11.91,11.8215,11.6984,11.6984,11.6984,11.6907,11.6099,11.5676,11.5407,11.4484,11.3714,11.2791,11.2214,11.1483,11.0906,11.0906,11.0906,11.1214,11.2599,11.2983,11.3099,11.3791,11.3984,11.3984,11.3984,11.2791,11.1714,11.1714,11.0521,10.9406,10.9406,10.9406,10.8598,10.6213,10.579,10.6097,10.679,10.8098,10.8983,10.9098,11.0598,11.1598,11.1714,10.9213,10.6905,10.5213,10.3789,10.2597,10.1597,10.2212,10.252,10.252,10.3212,10.3982,10.4905,10.4905,10.4905,10.4905,10.5713,10.4289,5.5742,5.3933,5.5126,5.8858,6.0473,6.3743,0.0,0.0,7.5784,8.1593,8.4786,8.7748,9.1595,9.4441,9.7442,10.1096,10.2904,10.4789,10.7598,10.7982,10.879,11.1021,11.1098,11.0791,11.0291,11.0906,11.1714,11.2406,11.3214,11.3791,11.3791,11.4714,11.5176,11.5176,11.6715,11.7484,11.7484,11.8407,11.8792,11.8792,11.8792,11.8908,11.8985,11.9715,11.9715,11.91,11.91,11.91,11.91,11.91,11.91,11.91,11.91,11.8985,11.8792,11.8792,11.8792,11.8715,11.7792,11.6984,11.6176,11.5407,11.4599,11.3791,11.3714,11.3714,11.3599,11.3599,11.3599,11.3599,11.3791,11.3907,11.3907,11.3984,11.3984,11.3984,11.3984,11.3214,11.2599,11.2599,11.1791,11.1214,11.1214,11.1214,11.0598,10.879,10.8482,10.8482,10.8598,10.879,10.9213,10.9983,11.0906,11.1791,11.2522,11.2214,11.1291,10.9598,10.929,10.8482,10.6905,10.6905,10.7021,10.7021,10.7098,10.7521,10.829,10.829,10.829,10.8406,10.9213,10.779,6.3705,6.2589,0.0,0.0,7.1398,7.5014,8.2054,8.3131,8.4055,8.9017,9.1248,9.3403,9.6788,9.9096,10.1096,0.0,10.4905,10.6405,10.729,10.8406,10.9213,10.929,11.0598,11.1522,11.1598,11.2022,11.2522,11.3407,11.4291,11.4791,11.4791,11.5484,11.6215,11.6715,11.7407,11.8023,11.86,11.8908,11.91,11.91,11.91,11.9292,11.9792,12.01,12.0408,12.06,12.06,12.06,12.06,12.06,12.06,12.06,12.06,12.06,12.0408,11.9485,11.91,11.8985,11.8715,11.8292,11.7907,11.6984,11.6215,11.5407,11.4907,11.4407,11.3984,11.3984,11.3984,11.4099,11.4599,11.4791,11.4907,11.5291,11.5484,11.5484,11.5484,11.4791,11.4214,11.4214,11.3483,11.2983,11.2983,11.2983,11.2714,11.1983,11.1021,11.0406,11.0406,11.0791,11.1406,11.2291,11.2714,11.3099,11.3407,11.3483,11.3214,11.2483,11.2406,11.2099,11.1406,11.1406,11.1406,11.1406,11.1406,11.1483,11.1906,11.1906,11.1598,11.1098,11.1983,11.1406,6.7744,0.0,0.0,7.6515,8.1016,8.5286,8.9286,9.0364,9.1595,9.5365,9.648,9.7711,10.0904,10.2481,10.3712,10.4789,10.6713,10.7982,10.779,10.9213,10.9713,10.8482,10.979,11.1098,11.1906,11.2599,11.3291,11.3984,11.4984,11.5715,11.5984,11.6484,11.7292,11.81,11.8407,11.8792,11.9408,11.9715,11.9792,11.9792,11.9792,12.01,12.0677,12.0677,12.0985,12.1685,12.1685,12.1808,12.2001,12.2001,12.2193,12.2386,12.2386,12.227,12.1885,12.0884,12.0307,11.98,11.9607,11.9492,11.9299,11.8407,11.7715,11.71,11.6484,11.5907,11.5407,11.5407,11.5407,11.5599,11.6215,11.6292,11.6484,11.71,11.7176,11.7176,11.7176,11.6792,11.6292,11.5984,11.5484,11.4984,11.4984,11.4984,11.5099,11.5407,11.4407,11.3291,11.2291,11.2906,11.3714,11.4291,11.4791,11.4984,11.4984,11.4984,11.4984,11.4984,11.4791,11.4599,11.4407,11.4407,11.4214,11.3984,11.3984,11.3984,11.3984,11.3984,11.3714,11.3099,11.4214,11.4407,0.0,0.0,7.6784,8.1054,8.7171,9.3056,9.6403,9.7865,9.9173,10.1789,10.1712,10.1904,10.4482,10.4982,10.5597,10.729,10.829,10.9406,11.1098,11.0714,11.0214,11.0098,10.9406,10.929,0.0,11.2483,11.3984,11.3984,11.5484,11.6792,11.7715,11.7715,11.8215,11.8985,11.9792,12.0216,12.0292,12.11,12.1485,12.1485,12.1485,12.1485,12.16,12.16,12.157,12.1821,12.1821,12.229,12.3191,12.3191,12.3615,12.4425,12.4425,12.3924,12.3191,12.4001,12.3181,12.159,12.082,12.0512,12.0275,11.9415,11.8985,11.8985,11.8985,11.8985,11.8908,11.8908,11.8908,11.8985,11.8985,11.8985,11.8985,11.8985,11.8985,11.8985,11.8985,11.8985,11.8715,11.7907,11.7715,11.7715,11.7715,11.7715,11.7984,11.8792,11.8908,11.7715,11.4407,11.4714,11.5215,11.5291,11.6715,11.7715,11.7715,11.7715,11.7715,11.7715,11.6907,11.6099,11.5291,11.5291,11.4907,11.3984,11.3984,11.3984,11.3984,11.3984,11.3984,11.3984,11.5676,11.6407,7.297,0.0,8.492,9.0312,9.5016,9.8788,10.0519,10.1096,10.1404,10.1712,10.0212,9.9058,9.9904,10.0981,10.2097,10.3289,10.6521,10.929,11.0483,11.0406,10.9598,10.7905,10.8406,0.0,0.0,0.0,0.0,11.4714,11.5907,11.6907,11.7792,11.8292,11.8985,11.9908,12.0216,12.06,12.1177,12.1485,12.1608,12.17,12.1827,12.1788,12.1788,12.2367,12.2719,12.2801,12.3302,12.3803,12.4078,12.4078,12.4194,12.4502,12.4502,12.431,12.4078,12.4394,12.4201,12.3503,12.2482,12.1821,12.116,12.0223,11.9908,11.9792,11.9292,11.91,11.91,11.91,11.91,11.91,11.91,11.91,11.91,11.91,11.91,11.91,11.91,11.91,11.8985,11.8715,11.8715,11.8715,11.8715,11.8715,11.8792,11.91,11.91,11.8715,11.7484,11.76,11.7792,11.7792,11.8292,11.8715,11.8715,11.8715,11.8715,11.8715,11.8407,11.81,11.7792,11.7792,11.7715,11.7407,11.7407,11.7407,11.7407,11.7407,11.7407,11.7407,11.7984,11.8215,8.0646,8.6439,9.2107,9.7774,10.1479,10.3791,10.4022,10.4292,10.4022,10.2213,9.9519,9.7364,9.6711,9.6519,9.7519,10.0789,10.4289,10.7713,11.0714,11.0598,10.9598,10.7982,10.8213,10.8213,0.0,0.0,0.0,11.4599,11.5907,11.6984,11.8215,11.91,11.9908,12.0716,12.11,12.137,12.1731,12.2309,12.2624,12.2791,12.2801,12.2805,12.2805,12.3384,12.3735,12.3696,12.4317,12.4703,12.5092,12.5092,12.5285,12.5517,12.5517,12.5285,12.5092,12.5522,12.5214,12.4594,12.3803,12.2983,12.2212,12.1493,12.0985,12.0677,12.0177,11.9985,11.9985,11.9985,11.9985,11.9985,11.9985,11.9985,11.9985,11.9985,11.9985,11.9985,11.9985,11.9985,11.9908,11.96,11.9485,11.9485,11.9485,11.9792,11.9985,11.9985,11.9985,11.9792,11.9215,11.91,11.91,11.91,11.9408,11.9485,11.9485,11.9485,11.9485,11.9485,11.9292,11.91,11.91,11.91,11.91,11.91,11.91,11.91,11.91,11.91,11.91,11.91,11.9715,11.9985,8.7571,9.3206,9.8378,10.3318,10.6292,10.7874,10.6986,10.7295,10.6795,10.3135,9.9553,9.6551,0.0,0.0,9.2249,9.975,10.2097,10.5213,11.1791,11.1406,11.0406,0.0,0.0,0.0,0.0,0.0,0.0,11.3907,0.0,11.7176,11.91,11.9908,12.0793,12.1677,12.2485,12.257,12.1898,12.3478,12.4415,12.4502,12.4464,12.4464,12.4464,12.4622,12.4587,12.467,12.467,12.5291,12.6182,12.6182,12.6684,12.7381,12.7381,12.6916,12.6298,12.711,12.6414,12.4866,12.4703,12.4001,12.3186,12.3002,12.2408,12.1677,12.1677,12.1677,12.1677,12.1677,12.1677,12.1677,12.1677,12.1677,12.1677,12.1677,12.1677,12.1677,12.1677,12.1677,12.1408,12.0485,12.0408,12.0408,12.0408,12.1177,12.1677,12.1677,12.1677,12.11,11.9408,11.9215,11.9215,11.9215,11.9908,12.0408,12.0408,12.0408,12.0485,12.0485,11.9792,11.9408,11.9408,11.9408,11.9408,11.9408,11.9408,11.9408,11.9408,11.9408,11.9408,11.9408,12.0985,12.1677,9.4729,10.0794,10.5782,10.8408,10.9492,10.9494,10.799,10.6794,10.4481,9.9127,9.3345,8.8457,0.0,0.0,0.0,9.5672,10.2597,0.0,11.3099,11.3291,0.0,11.1291,0.0,11.1291,11.0906,11.1406,0.0,0.0,11.5676,11.6907,11.9792,12.0793,12.1993,12.3587,12.3202,12.3208,12.3803,12.4314,12.4471,12.459,12.471,12.4711,12.4711,12.5407,12.5678,12.5795,12.6413,12.68,12.711,12.711,12.7187,12.7381,12.7381,12.7303,12.711,12.7303,12.711,12.6723,12.6601,12.5517,12.4201,12.4024,12.3818,12.3625,12.3533,12.3485,12.3485,12.3485,12.3485,12.3485,12.3485,12.3485,12.3485,12.3485,12.2985,12.2601,12.2601,12.2601,12.2293,12.1408,12.1793,12.2216,12.2216,12.2908,12.3293,12.2716,12.2601,12.2216,12.11,12.0985,12.0985,12.0985,12.11,12.1485,12.2216,12.2216,12.2485,12.3101,12.2908,12.2793,12.2793,12.2793,12.2793,12.2793,12.2793,12.2793,12.2793,12.2793,12.2793,12.2793,12.3293,12.3485,10.198,10.7006,11.0717,11.2109,11.2112,11.0491,10.5817,10.3696,10.0226,9.1059,8.5013,0.0,7.8314,0.0,0.0,0.0,0.0,0.0,11.3176,11.3984,11.3907,0.0,11.3488,0.0,11.3676,11.3878,11.4883,0.0,11.6688,11.7804,12.0807,12.1815,12.29,12.43,12.43,12.4691,12.5707,12.5406,12.5523,12.5794,12.5872,12.5911,12.5988,12.6414,12.6684,12.6684,0.0,12.7381,12.7381,12.7381,12.7381,12.7381,12.7381,12.7381,12.7419,12.7806,12.769,12.7419,12.7688,12.6915,12.5715,12.5109,12.4588,12.4195,12.4062,12.4101,12.4101,12.4101,12.4101,12.4101,12.4101,12.4101,12.4101,12.4101,12.3793,12.3408,12.3408,12.3408,12.3293,12.2793,12.3101,12.3408,12.3408,12.3793,12.3909,12.3485,12.3408,12.3216,12.2793,12.2408,12.2216,12.2216,12.2485,12.2908,12.3408,12.3408,12.3601,12.4101,12.4101,12.4101,12.4101,12.4101,12.4101,12.4101,12.4101,12.4101,12.4101,12.4101,12.4101,12.4101,12.4909,12.5216,10.8702,11.2101,11.4113,11.4886,11.419,11.1095,10.2779,9.9576,9.476,8.2245,0.0,7.3497,7.2272,7.3674,7.872,9.0017,0.0,10.4831,11.3291,11.4407,11.4984,11.6721,11.5687,11.5422,11.6798,11.6393,11.6707,11.8204,11.8513,11.9592,12.1904,12.2801,12.3692,12.47,12.551,12.6286,12.7222,12.6607,12.6684,12.7381,12.7381,12.7381,12.7381,12.7381,12.7497,12.7613,12.7613,0.0,12.7613,12.7613,12.7613,12.7613,12.7613,12.7613,12.7806,12.8502,12.8309,12.7806,12.8502,12.8193,12.7379,12.6195,12.5204,12.4495,12.4533,12.4486,12.4409,12.4409,12.4409,12.4409,12.4409,12.4409,12.4409,12.4409,12.4409,12.4293,12.4293,12.4216,12.4101,12.4293,12.4293,12.4293,12.4293,12.4409,12.4409,12.4293,12.4293,12.4216,12.4101,12.3485,12.3101,12.3101,12.3716,12.4101,12.4293,12.4293,12.4293,12.4409,12.4409,12.4409,12.4409,12.4486,12.4601,12.4601,12.4716,12.4793,12.4793,12.4793,12.4793,12.4793,12.6294,12.6986,11.3416,11.5621,11.6704,11.7478,11.5505,11.1482,10.4403,9.7681,0.0,0.0,7.2971,6.9142,7.081,7.3696,8.0123,9.3287,0.0,0.0,0.0,0.0,11.6682,0.0,0.0,0.0,0.0,0.0,0.0,0.0,0.0,12.1808,12.2921,12.3114,12.4005,12.5594,12.6606,12.7187,12.738,12.7226,12.7303,12.7381,12.7381,12.7381,12.7381,12.7381,12.7806,12.8386,12.8386,0.0,12.8386,12.8386,12.8386,12.8386,12.8386,12.8812,12.9508,12.9624,12.9586,12.9508,12.9624,12.908,12.8185,12.7178,12.6706,12.6497,12.6406,12.6313,12.6178,12.6178,12.6178,12.6178,12.6178,12.6178,12.6178,12.6178,12.5678,12.5216,12.5216,12.4601,12.4293,12.4986,12.5216,12.5216,12.5216,12.5794,12.5986,12.5293,12.5216,12.4909,12.4216,12.3985,12.3909,12.3909,12.3985,12.4409,12.5101,12.5216,12.5486,12.6178,12.6178,12.6178,12.6178,12.6909,12.7217,12.7217,12.7909,12.8294,12.8294,12.8294,12.8294,12.8294,12.8602,12.8794,11.5389,11.7517,11.8484,11.8406,11.5505,10.9896,9.8957,0.0,0.0,0.0,6.5211,6.2945,6.4128,0.0,0.0,0.0,0.0,0.0,0.0,0.0,0.0,0.0,0.0,0.0,0.0,0.0,0.0,0.0,0.0,12.3203,12.3892,12.4902,12.5792,12.6683,12.7071,12.7381,12.7381,12.7381,12.7381,12.7381,12.7381,12.7613,12.8,12.8,12.8502,12.9315,12.9315,0.0,12.9315,12.9315,12.9315,12.9315,12.9315,12.9508,13.0011,13.0398,13.0321,13.0011,13.0398,13.001,12.9196,12.8693,12.7873,12.701,12.6799,12.6783,12.6698,12.6727,12.6678,12.6678,12.6678,12.6678,12.6678,12.6678,12.6409,12.6101,12.6101,12.5678,12.5601,12.5986,12.6101,12.6101,12.6101,12.6409,12.6678,12.6717,12.6717,12.6717,12.6717,12.6794,12.6217,12.4909,12.5216,12.5601,12.5986,12.6486,12.6909,12.7294,12.7794,12.7986,12.7986,12.8409,12.8602,12.8602,12.8986,12.9217,12.9217,12.9217,12.9217,12.9217,13.0102,13.0487,11.6395,11.8716,11.9799,11.8909,11.5196,10.8001,9.3591,8.5766,0.0,0.0,5.8594,5.8011,5.8934,0.0,0.0,0.0,0.0,0.0,0.0,0.0,0.0,0.0,0.0,0.0,0.0,0.0,0.0,0.0,0.0,0.0,12.4903,12.6491,12.7381,12.7381,12.7381,12.7381,12.7381,12.7381,12.7381,12.7381,12.7613,12.8,12.8618,12.8812,12.9392,13.0204,13.0204,0.0,0.0,13.0204,13.0204,13.0204,13.0204,13.0321,13.0514,13.121,13.1017,13.0591,13.121,13.0901,13.0204,13.0204,12.9,12.7633,12.7461,12.73,12.7061,12.7275,12.7198,12.7121,12.7189,12.7304,12.7304,12.7178,12.6986,12.6794,12.7178,12.7101,12.6986,12.7178,12.7178,12.7178,12.7178,12.7178,12.7486,12.8102,12.8217,12.8409,12.9102,12.9217,12.8409,12.6409,12.6794,12.7178,12.7178,12.7794,12.8217,12.8217,12.8794,12.9217,12.9217,12.941,12.9487,12.9487,12.9602,12.9794,12.9987,12.9987,13.0102,13.0294,13.1602,13.2295,11.6704,11.9606,12.0689,11.9799,11.5196,10.7305,9.3534,0.0,7.4474,6.2193,5.7674,5.7126,6.1012,0.0,0.0,0.0,0.0,0.0,0.0,0.0,0.0,0.0,0.0,0.0,12.2198,12.2121,0.0,0.0,0.0,0.0,12.6027,12.6916,12.7381,12.7381,12.7381,12.7381,12.7381,12.7381,12.7381,12.7381,12.8116,12.8502,12.8618,12.9392,13.0282,13.1094,13.1094,0.0,0.0,13.1094,13.1094,13.1094,13.1094,13.1597,13.2293,13.2409,13.2293,13.2293,13.2409,13.179,13.1094,13.1094,13.0317,12.9422,12.9379,12.8834,12.8322,12.9087,12.8779,12.8316,12.8987,12.9219,12.9094,12.9036,12.7794,12.7101,12.8602,12.8294,12.8025,12.8794,12.8986,12.8986,12.8986,12.8986,12.8986,12.9102,12.9102,12.9102,12.9217,12.9217,12.9102,12.8909,12.8909,12.8986,12.8986,12.8986,12.9102,12.9102,12.9217,12.9217,12.9217,12.9987,13.041,13.041,13.1102,13.191,13.2679,13.2679,13.3103,13.3795,13.3987,13.4103,11.7091,12.0495,12.1385,11.9992,11.4809,10.6382,9.2673,0.0,7.3369,6.1334,5.717,5.6203,5.7934,5.9358,0.0,0.0,0.0,0.0,9.2973,9.6476,10.198,11.4009,0.0,0.0,0.0,0.0,0.0,0.0,0.0,0.0,12.6916,12.7187,12.7381,12.7381,12.7381,12.7381,12.7381,12.7381,12.7381,12.7381,12.8193,12.8889,12.9392,13.0282,13.121,13.1984,13.1984,0.0,0.0,13.1984,13.1984,13.1984,13.1984,13.2177,13.2487,13.2487,13.2487,13.2487,13.2487,13.2293,13.1984,13.1984,13.1672,13.1206,12.9963,12.9379,12.9182,12.9524,12.9402,12.9209,12.9396,12.9497,12.9364,12.9228,12.8717,12.8409,12.9102,12.8909,12.8794,12.9102,12.9217,12.9217,12.9217,12.9217,12.941,12.991,12.9987,13.0217,13.0602,13.0718,13.0718,13.0718,12.9794,12.9217,12.9217,12.9717,13.0217,13.0718,13.1179,13.1718,13.2218,13.2603,13.2795,13.2795,13.3103,13.341,13.3795,13.3795,13.3987,13.4295,13.4795,13.4988,11.5815,11.9992,12.1501,11.9799,11.3416,10.4294,9.1561,8.1451,7.1593,6.025,5.6763,5.5703,5.5703,5.6896,5.9204,0.0,0.0,7.1541,8.4542,8.843,9.4467,0.0,0.0,0.0,0.0,0.0,0.0,0.0,0.0,0.0,12.769,12.7497,12.7381,12.7381,12.7381,12.7381,12.7381,12.7381,12.7381,12.7381,12.8193,12.9121,12.9895,13.0785,13.1713,13.2487,13.2487,0.0,0.0,13.2487,13.2487,13.2487,13.2487,13.2487,13.2487,13.2487,13.2487,13.2487,13.2487,13.2487,13.2487,13.2487,13.2487,13.2293,13.0897,13.0275,13.0198,13.0383,13.0417,13.0373,13.0373,13.0129,12.9835,13.0008,12.9613,12.9294,12.9794,12.9794,12.9717,12.991,12.991,12.991,12.991,12.991,13.0102,13.0794,13.091,13.1179,13.1987,13.2102,13.2179,13.241,13.141,13.0602,13.0294,13.1102,13.191,13.241,13.2987,13.368,13.4295,13.4295,13.4295,13.4295,13.4295,13.4411,13.4718,13.4718,13.4795,13.5103,13.5603,13.5911,11.2101,11.7787,12.0611,11.8793,11.0786,10.0613,9.019,7.9237,6.8583,5.9083,5.6361,5.5703,5.5703,5.6395,5.8127,6.155,0.0,0.0,8.2477,8.7449,9.2371,0.0,0.0,0.0,0.0,0.0,0.0,0.0,0.0,0.0,12.8502,12.7806,12.7381,12.7381,12.7381,12.7381,12.7381,12.7381,12.7381,12.7381,12.8193,12.9121,12.9895,13.0785,13.1713,13.2487,0.0,0.0,0.0,13.2487,13.2487,13.2487,13.2487,13.2487,13.2487,13.2487,13.2487,13.2487,13.2487,13.2487,13.2487,13.2487,13.2487,13.2487,13.2487,13.1906,13.1404,13.2216,13.2404,13.2319,13.2319,13.1409,13.0798,13.1723,13.0509,12.9717,13.1295,13.0987,13.0718,13.1487,13.1679,13.1679,13.1679,13.1679,13.1679,13.1679,13.1679,13.1987,13.2872,13.2987,13.3295,13.4218,13.4295,13.391,13.2987,13.3795,13.4295,13.4295,13.4295,13.4295,13.4295,13.4295,13.4295,13.4295,13.4295,13.4718,13.5488,13.5488,13.5911,13.6796,13.6796,13.6796,9.9545,10.4178,10.6376,10.3514,9.8562,9.2035,8.2869,7.5324,6.7942,5.9634,5.6763,5.5703,5.5703,5.6395,5.9435,6.6898,0.0,0.0,0.0,0.0,0.0,9.7015,10.8513,0.0,0.0,0.0,0.0,0.0,0.0,0.0,12.8618,12.8386,12.8,12.7381,12.7381,12.7381,12.7381,12.7381,12.769,12.8193,12.9121,12.9895,13.0785,13.1713,13.2216,0.0,0.0,0.0,0.0,13.2487,13.2487,13.2487,13.2487,13.2487,13.2487,13.2487,13.2487,13.2487,13.2487,13.2487,13.2487,13.2487,13.2487,13.2487,13.2487,13.2293,13.21,13.2409,13.2484,13.2404,13.2281,13.2005,13.1794,13.1925,13.1482,13.1202,13.1564,13.1487,13.141,13.1679,13.1679,13.191,13.2487,13.2603,13.2795,13.341,13.3487,13.3603,13.391,13.391,13.3987,13.4295,13.4795,13.4795,13.3987,13.4103,13.4487,13.5103,13.5103,13.5411,13.5988,13.5988,13.5988,13.5988,13.5988,13.6103,13.6411,13.6988,13.768,13.8488,13.8488,13.8488,9.0779,9.625,9.8562,9.6125,9.1716,8.6196,7.9134,7.2312,6.5743,5.9573,5.6896,5.5703,5.5703,5.6395,5.9088,6.5551,0.0,0.0,0.0,0.0,0.0,0.0,0.0,0.0,0.0,0.0,0.0,0.0,0.0,0.0,12.9508,12.9315,12.8889,12.8386,12.8,12.769,12.7381,12.7381,12.7806,12.8618,12.8812,12.9702,13.121,13.1404,13.1906,0.0,0.0,0.0,0.0,13.2487,13.2487,13.2487,13.2487,13.2487,13.2487,13.2487,13.2487,13.2487,13.2487,13.2487,13.2487,13.2487,13.2487,13.2487,13.2487,13.2487,13.2487,13.2487,13.2487,13.2525,13.2404,13.2323,13.2198,13.1972,13.1925,13.1905,13.173,13.1679,13.1795,13.2102,13.2179,13.2487,13.3295,13.3487,13.368,13.4218,13.4295,13.4411,13.4718,13.4795,13.4911,13.5218,13.5719,13.5795,13.5295,13.5218,13.5488,13.5988,13.5988,13.618,13.6796,13.6796,13.6796,13.6796,13.7103,13.7296,13.7296,13.8104,13.8796,13.9296,13.9296,13.9296,0.0,9.1533,9.4655,9.365,8.8079,8.171,7.7473,6.9663,0.0,5.9018,5.6896,5.5742,5.5934,5.6588,5.7841,6.005,0.0,0.0,0.0,0.0,0.0,0.0,0.0,0.0,0.0,0.0,0.0,0.0,0.0,0.0,13.1094,13.0398,12.9895,12.9895,12.9121,12.8309,12.7613,12.7497,12.7884,12.8696,12.7884,12.8812,13.121,13.0398,13.0901,0.0,0.0,0.0,0.0,13.2487,13.2487,13.2487,13.2487,13.2487,13.2487,13.2487,13.2487,13.2487,13.2487,13.2487,13.2487,13.2487,13.2487,13.2487,13.2487,13.2487,13.2487,13.2487,13.2487,13.2487,13.2487,13.2404,13.2319,13.211,13.2088,13.2031,13.1807,13.1795,13.2102,13.291,13.3103,13.341,13.4218,13.4411,13.4411,13.4487,13.4487,13.4718,13.5488,13.5603,13.5911,13.668,13.6911,13.6911,13.6911,13.6911,13.6911,13.6911,13.6911,13.6988,13.6988,13.6988,13.6988,13.6988,13.7796,13.8181,13.8296,13.8988,13.9412,13.9488,13.9488,13.9488,6.747,0.0,7.5779,7.3612,7.1756,6.98,0.0,6.4128,0.0,0.0,0.0,0.0,0.0,0.0,0.0,0.0,0.0,0.0,0.0,0.0,0.0,0.0,0.0,0.0,0.0,0.0,0.0,0.0,0.0,12.9392,13.1094,13.0398,12.9895,12.9895,12.9702,12.9508,12.9315,12.8696,12.8696,12.9586,12.9392,13.0011,13.121,13.0978,13.1481,0.0,0.0,0.0,13.2487,13.2487,13.2487,13.2487,13.2487,13.2487,13.2487,13.2487,13.2487,13.2487,13.2487,13.2487,13.2487,13.2487,13.2487,13.2487,13.2487,13.2487,13.2487,13.2487,13.2487,13.2487,13.2487,13.2525,13.2366,13.2319,13.2689,13.2974,13.2917,13.3269,13.3718,13.3987,13.3987,13.4295,13.5103,13.5218,13.5411,13.6103,13.618,13.6296,13.6488,13.6488,13.6603,13.6796,13.7411,13.7796,13.7796,13.7796,13.7796,13.7796,13.8411,13.8719,13.8719,13.8719,13.8719,13.8719,13.8911,13.9296,13.9989,14.0219,14.0604,14.1296,14.1296,14.1296,5.9727,6.4868,6.9667,6.8274,6.7926,6.7364,6.5234,0.0,0.0,0.0,0.0,0.0,0.0,0.0,0.0,0.0,0.0,0.0,0.0,0.0,0.0,0.0,0.0,0.0,0.0,0.0,0.0,0.0,0.0,13.0398,13.1713,13.1017,13.0514,13.0514,13.0088,12.9702,12.9315,12.8812,12.8812,12.9315,12.9315,13.0011,13.121,13.121,13.1713,0.0,0.0,0.0,13.2487,13.2487,13.2487,13.2487,13.2487,13.2487,13.2487,13.2487,13.2487,13.2487,13.2487,13.2487,13.2487,13.2487,13.2487,13.2487,13.2487,13.2487,13.2487,13.2487,13.2487,13.2603,13.299,13.3106,13.3103,13.3405,13.3782,13.4001,13.3813,13.4101,13.4385,13.4795,13.4911,13.5103,13.5988,13.6103,13.6296,13.668,13.7103,13.7411,13.7411,13.768,13.7911,13.7911,13.8411,13.8681,13.8681,13.8988,13.9104,13.8681,13.9104,13.9296,13.9296,13.9296,13.9488,13.9912,13.9912,14.0296,14.1181,14.1181,14.1412,14.1912,14.1912,14.1912,5.7889,6.371,6.9435,6.8661,6.8854,6.8545,0.0,0.0,0.0,0.0,0.0,0.0,0.0,0.0,0.0,0.0,0.0,0.0,0.0,0.0,0.0,0.0,0.0,0.0,0.0,0.0,0.0,0.0,0.0,13.1481,13.2293,13.1481,13.1094,13.121,13.0398,12.9508,12.8812,12.8812,12.8812,12.8812,12.8812,12.9508,13.0785,13.0901,13.1404,13.21,0.0,0.0,13.2293,13.2409,13.2487,13.2487,13.2487,13.2487,13.2487,13.2487,13.2487,13.2487,13.2487,13.2487,13.2487,13.2487,13.2487,13.2487,13.2487,13.2487,13.2487,13.2487,13.2487,13.268,13.3492,13.3686,13.3877,13.4681,13.4869,13.4902,13.4671,13.4738,13.4986,13.5578,13.568,13.5911,13.668,13.6796,13.6796,13.6796,13.7488,13.8104,13.8104,13.8796,13.9296,13.9296,13.9412,13.9488,13.9488,14.0296,14.0489,13.9719,13.9719,13.9719,13.9719,13.9719,14.0104,14.0812,14.0812,14.1197,14.1889,14.1889,14.1928,14.1928,14.1874,14.1912,6.0558,6.4636,6.6843,6.2511,6.3632,6.5064,0.0,0.0,0.0,0.0,0.0,0.0,0.0,0.0,0.0,0.0,0.0,0.0,0.0,0.0,0.0,0.0,0.0,0.0,0.0,0.0,0.0,0.0,0.0,13.1288,13.1404,13.0591,13.0398,13.121,13.0398,12.9818,12.9702,12.9702,12.9702,12.9702,12.9702,12.9508,12.9005,12.9818,13.0204,13.0321,0.0,13.1404,13.1481,13.2177,13.2487,13.2487,13.2487,13.2487,13.2487,13.2487,13.2487,13.2487,13.2487,13.2487,13.2487,13.2487,13.2487,13.2487,13.2487,13.2487,13.2487,13.2487,13.2487,13.268,13.3492,13.3686,13.3918,13.4766,13.542,13.5912,13.579,13.6184,13.6616,13.6681,13.6707,13.6603,13.6796,13.6796,13.6796,13.6796,13.7488,13.8104,13.8104,13.8796,13.9296,13.9296,13.9989,14.0412,14.0412,14.1181,14.1604,14.1489,14.1489,14.1489,14.1489,14.1489,14.1581,14.188,14.188,14.2022,14.22,14.2138,14.2073,14.2073,14.2005,14.1912,5.8374,6.1756,6.4754,6.4715,6.692,0.0,0.0,0.0,0.0,0.0,0.0,0.0,0.0,0.0,0.0,0.0,0.0,0.0,0.0,0.0,0.0,0.0,0.0,0.0,0.0,0.0,0.0,0.0,0.0,0.0,13.121,13.0398,13.0088,13.0514,13.0088,12.9895,12.9895,12.9392,12.9005,12.8618,12.9508,12.9702,12.9315,12.9702,13.0204,13.0591,0.0,13.121,13.1288,13.21,13.2487,13.2487,13.2487,13.2487,13.2487,13.2487,13.2487,13.2487,13.2487,13.2487,13.2487,13.2487,13.2487,13.2487,13.2487,13.2487,13.2603,13.299,13.3106,13.3299,13.4189,13.4808,13.5311,13.62,13.6584,13.6811,13.6762,13.698,13.7234,13.7012,13.7297,13.7516,13.7488,13.7911,13.8219,13.8219,13.8911,13.9488,13.9488,14.0181,14.0719,14.0719,14.1104,14.1296,14.1296,14.1681,14.1912,14.1912,14.1912,14.1912,14.1912,14.1966,14.2034,14.2086,14.2099,14.22,14.2211,14.22,14.2099,14.2086,14.2034,14.1966,5.8139,6.0499,6.3826,0.0,0.0,0.0,0.0,0.0,0.0,0.0,0.0,0.0,0.0,0.0,0.0,0.0,0.0,0.0,0.0,0.0,0.0,0.0,0.0,0.0,0.0,0.0,0.0,0.0,0.0,0.0,13.0901,13.0321,12.9818,12.9586,12.9586,12.9702,12.9895,12.9392,12.8812,12.8,12.9315,12.9818,12.9586,12.9818,13.0321,13.0901,13.0901,13.0978,13.1288,13.21,13.2487,13.2487,13.2487,13.2487,13.2487,13.2487,13.2487,13.2487,13.2487,13.2487,13.2487,13.2487,13.2487,13.2487,13.2487,13.2487,13.268,13.3492,13.3802,13.4189,13.5117,13.5813,13.651,13.7283,13.7515,13.7515,13.7386,13.7425,13.7296,13.7109,13.7706,13.8183,13.8079,13.8796,13.9296,13.9296,13.9989,14.0604,14.0604,14.1412,14.1912,14.1912,14.1912,14.1912,14.1912,14.1912,14.1912,14.1912,14.1912,14.1874,14.1889,14.1996,14.2138,14.2227,14.2211,14.2299,14.2308,14.2299,14.2211,14.2227,14.2138,14.1996,6.4406,6.4561,0.0,0.0,0.0,0.0,0.0,0.0,0.0,0.0,0.0,0.0,0.0,0.0,0.0,0.0,0.0,0.0,0.0,0.0,0.0,0.0,0.0,0.0,0.0,0.0,0.0,0.0,0.0,0.0,13.0088,12.9895,12.9508,12.8696,12.8696,12.9121,12.9895,13.0591,13.0591,12.9702,12.9818,12.9508,12.8696,12.9508,12.9895,13.0011,13.0011,13.0514,13.1288,13.21,13.2487,13.2487,13.2487,13.2487,13.2487,13.2487,13.2487,13.2487,13.2487,13.2487,13.2487,13.2487,13.2487,13.2487,13.2487,13.2487,13.268,13.3492,13.4305,13.5117,13.6007,13.6316,13.651,13.7283,13.7515,13.7515,13.7515,13.7391,13.738,13.7419,13.7765,13.8195,13.8195,13.8824,13.9296,13.9296,13.9989,14.0604,14.0604,14.1412,14.1912,14.1912,14.1912,14.1912,14.1912,14.1912,14.1912,14.1912,14.1912,14.2005,14.2125,14.2125,14.2189,14.2394,14.2403,14.241,14.2621,14.241,14.2403,14.2394,14.2189,14.2125,6.1853,6.2975,0.0,0.0,0.0,0.0,0.0,0.0,0.0,0.0,0.0,0.0,0.0,0.0,0.0,0.0,0.0,0.0,0.0,0.0,0.0,0.0,0.0,0.0,0.0,0.0,0.0,0.0,0.0,0.0,12.9121,12.9121,12.8889,12.8618,12.8618,12.8812,12.9121,12.8889,12.9199,12.9895,13.0398,13.0514,13.0204,13.0011,13.0204,13.0707,13.0707,13.0901,13.1288,13.21,13.2487,13.2487,13.2487,13.2487,13.2487,13.2487,13.2487,13.2487,13.2487,13.2487,13.2487,13.2487,13.2487,13.2487,13.2487,13.2796,13.3415,13.4305,13.5117,13.5891,13.62,13.6703,13.709,13.7399,13.7515,13.7515,13.7515,13.7473,13.7391,13.738,13.7984,13.8623,13.8889,13.9685,14.0403,14.0796,14.1181,14.1412,14.1412,14.1681,14.1912,14.1912,14.1912,14.1912,14.1912,14.1912,14.1928,14.1981,14.1981,14.1996,14.2086,14.22,14.2308,14.2403,14.2533,14.2809,14.3395,14.2809,14.2803,14.3214,14.2481,14.2112,6.0963,6.1833,0.0,0.0,0.0,0.0,0.0,0.0,0.0,0.0,0.0,0.0,0.0,0.0,0.0,0.0,0.0,0.0,0.0,0.0,0.0,0.0,0.0,0.0,0.0,0.0,0.0,0.0,0.0,0.0,0.0,12.8618,12.8502,12.8193,12.8193,12.8309,12.8618,12.8116,12.8502,12.9895,13.0514,13.0901,13.121,13.0591,13.0785,13.1597,13.1017,13.1094,13.1597,13.1984,13.2293,13.2487,13.2487,13.2487,13.2487,13.2487,13.2487,13.2487,13.2487,13.2487,13.2487,13.2487,13.2487,13.2487,13.2487,13.2912,13.3609,13.4692,13.5388,13.6007,13.651,13.709,13.7515,13.7515,13.7515,13.7515,13.7515,13.7515,13.7631,13.7816,13.8507,13.9181,13.9914,14.0661,14.138,14.1758,14.1912,14.1912,14.1912,14.1912,14.1912,14.1912,14.1912,14.1912,14.1912,14.1912,14.2005,14.2125,14.2099,14.2227,14.2189,14.2308,14.2403,14.2487,14.2577,14.2892,14.3511,14.2892,14.2887,14.3299,14.2626,14.2211,0.0,0.0,0.0,0.0,0.0,0.0,0.0,0.0,0.0,0.0,0.0,0.0,0.0,0.0,0.0,0.0,0.0,0.0,0.0,0.0,0.0,0.0,0.0,0.0,0.0,0.0,0.0,0.0,0.0,0.0,0.0,12.8618,12.8193,12.7381,12.7381,12.7806,12.8618,12.8618,12.9005,12.9895,12.9895,13.0321,13.121,13.121,13.1713,13.2409,13.0591,13.0901,13.2409,13.1597,13.1713,13.2487,13.2487,13.2487,13.2487,13.2487,13.2487,13.2487,13.2487,13.2487,13.2487,13.2487,13.2487,13.2487,13.2487,13.2487,13.2912,13.4498,13.5001,13.5388,13.709,13.7515,13.7515,13.7515,13.7515,13.7515,13.7515,13.7515,13.7786,13.8599,13.9401,14.0077,14.09,14.1611,14.1996,14.1874,14.1912,14.1912,14.1912,14.1912,14.1912,14.1912,14.1912,14.1912,14.1912,14.1912,14.2005,14.2125,14.2239,14.2299,14.2403,14.2403,14.2487,14.2583,14.2583,14.2583,14.2583,14.2583,14.2583,14.2583,14.2487,14.2317,0.0,0.0,0.0,0.0,0.0,0.0,0.0,0.0,0.0,0.0,0.0,0.0,0.0,0.0,0.0,0.0,0.0,0.0,0.0,0.0,0.0,0.0,0.0,0.0,0.0,0.0,0.0,0.0,0.0,0.0,0.0,12.7806,12.7613,12.7381,12.7381,12.7497,12.7806,12.7806,12.8193,12.9005,12.9005,12.9392,13.0321,13.0321,13.0398,13.0591,13.0088,13.0514,13.1597,13.1984,13.2293,13.2487,13.2487,13.2487,13.2487,13.2487,13.2487,13.2487,13.2487,13.2487,13.2487,13.2487,13.2487,13.2487,13.2487,13.2912,13.3609,13.4692,13.5388,13.62,13.7206,13.7515,13.7515,13.7515,13.7515,13.7515,13.7515,13.7515,13.7593,13.7786,13.8594,13.9401,14.0077,14.0784,14.1495,14.1996,14.2005,14.1912,14.1912,14.1912,14.1912,14.1912,14.1912,14.1928,14.2034,14.1996,14.2099,14.2299,14.227,14.2394,14.2403,14.2494,14.2577,14.2583,14.2583,14.2892,14.3511,14.2892,14.2892,14.3511,14.268,14.2317,0.0,0.0,0.0,0.0,0.0,0.0,0.0,0.0,0.0,0.0,0.0,0.0,0.0,0.0,0.0,0.0,0.0,0.0,0.0,0.0,12.7381,0.0,0.0,0.0,0.0,0.0,0.0,0.0,0.0,0.0,0.0,12.7381,12.7381,12.7381,12.7381,12.7381,12.7381,12.7381,12.7613,12.8116,12.8116,12.8386,12.8889,13.0011,13.0398,13.0398,13.0785,13.0785,13.0785,13.1984,13.2487,13.2487,13.2487,13.2487,13.2487,13.2487,13.2487,13.2487,13.2487,13.2487,13.2487,13.2487,13.2487,13.2487,13.2487,13.2796,13.3492,13.4692,13.5388,13.6007,13.7206,13.7515,13.7515,13.7515,13.7515,13.7515,13.7515,13.7515,13.7593,13.7902,13.8715,13.96,14.0278,14.112,14.1671,14.1971,14.202,14.1912,14.1912,14.1912,14.1912,14.1912,14.1912,14.2005,14.2125,14.2086,14.2189,14.2403,14.2403,14.2364,14.2533,14.2577,14.2583,14.2583,14.2583,14.2892,14.3395,14.2892,14.2892,14.3395,14.2765,14.2403,0.0,0.0,0.0,0.0,0.0,0.0,0.0,0.0,0.0,0.0,0.0,0.0,0.0,0.0,0.0,0.0,0.0,0.0,0.0,0.0,12.7381,12.7381,0.0,0.0,0.0,0.0,0.0,0.0,0.0,0.0,0.0,12.7381,12.7381,12.7381,12.7303,12.7303,12.7303,12.7187,12.7187,12.7303,12.7303,12.7303,12.7497,12.9779,13.0901,13.0978,13.1984,13.1481,13.0088,13.179,13.2487,13.2487,13.2487,13.2487,13.2487,13.2487,13.2487,13.2487,13.2603,13.2603,13.2487,13.2603,13.2603,13.2487,13.2487,13.2487,13.2796,13.4498,13.5001,13.5388,13.709,13.7515,13.7515,13.7515,13.7515,13.7515,13.7515,13.7515,13.7786,13.8599,13.9488,14.0296,14.1096,14.19,14.2308,14.2099,14.1981,14.1928,14.1874,14.1928,14.1928,14.1874,14.1928,14.202,14.2086,14.2099,14.22,14.2403,14.2403,14.2487,14.2583,14.2583,14.2583,14.2583,14.2583,14.2583,14.2583,14.2583,14.2583,14.2583,14.2583,14.25,0.0,0.0,0.0,0.0,0.0,0.0,0.0,0.0,0.0,0.0,0.0,0.0,0.0,0.0,0.0,0.0,0.0,0.0,0.0,0.0,0.0,0.0,0.0,0.0,0.0,0.0,0.0,0.0,0.0,0.0,12.7381,12.7381,12.7381,12.7381,12.6684,12.6414,12.6414,12.5679,12.5679,0.0,12.6414,12.6684,12.7381,12.8,12.858,12.9199,13.0785,13.1288,13.0978,13.21,13.2487,13.2487,13.2487,13.2487,13.2487,13.2487,13.2487,13.2603,13.3183,13.299,13.2603,13.3183,13.299,13.2487,13.2487,13.2487,13.2796,13.4498,13.5001,13.5388,13.709,13.7515,13.7515,13.7515,13.7515,13.7515,13.7515,13.7515,13.7786,13.8599,13.9488,14.0417,14.1185,14.1869,14.2317,14.2211,14.22,14.2112,14.2073,14.2099,14.2112,14.2073,14.2099,14.2162,14.2308,14.2308,14.2403,14.25,14.2577,14.2577,14.2583,14.2583,14.2583,14.2583,14.2583,14.2583,14.2583,14.2583,14.2583,14.2583,14.2583,14.25,0.0,0.0,0.0,0.0,0.0,0.0,0.0,0.0,0.0,0.0,0.0,0.0,0.0,0.0,0.0,0.0,0.0,0.0,0.0,0.0,0.0,12.7884,12.7613,12.7613,0.0,0.0,0.0,0.0,0.0,12.7381,12.7381,12.7381,12.7381,12.7381,12.6994,12.6491,12.6104,12.5601,12.5679,12.6104,12.5679,12.5911,12.68,12.7613,12.8386,12.9315,13.0591,13.0978,13.0591,13.1481,13.1597,13.1288,13.1713,13.1906,13.1906,13.2293,13.268,13.3106,13.3106,13.3106,13.3106,13.3106,13.2796,13.2487,13.2487,13.2487,13.2796,13.4498,13.5001,13.5388,13.709,13.7515,13.7515,13.7515,13.7515,13.7515,13.7515,13.7515,13.7786,13.8599,13.9488,14.0417,14.119,14.203,14.2441,14.2308,14.2222,14.2211,14.2189,14.22,14.2211,14.2189,14.22,14.2299,14.2403,14.2403,14.2487,14.2621,14.2583,14.2583,14.2583,14.2583,14.2583,14.2583,14.2583,14.2583,14.2583,14.2583,14.2583,14.2583,14.2583,14.2577,0.0,0.0,0.0,0.0,0.0,0.0,0.0,0.0,0.0,0.0,0.0,0.0,0.0,0.0,12.2816,12.3396,12.4402,12.5292,12.6104,12.6916,12.7613,12.8309,12.7806,12.769,12.8309,12.7884,0.0,0.0,0.0,12.7497,12.7381,12.7381,12.7381,12.7381,12.7303,12.68,12.6104,12.5988,12.5911,12.5911,12.5098,12.5292,12.6104,12.7497,12.8696,12.9702,13.0591,13.0591,13.0011,13.0707,13.0591,13.0011,13.0901,13.121,13.1288,13.2293,13.299,13.3415,13.3106,13.3183,13.3415,13.2912,13.2603,13.2487,13.2487,13.2487,13.2796,13.4498,13.5001,13.5388,13.709,13.7515,13.7515,13.7515,13.7515,13.7515,13.7515,13.7593,13.798,13.8908,13.9798,14.0803,14.15,14.2107,14.241,14.241,14.2317,14.2299,14.2222,14.2299,14.2299,14.2222,14.2299,14.227,14.2364,14.241,14.2533,14.2583,14.2583,14.2583,14.2583,14.2583,14.2583,14.2583,14.2583,14.2583,14.2583,14.2583,14.2583,14.2583,14.2583,14.2583,0.0,0.0,0.0,0.0,0.0,0.0,0.0,0.0,0.0,0.0,0.0,0.0,12.273,12.2584,12.2894,12.359,12.448,12.5369,12.622,12.6994,12.7419,12.7497,12.7497,12.7419,12.7497,12.8116,12.8193,12.7497,12.8,12.8116,12.7419,12.7381,12.7381,12.7381,12.6684,12.6182,12.6104,12.5408,12.4982,12.4982,12.4905,12.5292,12.6104,12.6298,12.7303,12.8812,12.9702,13.0011,12.9895,13.0011,13.0011,13.0011,13.0901,13.121,13.1404,13.299,13.3183,13.2912,13.4189,13.3802,13.2796,13.3299,13.3106,13.2487,13.2487,13.2487,13.2796,13.4498,13.5001,13.5388,13.709,13.7515,13.7515,13.7515,13.7515,13.7515,13.7515,13.8096,13.8908,13.9798,14.119,14.2312,14.2389,14.2505,14.2621,14.2621,14.2577,14.2494,14.2403,14.2533,14.2494,14.2403,14.2533,14.2577,14.2621,14.2621,14.2621,14.2583,14.2583,14.2583,14.2583,14.2583,14.2583,14.2583,14.2583,14.2583,14.2583,14.2583,14.2583,14.2583,14.2583,14.2583,0.0,0.0,0.0,0.0,0.0,0.0,0.0,0.0,0.0,0.0,12.3196,12.2874,12.2885,12.2777,12.2885,12.3188,12.3982,12.48,12.5601,12.5795,12.6298,12.7303,12.6994,12.6916,12.7381,12.769,12.7806,12.7381,12.769,12.7806,12.7381,12.7381,12.7381,12.7381,12.6994,12.6607,12.6104,12.5679,12.5292,12.4789,12.4789,12.4982,12.5408,12.5408,12.6607,12.8618,12.9005,12.9199,12.9199,12.9199,12.8889,12.8618,12.9392,13.0011,13.0591,13.179,13.268,13.3183,13.3492,13.3415,13.3183,13.3106,13.2796,13.2487,13.2487,13.2487,13.268,13.3918,13.4614,13.5311,13.651,13.7206,13.7515,13.7515,13.7515,13.7515,13.7515,13.8212,13.9217,14.061,14.1809,14.2583,14.2583,14.2583,14.2583,14.2583,14.2583,14.2621,14.2494,14.2577,14.2621,14.2494,14.2577,14.2583,14.2583,14.2583,14.2583,14.2583,14.2583,14.2583,14.2583,14.2583,14.2583,14.2583,14.2583,14.2583,14.2583,14.2583,14.2583,14.2583,14.2583,14.2583,0.0,0.0,0.0,0.0,0.0,0.0,0.0,0.0,0.0,0.0,12.3176,12.2991,12.3194,12.2997,12.2915,12.2997,12.3623,12.4314,12.4785,12.4789,12.5292,12.6607,12.6182,12.5988,12.6684,12.6916,12.711,12.711,12.7303,12.7303,12.711,12.7303,12.7303,12.711,12.711,12.68,12.6104,12.5911,12.5408,12.4789,12.4596,12.4596,12.4789,12.4596,12.5717,12.8,12.8193,12.8309,12.8309,12.8309,12.7884,12.7497,12.8502,12.9315,13.0088,13.1404,13.2487,13.3299,13.2912,13.3106,13.3299,13.268,13.2487,13.2487,13.2487,13.2487,13.268,13.3686,13.4498,13.5194,13.6316,13.709,13.7515,13.7515,13.7515,13.7593,13.7786,13.8482,13.9604,14.1113,14.2003,14.2583,14.2583,14.2583,14.2583,14.2583,14.2583,14.2583,14.2583,14.2583,14.2583,14.2583,14.2583,14.2583,14.2583,14.2583,14.2583,14.2583,14.2583,14.2583,14.2583,14.2583,14.2583,14.2583,14.2583,14.2583,14.2583,14.2583,14.2583,14.2583,14.2583,14.2583,0.0,0.0,0.0,0.0,0.0,0.0,0.0,0.0,0.0,12.3109,12.3193,12.3208,12.3194,12.3022,12.3006,12.3191,12.3698,12.4119,12.4124,12.448,12.4789,12.4905,12.4905,12.4905,12.4905,12.5679,12.6182,12.6182,12.6916,12.6994,12.6182,12.6994,12.6994,12.6182,12.6182,12.6104,12.6104,12.5292,12.4789,12.4789,12.4015,12.4015,12.4789,12.3899,12.4518,12.6298,12.711,12.7497,12.7497,12.7497,12.7419,12.7613,12.9199,12.9895,13.0204,13.2719,13.3106,13.268,13.3415,13.3183,13.2603,13.2487,13.2487,13.2487,13.2487,13.2487,13.2796,13.4498,13.5001,13.5388,13.7013,13.7515,13.7515,13.7515,13.7515,13.7709,13.8599,13.9411,14.0301,14.119,14.2003,14.2583,14.2583,14.2583,14.2583,14.2583,14.2583,14.2583,14.2583,14.2583,14.2583,14.2583,14.2583,14.2583,14.2583,14.2583,14.2583,14.2583,14.2583,14.2583,14.2583,14.2583,14.2583,14.2583,14.2583,14.2583,14.2583,14.2583,14.2583,14.2583,14.2583,14.2583,0.0,0.0,0.0,0.0,0.0,10.2812,10.9297,11.4492,11.8702,12.1199,12.2489,12.317,12.3393,12.322,12.3205,12.3395,12.3402,12.3497,12.4008,12.359,12.3396,12.3899,12.4015,12.4015,12.4015,12.4789,12.5292,12.5292,12.5601,12.5601,12.5292,12.5601,12.5601,12.5292,12.5292,12.5292,12.5292,12.5485,12.5601,12.5601,12.5292,12.4982,12.4789,12.5098,12.5214,12.5292,12.68,12.7381,12.7381,12.7381,12.7381,12.7497,12.8618,12.9392,13.0088,13.1597,13.2293,13.2487,13.2796,13.268,13.2487,13.2487,13.2487,13.2487,13.2487,13.2487,13.268,13.3918,13.4614,13.5311,13.6394,13.709,13.7515,13.7515,13.7515,13.7709,13.8599,13.9488,14.0417,14.119,14.2003,14.2583,14.2583,14.2583,14.1887,13.9682,14.119,14.1809,13.9604,14.119,14.2583,14.2583,14.2583,14.2583,14.2583,14.2583,14.2583,14.2583,14.2583,14.2583,14.2583,14.2583,14.2583,14.2583,14.2583,14.2583,14.2583,14.2583,14.2583,14.2583,14.2583,14.2583,5.9219,0.0,0.0,0.0,0.0,9.3633,10.4219,10.9804,11.4079,11.9276,12.1728,12.2971,12.328,12.328,12.3286,12.3501,12.3004,12.2804,12.3617,12.27,12.2197,12.301,12.2816,12.27,12.27,12.2894,12.328,12.3899,12.4015,0.0,12.4286,12.4596,12.4712,12.4402,12.4402,12.4209,12.4015,12.4789,12.5408,12.5679,12.5679,12.5408,12.4789,12.5098,12.5098,12.4905,12.5988,12.6916,12.7381,12.7381,12.7381,12.7497,12.8618,12.9392,13.0011,13.121,13.1984,13.2487,13.2487,13.2487,13.2487,13.2487,13.2487,13.2487,13.2487,13.268,13.3106,13.3918,13.4808,13.562,13.651,13.709,13.7515,13.7515,13.7515,13.7709,13.8599,13.9488,14.0417,14.119,14.2003,14.2583,14.2583,14.2583,14.1809,13.9604,14.1113,14.1809,13.9488,14.119,14.2583,14.2583,14.2583,14.2583,14.2583,14.2583,14.2583,14.2583,14.2583,14.2583,14.2583,14.2583,14.2583,14.2583,14.2583,14.2583,14.2583,14.2583,14.2583,14.2583,14.2583,14.2583,0.0,0.0,0.0,0.0,0.0,0.0,9.9492,10.4687,10.8515,11.7109,12.0488,12.208,12.3008,12.3432,12.3499,12.3501,12.2617,12.2113,12.2794,12.2004,12.1617,12.2197,12.1501,12.0998,12.0998,12.0186,12.0379,12.212,12.2197,12.2584,12.3396,12.4286,12.4286,12.3396,12.3396,12.3087,12.2313,12.3087,12.3899,12.4789,12.4789,12.4789,12.4789,12.3899,12.4015,12.4789,12.4789,12.5795,12.7381,12.7381,12.7381,12.7613,12.9199,12.9895,13.0088,13.1906,13.2487,13.2487,13.2487,13.2487,13.2487,13.2487,13.2487,13.2487,13.2487,13.3106,13.3918,13.4808,13.562,13.651,13.7283,13.7515,13.7515,13.7515,13.7515,13.7786,13.8715,13.9488,14.0417,14.119,14.2003,14.2583,14.2583,14.2583,14.2583,14.2505,14.2389,14.2389,14.2389,14.2389,14.2505,14.2583,14.2583,14.2583,14.2583,14.2583,14.2583,14.2583,14.2583,14.2583,14.2583,14.2583,14.2583,14.2583,14.2583,14.2583,14.2583,14.2583,14.2583,14.2583,14.2583,14.2583,5.25,0.0,0.0,0.0,0.0,0.0,0.0,8.832,9.4414,10.6797,11.1184,11.4809,12.1293,12.2991,12.3497,12.3514,12.2997,12.2521,12.2001,12.2,12.1617,12.0495,12.1308,12.1385,12.0186,12.0379,12.0611,0.0,12.0379,12.0805,12.1617,12.2507,12.2313,12.0805,12.2004,12.2197,12.1385,12.2816,12.3899,12.4789,12.4789,12.4789,12.4789,12.4596,12.4596,12.4789,12.5485,12.6414,12.7381,12.7381,12.7381,12.7613,12.9199,12.9895,13.0088,13.1906,13.2487,13.2487,13.2487,13.2487,13.2487,13.2487,13.2487,13.2487,13.2487,13.3106,13.3918,13.4808,13.562,13.651,13.7283,13.7515,13.7515,13.7515,13.798,13.8715,13.9604,14.0417,14.1113,14.1384,14.2003,14.2583,14.2583,14.2583,14.1809,13.9295,13.8908,13.8908,13.8908,13.8908,13.9875,14.2312,14.2583,14.2583,14.2583,14.2583,14.2583,14.2583,14.2583,14.2583,14.2583,14.2583,14.2583,14.2583,14.2583,14.2583,14.2583,14.2583,14.2583,14.2583,14.2583,14.2583,0.0,0.0,0.0,0.0,0.0,0.0,7.8935,8.332,8.8828,10.2695,10.7187,11.1116,11.8579,11.9917,12.0312,12.2109,12.2503,12.2396,12.2219,12.2091,12.1694,12.0882,12.1385,12.1385,12.0302,11.9992,11.9876,11.9683,11.9412,11.9489,12.0379,12.0882,12.0689,11.9683,12.0998,12.1501,12.0998,12.2313,12.359,12.4789,12.4789,12.4789,12.4789,12.4789,12.4789,12.4789,12.5292,12.6298,12.7381,12.7381,12.7381,12.7613,12.9199,12.9895,13.0088,13.1906,13.2487,13.2487,13.2487,13.2487,13.2487,13.2487,13.268,13.299,13.299,13.3802,13.4885,13.5388,13.6123,13.6897,13.7399,13.7515,13.7515,13.7515,13.7902,13.8599,13.9798,14.0184,14.061,14.1693,14.2312,14.2583,14.2583,14.2583,14.1887,13.9914,13.9604,13.9604,13.9604,13.9604,14.0378,14.2389,14.2583,14.2583,14.2583,14.2583,14.2583,14.2583,14.2583,14.2583,14.2583,14.2583,14.2583,14.2583,14.2583,14.2583,14.2583,14.2583,14.2583,14.2583,14.2583,14.2583,5.6992,0.0,0.0,0.0,0.0,0.0,7.9752,8.3142,8.6875,9.9844,10.3982,10.7181,11.3704,11.3784,11.4217,11.7811,11.9804,12.131,12.2588,12.2194,12.1809,12.2004,12.1501,12.1114,12.0882,11.9489,11.8909,11.9489,11.8793,11.8677,11.9412,11.9606,11.9606,11.9412,12.0379,12.0882,12.0882,12.1694,12.301,12.4789,12.4712,12.4712,12.4789,12.4712,12.4712,12.4789,12.4789,12.5795,12.7381,12.7381,12.7381,12.7613,12.9199,12.9895,13.0088,13.1906,13.2487,13.2487,13.2487,13.2487,13.2487,13.2487,13.299,13.3609,13.3686,13.4808,13.62,13.6394,13.6897,13.7515,13.7515,13.7515,13.7515,13.7515,13.7593,13.8212,13.9604,13.9488,13.9798,14.2003,14.2505,14.2505,14.2583,14.2583,14.2583,14.2583,14.2312,14.2196,14.2583,14.2312,14.2196,14.2583,14.2583,14.2583,14.2583,14.2583,14.2583,14.2583,14.2583,14.2583,14.2583,14.2583,14.2583,14.2583,14.2583,14.2583,14.2583,14.2583,14.2583,14.2583,14.2583,14.2583,6.168,6.3125,6.4687,0.0,0.0,0.0,6.5746,6.9052,7.4648,8.2226,8.6132,9.0887,9.9755,10.2685,10.3612,10.3084,10.9596,11.6384,12.1208,12.2186,12.1888,12.0379,12.1308,12.1501,12.0108,12.0302,11.9992,11.8677,11.8484,11.8213,11.771,11.8987,11.9103,11.771,11.918,11.9992,11.9992,12.0805,12.2391,12.4789,12.4093,12.4093,12.4789,12.4093,12.4093,12.4789,12.4789,12.5795,12.7381,12.7381,12.7381,12.7613,12.9199,12.9895,13.0088,13.1906,13.2487,13.2487,13.2487,13.2487,13.2487,13.2487,13.2603,13.2912,13.3492,13.4421,13.5504,13.6897,13.7399,13.7515,13.7515,13.7515,13.7515,13.7515,13.8599,13.9488,13.9101,13.9991,14.0997,14.15,14.1616,14.1809,14.2505,14.2583,14.2583,14.2583,14.0301,13.9604,14.2312,14.0184,13.9488,14.2312,14.2583,14.2583,14.2583,14.2583,14.2583,14.2583,14.2583,14.2583,14.2583,14.2583,14.2583,14.2583,14.2583,14.2583,14.2583,14.2583,14.2583,14.2583,14.2583,14.2583,6.4883,6.5234,6.6445,6.7265,0.0,0.0,0.0,6.8203,7.1562,7.8906,8.0658,8.3501,9.2148,9.2968,9.3272,9.6252,10.34,10.9614,11.2915,11.8407,12.1501,11.9876,12.0495,12.0495,11.918,11.9799,11.9799,11.8484,11.8406,11.7981,11.7207,11.802,11.829,11.7787,11.86,11.9489,12.0302,12.0805,12.2313,12.4789,12.3899,12.4015,12.4789,12.3899,12.4015,12.4789,12.4789,12.5795,12.7381,12.7381,12.7381,12.7497,12.8812,12.9508,13.0088,13.1404,13.21,13.2487,13.2487,13.2487,13.2487,13.2487,13.2796,13.3299,13.4111,13.5194,13.6394,13.7283,13.7515,13.7515,13.7515,13.7515,13.7515,13.7515,13.8212,13.8792,13.8792,13.9488,14.0417,14.119,14.1422,14.1693,14.2505,14.2583,14.2583,14.2583,14.119,14.0687,14.2389,14.1113,14.0687,14.2389,14.2583,14.2583,14.2583,14.2583,14.2583,14.2583,14.2583,14.2583,14.2583,14.2583,14.2583,14.2583,14.2583,14.2583,14.2583,14.2583,14.2583,14.2583,14.2583,14.2583,0.0,0.0,0.0,0.0,0.0,6.7031,0.0,0.0,0.0,0.0,7.7255,7.8054,8.4513,8.298,8.276,8.8825,9.581,10.0609,10.0897,11.0001,11.6895,11.7517,11.8406,11.86,11.7787,11.771,11.7904,11.8406,11.7285,11.6898,11.7401,11.7594,11.7904,11.8406,11.8406,11.9103,12.0495,12.0689,12.2004,12.4402,12.3783,12.3899,12.448,12.3822,12.4015,12.4789,12.4789,12.5795,12.7381,12.7381,12.7381,12.7497,12.8502,12.9315,13.0011,13.1094,13.1906,13.2487,13.2487,13.2487,13.2487,13.2487,13.3183,13.4111,13.4808,13.62,13.7515,13.7515,13.7515,13.7515,13.7515,13.7515,13.7515,13.7515,13.7593,13.7902,13.8405,13.8715,13.9295,14.0803,14.1113,14.15,14.2389,14.2583,14.2583,14.2583,14.2583,14.2583,14.2583,14.2583,14.2583,14.2583,14.2583,14.2583,14.2583,14.2583,14.2583,14.2583,14.2583,14.2583,14.2583,14.2583,14.2583,14.2583,14.2583,14.2583,14.2583,14.2583,14.2583,14.2583,14.2583,14.2583,0.0,0.0,0.0,0.0,7.3789,0.0,0.0,0.0,0.0,0.0,0.0,0.0,7.0166,0.0,0.0,7.182,8.0771,8.7396,8.6597,9.354,10.1477,10.8934,11.3691,11.6008,11.508,11.2411,11.2797,11.7981,11.3494,11.2797,11.7981,11.8987,11.9103,11.8406,11.8406,11.86,11.8987,11.9683,12.0998,12.2894,12.3512,12.3706,12.359,12.3512,12.4015,12.4789,12.4789,12.5795,12.7381,12.7381,12.7381,12.7613,12.9121,12.9818,13.0088,13.1713,13.2409,13.2487,13.2487,13.2487,13.2487,13.2487,13.3609,13.4885,13.5001,13.62,13.7515,13.7515,13.7515,13.7515,13.7515,13.7515,13.7515,13.7515,13.8096,13.8482,13.7786,13.8289,13.9101,14.0107,14.0184,14.0687,14.2312,14.2583,14.2583,14.2583,14.2583,14.2583,14.2583,14.2583,14.2583,14.2583,14.2583,14.2583,14.2583,14.2583,14.2583,14.2583,14.2583,14.2583,14.2583,14.2583,14.2583,14.2583,14.2583,14.2583,14.2583,14.2583,14.2583,14.2583,14.2583,14.2583,0.0,0.0,0.0,0.0,0.0,0.0,0.0,0.0,6.4844,0.0,0.0,0.0,0.0,0.0,0.0,0.0,7.4302,0.0,7.8433,8.5434,9.3374,10.0775,10.1812,10.2895,10.5487,10.5293,10.7382,11.2797,11.0902,11.1714,11.6704,11.8213,11.918,11.9915,11.8909,11.8987,12.0224,12.007,12.0905,12.2605,12.3117,12.3396,12.3512,12.359,12.4093,12.4789,12.5292,12.6298,12.7381,12.7381,12.7381,12.7613,12.9199,12.9895,13.0011,13.0707,13.1597,13.2487,13.2487,13.2487,13.2603,13.299,13.3995,13.5117,13.562,13.6587,13.7515,13.7515,13.7515,13.7515,13.7515,13.7515,13.7515,13.7515,13.7786,13.7902,13.7593,13.8212,13.8908,13.9295,14.0184,14.1113,14.1809,14.2312,14.2583,14.2583,14.2583,14.2583,14.2583,14.2583,14.2583,14.2583,14.2583,14.2583,14.2583,14.2583,14.2583,14.2583,14.2583,14.2583,14.2583,14.2583,14.2583,14.2583,14.2583,14.2583,14.2583,14.2583,14.2892,14.3279,14.2815,14.2583,8.0312,0.0,0.0,0.0,0.0,0.0,0.0,0.0,0.0,0.0,0.0,0.0,0.0,0.0,0.0,0.0,0.0,7.3527,7.2435,7.724,8.3653,9.1086,9.16,9.3147,0.0,9.8137,10.0999,10.7885,10.6686,10.8697,11.5505,11.7478,11.8987,12.0186,11.9296,11.9219,12.0224,11.9893,12.0479,12.1995,12.2416,12.2813,12.3303,12.3626,12.4209,12.4789,12.5679,12.6607,12.7381,12.7381,12.7381,12.7497,12.9005,12.9702,13.0011,13.0398,13.1404,13.2487,13.2487,13.2603,13.2912,13.3492,13.4498,13.5504,13.6123,13.6897,13.7515,13.7515,13.7515,13.7515,13.7515,13.7515,13.7593,13.7786,13.7709,13.7593,13.7786,13.8212,13.8482,13.8792,13.9991,14.1113,14.1384,14.208,14.2583,14.2583,14.2583,14.2583,14.2583,14.2583,14.2583,14.2583,14.2583,14.2583,14.2583,14.2583,14.2583,14.2583,14.2583,14.2583,14.2583,14.2583,14.2583,14.2583,14.2583,14.2583,14.2583,14.2583,14.2892,14.3511,14.3086,14.3008,0.0,0.0,0.0,7.7383,0.0,0.0,0.0,0.0,6.8789,0.0,0.0,0.0,0.0,0.0,0.0,0.0,0.0,0.0,0.0,6.6533,6.9185,7.8634,8.6056,9.1793,9.5274,9.1213,9.3224,10.4906,9.9684,10.1812,11.5196,11.7478,11.8406,11.8484,11.918,11.8987,11.7594,11.8616,11.9511,12.0416,12.1385,12.2213,12.2713,12.338,12.4209,12.4789,12.5679,12.6607,12.7381,12.7381,12.7381,12.7497,12.8309,12.9199,13.0088,13.179,13.2487,13.2487,13.2487,13.299,13.3686,13.3686,13.4885,13.6316,13.6316,13.6897,13.7515,13.7515,13.7515,13.7515,13.7515,13.7515,13.7709,13.8599,13.8096,13.7709,13.8599,13.8096,13.7786,13.8599,13.9488,14.0417,14.1306,14.208,14.2583,14.2583,14.2583,14.2583,14.2583,14.2583,14.2583,14.2583,14.2583,14.2583,14.2583,14.2583,14.2583,14.2583,14.2583,14.2583,14.2583,14.2583,14.2583,14.2583,14.2583,14.2583,14.2583,14.2583,14.2583,14.2699,14.3511,14.3898,0.0,0.0,9.4258,8.5351,0.0,0.0,0.0,0.0,0.0,0.0,0.0,0.0,0.0,0.0,0.0,0.0,0.0,0.0,0.0,6.1698,6.193,6.7444,7.4811,7.9918,8.1078,8.3747,8.8002,9.4307,9.4191,9.8833,11.0283,11.3494,11.6279,11.918,11.9489,11.9489,11.918,11.9609,11.9997,12.03,12.2104,12.2911,12.2823,12.4372,12.5407,12.5911,12.7303,12.8,12.8193,12.8193,12.7884,12.7497,12.8889,12.9624,13.0011,13.121,13.1984,13.2487,13.2487,13.299,13.3802,13.4382,13.5311,13.6394,13.6897,13.7283,13.7515,13.7515,13.7515,13.7515,13.7515,13.7515,13.7593,13.7902,13.8212,13.8289,13.798,13.8212,13.8289,13.798,13.8599,13.9488,14.0417,14.119,14.2003,14.2505,14.2583,14.2583,14.2583,14.2583,14.2583,14.2583,14.2583,14.2583,14.2583,14.2583,14.2583,14.2583,14.2583,14.2583,14.2583,14.2583,14.2583,14.2583,14.2583,14.2583,14.2583,14.2583,14.2892,14.3511,14.4401,14.4478,10.1992,10.1992,0.0,9.375,8.9023,0.0,7.5625,0.0,0.0,0.0,0.0,0.0,0.0,0.0,0.0,0.0,0.0,0.0,0.0,5.9223,0.0,0.0,0.0,7.2452,7.4579,7.7147,8.1478,8.8234,8.8284,9.3041,0.0,10.8891,11.2914,11.6898,11.8213,11.8987,11.9373,11.9719,12.0014,12.0276,12.2181,12.2993,12.3113,12.489,12.5809,12.6011,12.769,12.8386,12.8193,12.8193,12.7884,12.7613,12.9199,12.9895,13.0011,13.121,13.1984,13.2487,13.2487,13.3183,13.4305,13.4808,13.5813,13.6819,13.7283,13.7515,13.7515,13.7515,13.7515,13.7515,13.7515,13.7515,13.7593,13.7902,13.8212,13.8405,13.8405,13.8405,13.8289,13.798,13.8405,13.9101,13.9914,14.0803,14.1693,14.2505,14.2583,14.2583,14.2583,14.2583,14.2583,14.2583,14.2583,14.2583,14.2583,14.2583,14.2583,14.2583,14.2583,14.2583,14.2583,14.2583,14.2583,14.2583,14.2583,14.2583,14.2583,14.2583,14.2892,14.3511,14.4594,14.4904]},{"header":{"parameterUnit":"m.s-1","parameterCategory":1,"la1":30.6,"la2":29.2853,"lo1":-89.7004,"lo2":-87.6739,"dy":0.0162,"dx":0.0183,"nx":112,"ny":82,"refTime":"2026-03-13T00:00:00:Z","depth":0,"parameterNumber":3,"parameterNumberName":"V-component_of_WINDS"},"data":[0.0,0.0,0.0,0.0,0.0,0.0,0.0,0.0,0.0,0.0,0.0,0.0,0.0,0.0,0.0,0.0,0.0,0.0,0.0,0.0,0.0,0.0,0.0,0.0,0.0,0.0,0.0,0.0,0.0,0.0,0.0,0.0,0.0,0.0,0.0,0.0,0.0,0.0,0.0,0.0,0.0,0.0,0.0,0.0,0.0,0.0,0.0,0.0,0.0,0.0,0.0,0.0,0.0,0.0,0.0,0.0,0.0,0.0,0.0,0.0,0.0,0.0,0.0,0.0,0.0,0.0,0.0,0.0,0.0,0.0,0.0,0.0,0.0,0.0,0.0,0.0,0.0,0.0,0.0,0.0,0.0,0.0,0.0,0.0,0.0,0.0,0.0,0.0,0.0,0.0,0.0,-2.2664,-2.4906,-2.6278,-2.6278,-2.5687,-2.428,-2.1734,0.0,0.0,0.0,0.0,0.0,0.0,0.0,0.0,0.0,0.0,0.0,0.0,0.0,0.0,0.0,0.0,0.0,0.0,0.0,0.0,0.0,0.0,0.0,0.0,0.0,0.0,0.0,0.0,0.0,0.0,0.0,0.0,0.0,0.0,0.0,0.0,0.0,0.0,0.0,0.0,0.0,0.0,0.0,0.0,0.0,0.0,0.0,0.0,0.0,0.0,0.0,0.0,0.0,0.0,0.0,0.0,0.0,0.0,0.0,0.0,0.0,0.0,0.0,0.0,0.0,0.0,0.0,0.0,0.0,0.0,0.0,0.0,0.0,0.0,0.0,0.0,0.0,0.0,0.0,0.0,0.0,0.0,0.0,0.0,0.0,0.0,0.0,0.0,0.0,0.0,0.0,0.0,0.0,0.0,0.0,0.0,0.0,0.0,0.0,0.0,0.0,0.0,0.0,0.0,-2.0634,-2.4231,-2.6081,-2.6925,-2.658,-2.5799,-2.4442,-2.198,0.0,0.0,0.0,0.0,0.0,0.0,0.0,0.0,0.0,0.0,0.0,0.0,0.0,0.0,0.0,0.0,0.0,0.0,0.0,0.0,0.0,0.0,0.0,0.0,0.0,0.0,0.0,0.0,0.0,0.0,0.0,0.0,0.0,0.0,0.0,0.0,0.0,0.0,0.0,0.0,0.0,0.0,0.0,0.0,0.0,0.0,0.0,0.0,0.0,0.0,0.0,0.0,0.0,0.0,0.0,0.0,0.0,0.0,0.0,0.0,0.0,0.0,0.0,0.0,0.0,0.0,0.0,0.0,0.0,0.0,0.0,0.0,0.0,0.0,0.0,0.0,0.0,0.0,0.0,0.0,0.0,0.0,0.0,0.0,0.0,0.0,0.0,0.0,0.0,0.0,0.0,0.0,0.0,0.0,0.0,0.0,0.0,0.0,0.0,0.0,0.0,0.0,0.0,-2.0585,-2.2372,-2.5301,-2.6552,-2.6965,-2.6653,-2.5981,-2.4576,-2.2129,-2.0564,0.0,0.0,0.0,0.0,0.0,0.0,0.0,0.0,0.0,0.0,0.0,0.0,0.0,0.0,0.0,0.0,0.0,0.0,0.0,0.0,0.0,0.0,0.0,0.0,0.0,0.0,0.0,0.0,0.0,0.0,0.0,0.0,0.0,0.0,0.0,0.0,0.0,0.0,0.0,0.0,0.0,0.0,0.0,0.0,0.0,0.0,0.0,0.0,0.0,0.0,0.0,0.0,0.0,0.0,0.0,0.0,0.0,0.0,0.0,0.0,0.0,0.0,0.0,0.0,0.0,0.0,0.0,0.0,0.0,0.0,0.0,0.0,0.0,0.0,0.0,0.0,0.0,0.0,0.0,0.0,0.0,0.0,0.0,0.0,0.0,0.0,0.0,0.0,0.0,0.0,0.0,0.0,0.0,0.0,0.0,0.0,0.0,0.0,0.0,0.0,0.0,0.0,-2.3005,-2.4221,-2.6158,-2.6785,-2.6979,-2.6834,-2.5928,-2.4383,-2.225,-2.0098,0.0,0.0,0.0,0.0,0.0,0.0,0.0,0.0,0.0,0.0,0.0,0.0,0.0,0.0,0.0,0.0,0.0,0.0,0.0,0.0,0.0,0.0,0.0,0.0,0.0,0.0,0.0,0.0,0.0,0.0,0.0,0.0,0.0,0.0,0.0,0.0,0.0,0.0,0.0,0.0,0.0,0.0,0.0,0.0,0.0,0.0,0.0,0.0,0.0,0.0,0.0,0.0,0.0,0.0,0.0,0.0,0.0,0.0,0.0,0.0,0.0,0.0,0.0,0.0,0.0,0.0,0.0,0.0,0.0,0.0,0.0,0.0,0.0,0.0,0.0,0.0,0.0,0.0,0.0,0.0,0.0,0.0,0.0,0.0,0.0,0.0,0.0,0.0,0.0,0.0,0.0,0.0,0.0,0.0,0.0,0.0,0.0,0.0,0.0,0.0,0.0,0.0,-2.3071,-2.5108,-2.6798,-2.7003,-2.7123,-2.7341,-2.5289,-2.3636,-2.2744,-1.9455,0.0,0.0,0.0,0.0,0.0,0.0,0.0,0.0,0.0,0.0,0.0,0.0,0.0,0.0,0.0,0.0,0.0,0.0,0.0,0.0,0.0,0.0,0.0,0.0,0.0,0.0,0.0,0.0,0.0,0.0,0.0,0.0,0.0,0.0,0.0,0.0,0.0,0.0,0.0,0.0,0.0,0.0,0.0,0.0,0.0,0.0,0.0,0.0,0.0,0.0,0.0,0.0,0.0,0.0,0.0,0.0,0.0,0.0,0.0,0.0,0.0,0.0,0.0,0.0,0.0,0.0,0.0,0.0,0.0,0.0,0.0,0.0,0.0,0.0,0.0,0.0,0.0,0.0,0.0,0.0,0.0,0.0,0.0,0.0,0.0,0.0,0.0,0.0,0.0,0.0,0.0,0.0,0.0,0.0,0.0,0.0,0.0,0.0,0.0,0.0,0.0,0.0,-2.3347,-2.53,0.0,-2.7425,-2.7498,-2.7425,-2.5206,-2.3442,-2.2542,0.0,0.0,0.0,0.0,0.0,0.0,0.0,0.0,0.0,0.0,0.0,0.0,0.0,0.0,0.0,0.0,0.0,0.0,0.0,0.0,0.0,0.0,0.0,0.0,0.0,0.0,0.0,0.0,0.0,0.0,0.0,0.0,0.0,0.0,0.0,0.0,0.0,0.0,0.0,0.0,0.0,0.0,0.0,0.0,0.0,0.0,0.0,0.0,0.0,0.0,0.0,0.0,0.0,0.0,0.0,0.0,0.0,0.0,0.0,0.0,0.0,0.0,0.0,0.0,0.0,0.0,0.0,0.0,0.0,0.0,0.0,0.0,0.0,0.0,0.0,0.0,0.0,0.0,0.0,0.0,0.0,0.0,0.0,0.0,0.0,0.0,0.0,0.0,0.0,0.0,0.0,0.0,0.0,0.0,0.0,0.0,0.0,0.0,0.0,0.0,0.0,0.0,-2.1545,-2.3815,-2.5859,0.0,-2.8137,-2.8222,-2.8306,-2.6075,-2.3961,-2.2681,0.0,0.0,0.0,0.0,0.0,0.0,0.0,0.0,0.0,0.0,0.0,0.0,0.0,0.0,0.0,0.0,0.0,0.0,0.0,0.0,0.0,0.0,0.0,0.0,0.0,0.0,0.0,0.0,0.0,0.0,0.0,0.0,0.0,0.0,0.0,0.0,0.0,0.0,0.0,0.0,0.0,0.0,0.0,0.0,0.0,0.0,0.0,0.0,0.0,0.0,0.0,0.0,0.0,0.0,0.0,0.0,0.0,0.0,0.0,0.0,0.0,0.0,0.0,0.0,0.0,0.0,0.0,0.0,0.0,0.0,0.0,0.0,0.0,0.0,0.0,0.0,0.0,0.0,0.0,0.0,0.0,0.0,0.0,0.0,0.0,0.0,0.0,0.0,0.0,0.0,0.0,0.0,0.0,0.0,0.0,0.0,0.0,0.0,0.0,0.0,0.0,0.0,-2.166,-2.4425,-2.7063,-2.9188,-2.9188,-2.9357,-3.0153,-2.7775,-2.5325,0.0,0.0,0.0,0.0,0.0,0.0,0.0,0.0,0.0,0.0,0.0,0.0,0.0,0.0,0.0,0.0,0.0,0.0,0.0,0.0,0.0,0.0,0.0,0.0,0.0,0.0,0.0,0.0,0.0,0.0,0.0,0.0,0.0,0.0,0.0,0.0,0.0,0.0,0.0,0.0,0.0,0.0,0.0,0.0,0.0,0.0,0.0,0.0,0.0,0.0,0.0,0.0,0.0,0.0,0.0,0.0,0.0,0.0,0.0,0.0,0.0,0.0,0.0,0.0,0.0,0.0,0.0,0.0,0.0,0.0,0.0,0.0,0.0,0.0,0.0,0.0,0.0,0.0,0.0,0.0,0.0,0.0,0.0,0.0,0.0,0.0,0.0,0.0,0.0,0.0,0.0,0.0,0.0,0.0,0.0,0.0,0.0,0.0,0.0,0.0,0.0,0.0,0.0,-2.2768,-2.603,-2.8717,-3.0105,-3.0346,-2.9723,-2.7929,-2.5441,-2.2882,-2.0705,0.0,0.0,0.0,0.0,0.0,0.0,0.0,0.0,0.0,0.0,0.0,0.0,0.0,0.0,0.0,0.0,0.0,0.0,0.0,0.0,0.0,0.0,0.0,0.0,0.0,0.0,0.0,0.0,0.0,0.0,0.0,0.0,0.0,0.0,0.0,0.0,0.0,0.0,0.0,0.0,0.0,0.0,0.0,0.0,0.0,0.0,0.0,0.0,0.0,0.0,0.0,0.0,0.0,0.0,0.0,0.0,0.0,0.0,0.0,0.0,0.0,0.0,0.0,0.0,0.0,0.0,0.0,0.0,0.0,0.0,0.0,0.0,0.0,0.0,0.0,0.0,0.0,0.0,0.0,0.0,0.0,0.0,0.0,0.0,0.0,0.0,0.0,0.0,0.0,0.0,0.0,0.0,0.0,0.0,0.0,0.0,0.0,0.0,0.0,0.0,0.0,0.0,-2.3389,-2.7038,-2.945,-2.9756,-3.0124,-2.9315,-2.6531,-2.4568,-2.2317,-1.9765,0.0,0.0,0.0,0.0,0.0,0.0,0.0,0.0,0.0,0.0,0.0,0.0,0.0,0.0,0.0,0.0,0.0,0.0,0.0,0.0,0.0,0.0,0.0,0.0,0.0,0.0,0.0,0.0,0.0,0.0,0.0,0.0,0.0,0.0,0.0,0.0,0.0,0.0,0.0,0.0,0.0,0.0,0.0,0.0,0.0,0.0,0.0,0.0,0.0,0.0,0.0,0.0,0.0,0.0,0.0,0.0,0.0,0.0,0.0,0.0,0.0,0.0,0.0,0.0,0.0,0.0,0.0,0.0,0.0,0.0,0.0,0.0,0.0,0.0,0.0,0.0,0.0,0.0,0.0,0.0,0.0,0.0,0.0,0.0,0.0,0.0,0.0,0.0,0.0,0.0,0.0,0.0,0.0,0.0,0.0,0.0,0.0,0.0,0.0,0.0,0.0,0.0,-2.3647,-2.7486,-2.9847,-2.9404,-2.9574,-2.8645,-2.6063,-2.4908,-2.2831,-1.9451,0.0,0.0,0.0,0.0,0.0,0.0,0.0,0.0,0.0,0.0,0.0,0.0,0.0,0.0,0.0,0.0,0.0,0.0,0.0,0.0,0.0,0.0,0.0,0.0,0.0,0.0,0.0,0.0,0.0,0.0,0.0,0.0,0.0,0.0,0.0,0.0,0.0,0.0,0.0,0.0,0.0,0.0,0.0,0.0,0.0,0.0,0.0,0.0,0.0,0.0,0.0,0.0,0.0,0.0,0.0,0.0,0.0,0.0,0.0,0.0,-0.9917,0.0,0.0,0.0,0.0,0.0,0.0,0.0,0.0,0.0,0.0,0.0,0.0,0.0,0.0,0.0,0.0,0.0,0.0,0.0,0.0,0.0,0.0,0.0,0.0,0.0,0.0,0.0,0.0,0.0,0.0,0.0,0.0,0.0,0.0,0.0,0.0,0.0,0.0,0.0,0.0,0.0,-2.448,-2.8644,-3.1713,-3.2691,-3.3058,-3.1237,-2.6538,-2.549,-2.2958,-1.7684,-1.5672,0.0,0.0,0.0,0.0,0.0,0.0,0.0,0.0,0.0,0.0,0.0,0.0,0.0,0.0,0.0,0.0,0.0,0.0,0.0,0.0,0.0,0.0,0.0,0.0,0.0,0.0,0.0,0.0,0.0,0.0,0.0,0.0,0.0,0.0,0.0,0.0,0.0,0.0,0.0,0.0,0.0,0.0,0.0,0.0,0.0,0.0,0.0,0.0,0.0,0.0,0.0,0.0,0.0,0.0,0.0,0.0,0.0,0.0,0.0,0.0,-1.0609,0.0,0.0,0.0,0.0,0.0,0.0,0.0,0.0,0.0,0.0,0.0,0.0,0.0,0.0,0.0,0.0,0.0,0.0,0.0,0.0,0.0,0.0,0.0,0.0,0.0,0.0,0.0,0.0,0.0,0.0,0.0,0.0,0.0,0.0,0.0,0.0,0.0,0.0,0.0,0.0,-2.3552,-2.7577,-2.9966,-2.8759,-2.8916,-2.7327,-2.3298,-2.2457,-2.0595,-1.6897,-1.5191,0.0,0.0,0.0,0.0,0.0,0.0,0.0,0.0,0.0,0.0,0.0,0.0,0.0,0.0,0.0,0.0,0.0,0.0,0.0,0.0,0.0,0.0,0.0,0.0,0.0,0.0,0.0,0.0,0.0,0.0,0.0,0.0,0.0,0.0,0.0,0.0,0.0,0.0,0.0,0.0,0.0,0.0,0.0,0.0,0.0,0.0,0.0,0.0,0.0,0.0,0.0,0.0,0.0,-1.3505,-1.381,-1.377,-1.417,-1.436,-1.4326,-1.3214,-1.2522,-1.2135,0.0,0.0,0.0,0.0,0.0,0.0,0.0,0.0,0.0,0.0,0.0,0.0,0.0,0.0,0.0,0.0,0.0,0.0,0.0,0.0,0.0,0.0,0.0,0.0,0.0,-1.5656,-1.5208,0.0,0.0,0.0,0.0,0.0,0.0,0.0,0.0,0.0,0.0,0.0,0.0,-2.1998,-2.5612,-2.7161,-2.3817,-2.3976,-2.3166,-2.0388,-1.9732,-1.8698,-1.6992,-1.5601,-1.4177,0.0,0.0,0.0,0.0,0.0,0.0,0.0,0.0,0.0,0.0,0.0,0.0,0.0,0.0,0.0,0.0,0.0,0.0,0.0,0.0,0.0,0.0,0.0,0.0,0.0,0.0,0.0,0.0,0.0,0.0,0.0,0.0,-0.905,-0.9279,0.0,0.0,0.0,0.0,0.0,0.0,0.0,0.0,0.0,0.0,0.0,0.0,0.0,-1.2474,-1.3098,-1.4211,-1.478,-1.4814,-1.594,-1.6341,-1.6083,-1.6279,-1.6442,-1.6558,-1.6381,0.0,-1.3559,-1.3336,0.0,0.0,0.0,0.0,0.0,0.0,0.0,0.0,0.0,0.0,0.0,0.0,0.0,0.0,0.0,0.0,0.0,0.0,0.0,0.0,0.0,0.0,-1.4853,-1.4868,-1.5195,-1.5389,0.0,-1.461,-1.4249,-1.3793,-1.3296,0.0,0.0,0.0,0.0,0.0,0.0,0.0,-2.0915,-2.3956,-2.6196,-2.6164,-2.66,-2.5803,-2.2981,-2.2401,-2.0812,-1.7806,-1.6612,-1.5513,-1.4272,-1.2827,0.0,0.0,0.0,0.0,0.0,0.0,0.0,0.0,0.0,0.0,0.0,0.0,0.0,0.0,0.0,0.0,0.0,0.0,0.0,0.0,0.0,0.0,0.0,0.0,0.0,0.0,0.0,0.0,0.0,-0.9188,-0.9867,-0.9673,-0.9968,-0.9882,0.0,0.0,0.0,0.0,0.0,0.0,0.0,0.0,0.0,-1.3403,-1.381,-1.438,-1.5147,-1.6008,-1.6483,-1.6578,-1.7439,-1.7772,-1.765,-1.7806,-1.7914,-1.7989,-1.7989,-1.7405,-1.6381,-1.514,-1.4116,-1.3241,0.0,0.0,0.0,0.0,-1.2264,-1.2562,-1.3295,-1.3546,0.0,-1.3268,0.0,0.0,0.0,0.0,0.0,0.0,0.0,0.0,0.0,0.0,0.0,-1.5872,-1.6151,-1.6259,-1.613,-1.5739,-1.5142,0.0,-1.4043,-1.3725,-1.3398,0.0,0.0,0.0,0.0,-1.934,-1.9302,-2.1703,-2.3149,-2.266,-2.2711,-2.2398,-2.1473,-2.0923,-2.0015,-1.8308,-1.7433,-1.6544,-1.5676,-1.4285,-1.3205,0.0,0.0,0.0,0.0,0.0,0.0,0.0,0.0,0.0,0.0,0.0,0.0,0.0,0.0,0.0,0.0,0.0,0.0,0.0,0.0,0.0,0.0,0.0,0.0,0.0,0.0,0.0,0.0,-0.9938,-1.0601,-1.0137,-1.07,-1.0735,0.0,0.0,0.0,0.0,0.0,0.0,-1.2712,-1.3356,-1.4177,-1.5221,-1.5655,-1.6246,-1.7026,-1.7521,-1.7846,-1.8002,-1.8477,-1.8708,-1.8708,-1.8864,-1.8918,-1.8884,-1.8918,-1.885,-1.8565,-1.6734,-1.5608,-1.4957,-1.4136,-1.3797,-1.3783,-1.396,-1.415,-1.4455,-1.5418,-1.573,-1.5608,-1.5092,0.0,-1.4061,-1.2494,0.0,0.0,0.0,0.0,-1.3071,-1.4489,-1.5215,-1.5839,-1.6849,-1.7093,-1.7107,-1.7141,-1.668,-1.5959,0.0,-1.4784,-1.4373,-1.3792,0.0,0.0,0.0,0.0,-1.8317,-1.7923,-1.9654,-2.0393,-1.9372,-1.9345,-1.9481,-1.959,-1.9359,-1.9081,-1.8782,-1.8023,-1.7358,-1.6829,-1.5628,-1.4502,-1.3498,0.0,0.0,0.0,0.0,0.0,0.0,0.0,0.0,0.0,0.0,0.0,0.0,0.0,0.0,0.0,0.0,0.0,0.0,0.0,0.0,0.0,0.0,0.0,0.0,0.0,0.0,0.0,0.0,0.0,-1.0704,-1.1436,0.0,0.0,0.0,0.0,-1.1884,-1.2779,-1.3675,-1.4557,-1.5303,-1.6191,-1.7243,-1.7568,-1.7948,-1.8423,-1.8606,-1.8782,-1.8918,-1.9094,-1.9169,-1.9169,-1.9325,-1.9325,-1.9183,-1.9325,-1.9305,-1.9081,-1.7982,-1.7344,-1.6985,-1.6381,-1.6056,-1.5906,-1.5778,-1.592,-1.6225,-1.6564,-1.6585,-1.6551,-1.708,-1.6286,-1.5031,-1.4502,-1.3838,0.0,0.0,-1.4258,-1.4787,-1.5581,-1.6225,-1.6795,-1.7283,-1.7399,-1.7439,-1.7582,-1.7141,-1.6476,0.0,-1.5167,-1.5146,-1.564,0.0,-1.5755,-1.5926,-1.6703,-1.7262,-1.7003,-1.8088,-1.8694,-1.9149,-1.9345,-1.9434,-1.9447,-1.9291,-1.9081,-1.8782,-1.8321,-1.7914,-1.7602,-1.6707,-1.5791,-1.4889,-1.3261,0.0,0.0,0.0,0.0,0.0,0.0,0.0,0.0,0.0,0.0,0.0,0.0,0.0,0.0,0.0,0.0,0.0,0.0,0.0,0.0,0.0,0.0,0.0,0.0,0.0,0.0,0.0,0.0,-1.1898,-1.3003,0.0,-1.2474,-1.282,-1.3254,-1.3614,-1.4563,-1.5472,-1.6273,-1.6842,-1.7494,-1.8267,-1.8477,-1.8708,-1.8952,-1.9223,-1.9359,-1.9434,-1.9657,-1.9732,-1.9644,-1.9698,-1.9644,-1.9501,-1.9556,-1.9556,-1.9468,-1.8993,-1.8498,-1.8002,-1.7507,-1.7338,-1.7378,-1.7426,-1.7507,-1.7629,-1.7826,-1.786,-1.7792,-1.7623,-1.6876,-1.5961,-1.5513,-1.5187,-1.5031,-1.5289,-1.5615,-1.6035,-1.6693,-1.7161,-1.7528,-1.7792,-1.7935,-1.8023,-1.807,-1.7826,-1.7507,-1.7141,-1.632,-1.5636,-1.5419,-1.5533,-1.5647,-1.5405,-1.6245,-1.6835,-1.7297,-1.7894,-1.8464,-1.9006,-1.9115,-1.9183,-1.9271,-1.9237,-1.9081,-1.8782,-1.843,-1.8057,-1.7663,-1.7154,-1.6456,-1.5554,-1.4584,-1.3301,0.0,0.0,0.0,0.0,0.0,0.0,0.0,0.0,0.0,0.0,0.0,0.0,0.0,0.0,0.0,0.0,0.0,0.0,0.0,0.0,0.0,0.0,0.0,0.0,0.0,0.0,-1.32,-1.3051,-1.4224,-1.4713,-1.3865,-1.4367,-1.4896,-1.5242,-1.6144,-1.6965,-1.7609,-1.8023,-1.8477,-1.8972,-1.9135,-1.9291,-1.9434,-1.9678,-1.9786,-1.9732,-1.9976,-1.9997,-1.98,-1.9854,-1.98,-1.9664,-1.9712,-1.9712,-1.9664,-1.9556,-1.9237,-1.8816,-1.8511,-1.8477,-1.862,-1.8674,-1.8728,-1.8776,-1.8816,-1.8742,-1.8531,-1.8091,-1.7541,-1.6978,-1.6578,-1.653,-1.6619,-1.6666,-1.6863,-1.7154,-1.7609,-1.786,-1.8057,-1.8199,-1.8287,-1.8335,-1.8375,-1.8267,-1.8145,-1.8036,-1.7256,-1.6408,-1.5764,-1.5934,-1.6008,-1.556,-1.63,-1.708,-1.7582,-1.7948,-1.8375,-1.8938,-1.8993,-1.9027,-1.9115,-1.8993,-1.8816,-1.862,-1.8091,-1.7684,-1.7433,-1.6985,-1.6415,-1.5716,-1.4726,-1.3356,-1.1613,0.0,0.0,0.0,0.0,0.0,0.0,0.0,0.0,0.0,0.0,0.0,0.0,0.0,0.0,0.0,0.0,0.0,0.0,0.0,0.0,0.0,0.0,0.0,-1.1653,-1.3214,-1.4292,-1.4156,-1.5065,-1.5533,-1.5092,-1.5452,-1.6015,-1.6734,-1.7473,-1.8091,-1.8531,-1.885,-1.9149,-1.9447,-1.959,-1.9732,-1.9875,-2.0031,-2.0031,-1.9888,-2.0051,-1.9976,-1.9698,-1.982,-1.98,-1.9678,-1.982,-1.98,-1.9678,-1.9678,-1.959,-1.9447,-1.9434,-1.9522,-1.9644,-1.9481,-1.9535,-1.9624,-1.9481,-1.9149,-1.8742,-1.8599,-1.8355,-1.8057,-1.7758,-1.788,-1.8077,-1.7914,-1.7989,-1.8124,-1.8287,-1.8321,-1.8355,-1.8498,-1.8423,-1.8375,-1.8511,-1.8423,-1.8335,-1.8321,-1.7968,-1.7528,-1.7087,-1.7127,-1.7066,-1.6625,-1.7182,0.0,-1.7663,-1.8036,-1.8477,-1.8918,-1.8972,-1.8972,-1.8972,-1.8565,-1.8301,-1.8301,-1.7331,-1.6822,-1.6965,-1.6259,-1.573,-1.5432,-1.3675,-1.24,-1.166,0.0,0.0,0.0,0.0,0.0,0.0,0.0,0.0,0.0,0.0,0.0,0.0,0.0,0.0,0.0,0.0,0.0,0.0,0.0,0.0,0.0,0.0,-1.2861,-1.2908,-1.4272,-1.5377,-1.5662,-1.6524,-1.7005,-1.6768,-1.7154,-1.75,-1.7704,-1.8213,-1.8708,-1.9162,-1.9271,-1.9501,-1.9908,-1.9854,-1.9888,-2.0031,-2.0187,-2.0295,-2.0363,-2.0505,-2.0492,-2.0295,-2.0241,-2.0119,-1.9976,-2.001,-2.001,-1.9976,-1.9976,-2.001,-2.0044,-1.9603,-1.9447,-1.9501,-1.9569,-1.9556,-1.9481,-1.9447,-1.9271,-1.9061,-1.8918,-1.8728,-1.8518,-1.8233,-1.8199,-1.8247,-1.8213,-1.8233,-1.8287,-1.8443,-1.8477,-1.8511,-1.8654,-1.8674,-1.8654,-1.8694,-1.8674,-1.8586,-1.8355,-1.8213,-1.8023,-1.7684,-1.7738,-1.7724,-1.7392,-1.7602,0.0,-1.8111,-1.8145,-1.8247,-1.8477,-1.8498,-1.8498,-1.8498,-1.8287,-1.8057,-1.7846,-1.7256,-1.6836,-1.6653,-1.6347,-1.6042,-1.5737,-1.4285,-1.3227,0.0,0.0,0.0,0.0,0.0,0.0,0.0,0.0,0.0,0.0,0.0,0.0,0.0,0.0,0.0,0.0,0.0,0.0,0.0,0.0,0.0,0.0,-1.3471,-1.4516,-1.4767,-1.5554,-1.6341,-1.6978,-1.7514,-1.7826,-1.7806,-1.8091,-1.8267,-1.8267,-1.8694,-1.9094,-1.9413,-1.9481,-1.9644,-1.9908,-1.9942,-2.001,-2.0098,-2.0315,-2.0438,-2.0451,-2.0539,-2.0505,-2.0349,-2.0275,-2.0187,0.0,-2.0098,-2.0098,-2.0098,-2.0098,-2.0153,0.0,0.0,0.0,0.0,0.0,-1.9834,-1.9698,-1.9644,-1.9522,-1.9379,-1.9217,-1.9081,-1.8884,-1.8599,-1.8552,-1.8586,-1.8531,-1.8552,-1.864,-1.8776,-1.8816,-1.883,-1.8918,-1.8938,-1.8938,-1.8938,-1.8905,-1.8816,-1.864,-1.8552,0.0,-1.8179,-1.8057,-1.7894,-1.7595,-1.7846,-1.8091,-1.8213,-1.8301,-1.843,-1.8586,-1.8654,-1.8687,-1.8687,-1.8321,0.0,0.0,0.0,-1.6388,-1.5893,-1.5791,0.0,0.0,0.0,0.0,0.0,0.0,0.0,0.0,-1.3465,-1.3595,0.0,0.0,0.0,0.0,0.0,0.0,0.0,0.0,0.0,0.0,0.0,0.0,0.0,0.0,0.0,0.0,-1.4936,-1.6185,-1.6836,-1.6897,-1.7175,-1.8002,-1.8145,-1.8213,-1.8335,-1.8498,-1.8586,-1.8599,-1.8993,-1.9305,-1.9468,0.0,0.0,0.0,0.0,-2.0139,-2.0153,-2.0417,-2.0485,-2.0383,-2.0383,-2.0315,-2.0173,-2.0173,-2.0173,-2.0153,-2.0173,-2.0173,-2.0153,-2.0153,-2.0153,-2.0153,-2.0261,-2.0383,-2.0471,-2.0349,-2.0227,-2.0085,-1.9942,0.0,0.0,-1.9501,-1.9359,-1.9183,-1.8905,-1.8905,-1.8993,-1.885,-1.8905,-1.904,-1.9169,-1.9203,-1.9203,-1.9203,-1.9203,-1.9203,-1.9203,-1.9094,-1.8993,-1.8972,-1.883,-1.8694,-1.8531,-1.8199,-1.786,-1.7589,-1.8002,-1.8301,-1.8179,-1.8498,-1.8782,-1.8905,0.0,0.0,-1.9128,-1.8498,-1.8036,-1.7901,-1.6815,-1.5872,-1.5174,-1.516,-1.5045,-1.4767,-1.4882,-1.5072,-1.5337,-1.535,-1.5506,-1.5744,-1.4975,-1.4533,0.0,0.0,0.0,0.0,0.0,0.0,0.0,0.0,0.0,0.0,0.0,0.0,0.0,0.0,0.0,-1.4835,-1.59,-1.6917,-1.788,-1.7806,-1.7758,-1.8057,-1.8409,-1.8599,-1.8498,-1.8742,-1.8952,-1.9061,-1.9271,-1.9501,-1.9766,-1.982,-1.9942,-2.0187,-2.0261,-2.0349,-2.0451,-2.0505,-2.0594,-2.0682,0.0,0.0,-2.0648,-2.0648,-2.058,-2.0471,-2.0594,-2.058,-2.0451,-2.0451,-2.0451,-2.0438,-2.0227,-2.0153,-2.0187,-2.0153,-2.0119,-2.0098,-2.0064,-1.9963,-1.98,-1.9664,-1.9522,-1.9359,-1.9169,-1.9128,0.0,-1.9128,-1.9128,-1.9169,-1.9203,-1.9203,-1.9203,-1.9203,-1.9203,-1.9203,-1.9203,-1.9094,-1.8959,-1.883,-1.8674,-1.8531,-1.8389,-1.8477,-1.8531,-1.8335,-1.8409,-1.8531,-1.862,-1.8599,-1.8552,-1.8464,-1.8586,-1.8654,-1.8654,-1.8301,-1.8077,-1.8057,-1.7263,-1.6632,-1.6239,-1.6341,-1.6374,-1.632,-1.6225,-1.6205,-1.6259,-1.6388,-1.6537,-1.67,-1.587,-1.5499,0.0,0.0,0.0,0.0,0.0,0.0,0.0,0.0,0.0,0.0,0.0,-1.1898,-1.2793,0.0,-1.4855,-1.5913,-1.6836,-1.7575,-1.8023,-1.8409,-1.8654,-1.8654,-1.8782,-1.8905,-1.8972,-1.9115,-1.9237,-1.9305,-1.9468,-1.9644,-1.9854,-1.9942,-2.0051,-2.0207,-2.0295,-2.0363,-2.0438,-2.0505,-2.0573,-2.0648,-2.0648,-2.0702,-2.077,-2.077,-2.077,-2.077,-2.0858,-2.0845,-2.077,-2.077,-2.077,-2.0756,-2.0614,-2.0451,-2.0329,-2.0329,-2.0329,-2.0315,-2.0241,-2.0173,-2.0085,-1.9922,-1.9786,-1.9624,-1.9481,-1.9379,-1.9325,-1.9325,-1.9325,-1.9345,-1.9501,-1.9535,-1.9556,-1.9624,-1.9657,-1.9657,-1.9657,-1.9481,-1.9312,-1.9223,-1.9027,-1.885,-1.8776,-1.8884,-1.8884,-1.8586,-1.8531,-1.8586,-1.8742,-1.883,-1.883,-1.8762,-1.8952,-1.9094,-1.9094,-1.8694,-1.8355,-1.8213,-1.7724,-1.7324,-1.7093,-1.7229,-1.7304,-1.7304,-1.7304,-1.7344,-1.7419,-1.75,-1.7575,-1.765,-1.7338,-1.7032,0.0,0.0,0.0,0.0,0.0,0.0,0.0,0.0,-1.1287,-1.2101,-1.263,-1.3308,-1.4509,-1.5194,-1.5886,-1.6856,-1.765,-1.8124,-1.8124,-1.883,-1.9325,-1.9291,-1.9183,-1.9203,-1.9413,-1.9468,-1.9481,-1.9522,-1.9657,-1.98,-1.9908,-2.0064,-2.0153,-2.0153,-2.0315,-2.0417,-2.0417,-2.056,-2.0627,-2.0627,-2.0627,-2.0702,-2.0824,-2.0845,-2.0912,-2.1001,-2.1001,-2.1001,-2.1001,-2.1001,-2.1001,-2.1001,-2.1001,-2.0845,-2.0627,-2.0627,-2.0627,-2.0614,-2.0471,-2.0397,-2.0349,-2.0187,-2.0051,-1.9888,-1.9786,-1.9657,-1.9556,-1.9556,-1.9556,-1.961,-1.9854,-1.9922,-1.9942,-2.0064,-2.0098,-2.0098,-2.0098,-1.9888,-1.9698,-1.9698,-1.9488,-1.9291,-1.9291,-1.9291,-1.9149,-1.8728,-1.8654,-1.8708,-1.883,-1.9061,-1.9217,-1.9237,-1.9501,-1.9678,-1.9698,-1.9257,-1.885,-1.8552,-1.8301,-1.8091,-1.7914,-1.8023,-1.8077,-1.8077,-1.8199,-1.8335,-1.8498,-1.8498,-1.8498,-1.8498,-1.864,-1.8389,-0.9829,-0.951,-0.972,-1.0378,-1.0663,-1.124,0.0,0.0,-1.3363,-1.4387,-1.495,-1.5472,-1.6151,-1.6653,-1.7182,-1.7826,-1.8145,-1.8477,-1.8972,-1.904,-1.9183,-1.9576,-1.959,-1.9535,-1.9447,-1.9556,-1.9698,-1.982,-1.9963,-2.0064,-2.0064,-2.0227,-2.0309,-2.0309,-2.058,-2.0716,-2.0716,-2.0878,-2.0946,-2.0946,-2.0946,-2.0967,-2.098,-2.1109,-2.1109,-2.1001,-2.1001,-2.1001,-2.1001,-2.1001,-2.1001,-2.1001,-2.1001,-2.098,-2.0946,-2.0946,-2.0946,-2.0933,-2.077,-2.0627,-2.0485,-2.0349,-2.0207,-2.0064,-2.0051,-2.0051,-2.0031,-2.0031,-2.0031,-2.0031,-2.0064,-2.0085,-2.0085,-2.0098,-2.0098,-2.0098,-2.0098,-1.9963,-1.9854,-1.9854,-1.9712,-1.961,-1.961,-1.961,-1.9501,-1.9183,-1.9128,-1.9128,-1.9149,-1.9183,-1.9257,-1.9393,-1.9556,-1.9712,-1.9841,-1.9786,-1.9624,-1.9325,-1.9271,-1.9128,-1.885,-1.885,-1.8871,-1.8871,-1.8884,-1.8959,-1.9094,-1.9094,-1.9094,-1.9115,-1.9257,-1.9006,-1.1233,-1.1036,0.0,0.0,-1.2589,-1.3227,-1.4468,-1.4658,-1.4821,-1.5696,-1.609,-1.6469,-1.7066,-1.7473,-1.7826,0.0,-1.8498,-1.8762,-1.8918,-1.9115,-1.9257,-1.9271,-1.9501,-1.9664,-1.9678,-1.9752,-1.9841,-1.9997,-2.0153,-2.0241,-2.0241,-2.0363,-2.0492,-2.058,-2.0702,-2.0811,-2.0912,-2.0967,-2.1001,-2.1001,-2.1001,-2.1034,-2.1123,-2.1177,-2.1231,-2.1265,-2.1265,-2.1265,-2.1265,-2.1265,-2.1265,-2.1265,-2.1265,-2.1265,-2.1231,-2.1068,-2.1001,-2.098,-2.0933,-2.0858,-2.079,-2.0627,-2.0492,-2.0349,-2.0261,-2.0173,-2.0098,-2.0098,-2.0098,-2.0119,-2.0207,-2.0241,-2.0261,-2.0329,-2.0363,-2.0363,-2.0363,-2.0241,-2.0139,-2.0139,-2.001,-1.9922,-1.9922,-1.9922,-1.9875,-1.9746,-1.9576,-1.9468,-1.9468,-1.9535,-1.9644,-1.98,-1.9875,-1.9942,-1.9997,-2.001,-1.9963,-1.9834,-1.982,-1.9766,-1.9644,-1.9644,-1.9644,-1.9644,-1.9644,-1.9657,-1.9732,-1.9732,-1.9678,-1.959,-1.9746,-1.9644,-1.1945,0.0,0.0,-1.3492,-1.4285,-1.5038,-1.5744,-1.5934,-1.6151,-1.6815,-1.7012,-1.7229,-1.7792,-1.807,-1.8287,-1.8477,-1.8816,-1.904,-1.9006,-1.9257,-1.9345,-1.9128,-1.9359,-1.959,-1.9732,-1.9854,-1.9976,-2.0098,-2.0275,-2.0404,-2.0451,-2.0539,-2.0682,-2.0824,-2.0878,-2.0946,-2.1055,-2.1109,-2.1123,-2.1123,-2.1123,-2.1177,-2.1279,-2.1279,-2.1333,-2.1183,-2.1183,-2.093,-2.0964,-2.0964,-2.0997,-2.103,-2.103,-2.101,-2.0944,-2.0772,-2.0673,-2.0855,-2.0821,-2.0801,-2.0767,-2.0878,-2.0756,-2.0648,-2.0539,-2.0438,-2.0349,-2.0349,-2.0349,-2.0383,-2.0492,-2.0505,-2.0539,-2.0648,-2.0661,-2.0661,-2.0661,-2.0594,-2.0505,-2.0451,-2.0363,-2.0275,-2.0275,-2.0275,-2.0295,-2.0349,-2.0173,-1.9976,-1.98,-1.9908,-2.0051,-2.0153,-2.0241,-2.0275,-2.0275,-2.0275,-2.0275,-2.0275,-2.0241,-2.0207,-2.0173,-2.0173,-2.0139,-2.0098,-2.0098,-2.0098,-2.0098,-2.0098,-2.0051,-1.9942,-2.0139,-2.0173,0.0,0.0,-1.3539,-1.4292,-1.5371,-1.6408,-1.6998,-1.7256,-1.7487,-1.7948,-1.7935,-1.7968,-1.8423,-1.8511,-1.862,-1.8918,-1.9094,-1.9291,-1.959,-1.9522,-1.9434,-1.9413,-1.9291,-1.9271,0.0,-1.9834,-2.0098,-2.0098,-2.0363,-2.0594,-2.0756,-2.0756,-2.0845,-2.098,-2.1123,-2.1197,-2.1211,-2.1353,-2.1421,-2.1421,-2.1421,-2.1421,-2.1441,-2.1441,-2.1163,-2.0386,-2.0386,-2.019,-1.9511,-1.9511,-1.9579,-1.9707,-1.9707,-1.9628,-1.9511,-1.964,-2.0061,-2.0347,-2.0218,-2.0167,-2.0397,-2.0788,-2.098,-2.098,-2.098,-2.098,-2.0967,-2.0967,-2.0967,-2.098,-2.098,-2.098,-2.098,-2.098,-2.098,-2.098,-2.098,-2.098,-2.0933,-2.079,-2.0756,-2.0756,-2.0756,-2.0756,-2.0804,-2.0946,-2.0967,-2.0756,-2.0173,-2.0227,-2.0315,-2.0329,-2.058,-2.0756,-2.0756,-2.0756,-2.0756,-2.0756,-2.0614,-2.0471,-2.0329,-2.0329,-2.0261,-2.0098,-2.0098,-2.0098,-2.0098,-2.0098,-2.0098,-2.0098,-2.0397,-2.0526,-1.2211,0.0,-1.4401,-1.5316,-1.654,-1.7419,-1.7724,-1.7826,-1.788,-1.7935,-1.767,-1.7467,-1.7616,-1.7806,-1.8002,-1.8213,-1.8782,-1.9271,-1.9481,-1.9468,-1.9325,-1.9027,-1.9115,0.0,0.0,0.0,0.0,-2.0227,-2.0438,-2.0614,-2.077,-2.0858,-2.098,-2.1143,-2.1197,-2.1265,-2.1367,-2.1421,-2.1169,-2.0639,-2.0114,-2.0107,-2.0107,-2.0203,-1.9986,-1.9724,-1.9805,-1.9886,-1.9652,-1.9652,-1.967,-1.9719,-1.9719,-1.9689,-1.9652,-1.9146,-1.9116,-1.9285,-2.0222,-2.0386,-2.0547,-2.0928,-2.1143,-2.1123,-2.1034,-2.1001,-2.1001,-2.1001,-2.1001,-2.1001,-2.1001,-2.1001,-2.1001,-2.1001,-2.1001,-2.1001,-2.1001,-2.1001,-2.098,-2.0933,-2.0933,-2.0933,-2.0933,-2.0933,-2.0946,-2.1001,-2.1001,-2.0933,-2.0716,-2.0736,-2.077,-2.077,-2.0858,-2.0933,-2.0933,-2.0933,-2.0933,-2.0933,-2.0878,-2.0824,-2.077,-2.077,-2.0756,-2.0702,-2.0702,-2.0702,-2.0702,-2.0702,-2.0702,-2.0702,-2.0804,-2.0845,-1.2953,-1.4077,-1.5001,-1.5924,-1.6982,-1.7602,-1.7641,-1.7686,-1.7641,-1.7563,-1.7324,-1.6949,-1.7053,-1.7019,-1.7195,-1.7772,-1.8389,-1.8993,-1.9522,-1.9501,-1.9325,-1.904,-1.9081,-1.9081,0.0,0.0,0.0,-2.0207,-2.0438,-2.0627,-2.0845,-2.1001,-2.1143,-2.1285,-2.1353,-2.1401,-2.0917,-2.1016,-2.0795,-2.0273,-1.9724,-1.945,-1.945,-1.9542,-1.9321,-1.9315,-1.9134,-1.9194,-1.8974,-1.8974,-1.9004,-1.9039,-1.9039,-1.9004,-1.8974,-1.8479,-1.8155,-1.8343,-1.9886,-2.0305,-2.0177,-2.1149,-2.1333,-2.1279,-2.119,-2.1157,-2.1157,-2.1157,-2.1157,-2.1157,-2.1157,-2.1157,-2.1157,-2.1157,-2.1157,-2.1157,-2.1157,-2.1157,-2.1143,-2.1089,-2.1068,-2.1068,-2.1068,-2.1123,-2.1157,-2.1157,-2.1157,-2.1123,-2.1021,-2.1001,-2.1001,-2.1001,-2.1055,-2.1068,-2.1068,-2.1068,-2.1068,-2.1068,-2.1034,-2.1001,-2.1001,-2.1001,-2.1001,-2.1001,-2.1001,-2.1001,-2.1001,-2.1001,-2.1001,-2.1001,-2.1109,-2.1157,-1.3674,-1.4554,-1.5362,-1.6133,-1.6835,-1.7086,-1.6945,-1.6994,-1.7154,-1.7028,-1.6659,-1.6374,0.0,0.0,-1.6266,-1.7589,-1.8002,-1.8552,-1.9712,-1.9644,-1.9468,0.0,0.0,0.0,0.0,0.0,0.0,-2.0085,0.0,-2.0661,-2.1001,-2.1143,-2.1299,-2.1455,-2.1597,-2.1337,-2.0399,-2.0663,-2.0262,-1.9719,-1.9713,-1.9713,-1.9713,-1.946,-1.9176,-1.8632,-1.8632,-1.8166,-1.7734,-1.7734,-1.7804,-1.7902,-1.7902,-1.7837,-1.775,-1.7864,-1.7766,-1.7827,-1.9194,-1.964,-1.9786,-2.1136,-2.1584,-2.1455,-2.1455,-2.1455,-2.1455,-2.1455,-2.1455,-2.1455,-2.1455,-2.1455,-2.1455,-2.1455,-2.1455,-2.1455,-2.1455,-2.1455,-2.1408,-2.1245,-2.1231,-2.1231,-2.1231,-2.1367,-2.1455,-2.1455,-2.1455,-2.1353,-2.1055,-2.1021,-2.1021,-2.1021,-2.1143,-2.1231,-2.1231,-2.1231,-2.1245,-2.1245,-2.1123,-2.1055,-2.1055,-2.1055,-2.1055,-2.1055,-2.1055,-2.1055,-2.1055,-2.1055,-2.1055,-2.1055,-2.1333,-2.1455,-1.4157,-1.5064,-1.6045,-1.6444,-1.6852,-1.7342,-1.7104,-1.6914,-1.6782,-1.6366,-1.5411,-1.4803,0.0,0.0,0.0,-1.687,-1.8091,0.0,-1.9942,-1.9976,0.0,-1.9624,0.0,-1.9624,-1.9556,-1.9644,0.0,0.0,-2.0397,-2.0614,-2.1123,-2.1299,-2.1236,-2.0959,-2.0893,-2.0618,-1.9886,-1.9411,-1.9158,-1.8898,-1.836,-1.8082,-1.8082,-1.8183,-1.8222,-1.7959,-1.8048,-1.8103,-1.7864,-1.7864,-1.7875,-1.7902,-1.7902,-1.7891,-1.7864,-1.7891,-1.7864,-1.781,-1.8921,-1.9039,-1.9116,-2.0476,-2.0998,-2.0965,-2.1504,-2.1774,-2.1774,-2.1774,-2.1774,-2.1774,-2.1774,-2.1774,-2.1774,-2.1774,-2.1686,-2.1618,-2.1618,-2.1618,-2.1564,-2.1408,-2.1475,-2.155,-2.155,-2.1672,-2.174,-2.1638,-2.1618,-2.155,-2.1353,-2.1333,-2.1333,-2.1333,-2.1353,-2.1421,-2.155,-2.155,-2.1597,-2.1706,-2.1672,-2.1652,-2.1652,-2.1652,-2.1652,-2.1652,-2.1652,-2.1652,-2.1652,-2.1652,-2.1652,-2.1652,-2.174,-2.1774,-1.4786,-1.5515,-1.6053,-1.6255,-1.6505,-1.6513,-1.5814,-1.5729,-1.5426,-1.4626,-1.3845,0.0,-1.3633,0.0,0.0,0.0,0.0,0.0,-1.9956,-2.0098,-2.0085,0.0,-1.9756,0.0,-2.0044,-1.9568,-1.9483,0.0,-2.0051,-2.0243,-2.0758,-2.0658,-2.0566,-2.0243,-2.0243,-2.0028,-1.9348,-1.8462,-1.82,-1.8239,-1.797,-1.7696,-1.7706,-1.7766,-1.7804,-1.7804,0.0,-1.7902,-1.7902,-1.7902,-1.7902,-1.7902,-1.7902,-1.7902,-1.7908,-1.7962,-1.7946,-1.7908,-1.8514,-1.8402,-1.8508,-2.0375,-2.1128,-2.1341,-2.1876,-2.1882,-2.1882,-2.1882,-2.1882,-2.1882,-2.1882,-2.1882,-2.1882,-2.1882,-2.1828,-2.176,-2.176,-2.176,-2.174,-2.1652,-2.1706,-2.176,-2.176,-2.1828,-2.1848,-2.1774,-2.176,-2.1726,-2.1652,-2.1584,-2.155,-2.155,-2.1597,-2.1672,-2.176,-2.176,-2.1794,-2.1882,-2.1882,-2.1882,-2.1882,-2.1882,-2.1882,-2.1882,-2.1882,-2.1882,-2.1882,-2.1882,-2.1882,-2.1882,-2.2025,-2.2079,-1.5519,-1.5755,-1.6037,-1.6146,-1.6048,-1.5613,-1.4445,-1.4216,-1.3951,-1.2843,0.0,-1.2134,-1.2581,-1.2494,-1.335,-1.5872,0.0,-1.7778,-1.9976,-2.0173,-2.0275,-2.0319,-1.9879,-1.9574,-2.0332,-1.9217,-1.8746,-1.9516,-1.9567,-1.9745,-2.0126,-1.9724,-1.9591,-1.9472,-1.9598,-1.9437,-1.873,-1.8075,-1.7804,-1.7902,-1.7902,-1.7902,-1.7902,-1.7902,-1.7918,-1.7935,-1.7935,0.0,-1.7935,-1.7935,-1.7935,-1.7935,-1.7935,-1.7935,-1.7962,-1.806,-1.8033,-1.7962,-1.806,-1.8016,-1.8469,-2.027,-2.1233,-2.1672,-2.1679,-2.195,-2.1937,-2.1937,-2.1937,-2.1937,-2.1937,-2.1937,-2.1937,-2.1937,-2.1937,-2.1916,-2.1916,-2.1903,-2.1882,-2.1916,-2.1916,-2.1916,-2.1916,-2.1937,-2.1937,-2.1916,-2.1916,-2.1903,-2.1882,-2.1774,-2.1706,-2.1706,-2.1815,-2.1882,-2.1916,-2.1916,-2.1916,-2.1937,-2.1937,-2.1937,-2.1937,-2.195,-2.1971,-2.1971,-2.1991,-2.2004,-2.2004,-2.2004,-2.2004,-2.2004,-2.2269,-2.2391,-1.594,-1.625,-1.6402,-1.651,-1.6233,-1.5668,-1.4673,-1.3946,0.0,0.0,-1.1721,-1.1415,-1.2326,-1.2829,-1.3948,-1.6449,0.0,0.0,0.0,0.0,-2.0312,0.0,0.0,0.0,0.0,0.0,0.0,0.0,0.0,-1.8748,-1.9469,-1.9499,-1.9363,-1.905,-1.8357,-1.8158,-1.8186,-1.788,-1.7891,-1.7902,-1.7902,-1.7902,-1.7902,-1.7902,-1.7962,-1.8044,-1.8044,0.0,-1.8044,-1.8044,-1.8044,-1.8044,-1.8044,-1.8103,-1.8201,-1.8217,-1.8212,-1.8201,-1.8217,-1.8716,-1.9157,-1.9291,-1.9785,-2.0601,-2.1153,-2.1704,-2.2249,-2.2249,-2.2249,-2.2249,-2.2249,-2.2249,-2.2249,-2.2249,-2.216,-2.2079,-2.2079,-2.1971,-2.1916,-2.2038,-2.2079,-2.2079,-2.2079,-2.2181,-2.2215,-2.2093,-2.2079,-2.2025,-2.1903,-2.1862,-2.1848,-2.1848,-2.1862,-2.1937,-2.2059,-2.2079,-2.2127,-2.2249,-2.2249,-2.2249,-2.2249,-2.2378,-2.2432,-2.2432,-2.2554,-2.2622,-2.2622,-2.2622,-2.2622,-2.2622,-2.2676,-2.271,-1.6217,-1.6516,-1.6652,-1.6641,-1.6233,-1.5445,-1.4128,0.0,0.0,0.0,-1.0766,-1.0816,-1.1307,0.0,0.0,0.0,0.0,0.0,0.0,0.0,0.0,0.0,0.0,0.0,0.0,0.0,0.0,0.0,0.0,-1.8138,-1.9069,-1.8667,-1.8519,-1.8368,-1.8141,-1.7902,-1.7902,-1.7902,-1.7902,-1.7902,-1.7902,-1.7935,-1.7989,-1.7989,-1.806,-1.8174,-1.8174,0.0,-1.8174,-1.8174,-1.8174,-1.8174,-1.8174,-1.8201,-1.8272,-1.8326,-1.8315,-1.8272,-1.8326,-1.8561,-1.8732,-1.866,-1.9396,-2.0116,-2.0935,-2.1501,-2.1771,-2.206,-2.2337,-2.2337,-2.2337,-2.2337,-2.2337,-2.2337,-2.2289,-2.2235,-2.2235,-2.216,-2.2147,-2.2215,-2.2235,-2.2235,-2.2235,-2.2289,-2.2337,-2.2344,-2.2344,-2.2344,-2.2344,-2.2357,-2.2255,-2.2025,-2.2079,-2.2147,-2.2215,-2.2303,-2.2378,-2.2445,-2.2534,-2.2567,-2.2567,-2.2642,-2.2676,-2.2676,-2.2744,-2.2784,-2.2784,-2.2784,-2.2784,-2.2784,-2.294,-2.3008,-1.6358,-1.6684,-1.6837,-1.6712,-1.619,-1.5179,-1.357,-1.2818,0.0,0.0,-1.0068,-1.0229,-1.0392,0.0,0.0,0.0,0.0,0.0,0.0,0.0,0.0,0.0,0.0,0.0,0.0,0.0,0.0,0.0,0.0,0.0,-1.8388,-1.8059,-1.7902,-1.7902,-1.7902,-1.7902,-1.7902,-1.7902,-1.7902,-1.7902,-1.7935,-1.7989,-1.8076,-1.8103,-1.8185,-1.8299,-1.8299,0.0,0.0,-1.8299,-1.8299,-1.8299,-1.8299,-1.8315,-1.8343,-1.844,-1.8413,-1.8353,-1.844,-1.8397,-1.8299,-1.8299,-1.8992,-1.993,-2.0758,-2.1017,-2.1263,-2.187,-2.1857,-2.1843,-2.2141,-2.2161,-2.2161,-2.2425,-2.2391,-2.2357,-2.2425,-2.2411,-2.2391,-2.2425,-2.2425,-2.2425,-2.2425,-2.2425,-2.2479,-2.2588,-2.2608,-2.2642,-2.2764,-2.2784,-2.2642,-2.2289,-2.2357,-2.2425,-2.2425,-2.2534,-2.2608,-2.2608,-2.271,-2.2784,-2.2784,-2.2818,-2.2832,-2.2832,-2.2852,-2.2886,-2.292,-2.292,-2.294,-2.2974,-2.3205,-2.3327,-1.6402,-1.6809,-1.6962,-1.6837,-1.619,-1.5081,-1.3145,0.0,-1.1463,-0.985,-0.9651,-1.0073,-1.0758,0.0,0.0,0.0,0.0,0.0,0.0,0.0,0.0,0.0,0.0,0.0,-1.7446,-1.7707,0.0,0.0,0.0,0.0,-1.7712,-1.7837,-1.7902,-1.7902,-1.7902,-1.7902,-1.7902,-1.7902,-1.7902,-1.7902,-1.8005,-1.806,-1.8076,-1.8185,-1.831,-1.8424,-1.8424,0.0,0.0,-1.8424,-1.8424,-1.8424,-1.8424,-1.8495,-1.8593,-1.8609,-1.8593,-1.8593,-1.8609,-1.8522,-1.8424,-1.8424,-1.8895,-1.9342,-1.9625,-1.9829,-2.0324,-2.0734,-2.0685,-2.061,-2.1585,-2.1624,-2.1893,-2.2462,-2.2534,-2.2411,-2.2676,-2.2622,-2.2574,-2.271,-2.2744,-2.2744,-2.2744,-2.2744,-2.2744,-2.2764,-2.2764,-2.2764,-2.2784,-2.2784,-2.2764,-2.273,-2.273,-2.2744,-2.2744,-2.2744,-2.2764,-2.2764,-2.2784,-2.2784,-2.2784,-2.292,-2.2995,-2.2995,-2.3117,-2.3259,-2.3395,-2.3395,-2.347,-2.3592,-2.3626,-2.3646,-1.6456,-1.6935,-1.706,-1.6864,-1.6135,-1.5188,-1.3643,0.0,-1.1456,-1.0264,-0.9824,-0.991,-1.0215,-1.0466,0.0,0.0,0.0,0.0,-1.5976,-1.6578,-1.7066,-1.7548,0.0,0.0,0.0,0.0,0.0,0.0,0.0,0.0,-1.7837,-1.7875,-1.7902,-1.7902,-1.7902,-1.7902,-1.7902,-1.7902,-1.7902,-1.7902,-1.8016,-1.8114,-1.8185,-1.831,-1.844,-1.8549,-1.8549,0.0,0.0,-1.8549,-1.8549,-1.8549,-1.8549,-1.8576,-1.862,-1.862,-1.862,-1.862,-1.862,-1.8593,-1.8549,-1.8549,-1.8798,-1.9024,-1.9423,-1.9625,-1.9883,-2.0225,-2.0495,-2.0465,-2.0784,-2.138,-2.1938,-2.2496,-2.2696,-2.2642,-2.2764,-2.273,-2.271,-2.2764,-2.2784,-2.2784,-2.2784,-2.2784,-2.2818,-2.2907,-2.292,-2.2961,-2.3029,-2.3049,-2.3049,-2.3049,-2.2886,-2.2784,-2.2784,-2.2873,-2.2961,-2.3049,-2.313,-2.3225,-2.3314,-2.3381,-2.3415,-2.3415,-2.347,-2.3524,-2.3592,-2.3592,-2.3626,-2.368,-2.3768,-2.3802,-1.6277,-1.6864,-1.7076,-1.6837,-1.594,-1.489,-1.3684,-1.2355,-1.1179,-1.0353,-0.9881,-0.9822,-0.9822,-1.0032,-1.0439,0.0,0.0,-1.2454,-1.4527,-1.5195,-1.5808,0.0,0.0,0.0,0.0,0.0,0.0,0.0,0.0,0.0,-1.7946,-1.7918,-1.7902,-1.7902,-1.7902,-1.7902,-1.7902,-1.7902,-1.7902,-1.7902,-1.8016,-1.8147,-1.8256,-1.8381,-1.8511,-1.862,-1.862,0.0,0.0,-1.862,-1.862,-1.862,-1.862,-1.862,-1.862,-1.862,-1.862,-1.862,-1.862,-1.862,-1.862,-1.862,-1.862,-1.8593,-1.8979,-1.9179,-1.9168,-1.9777,-2.0073,-2.0358,-2.0358,-2.0901,-2.1727,-2.234,-2.2563,-2.2798,-2.2886,-2.2886,-2.2873,-2.2907,-2.2907,-2.2907,-2.2907,-2.2907,-2.294,-2.3063,-2.3083,-2.313,-2.3273,-2.3293,-2.3307,-2.3347,-2.3171,-2.3029,-2.2974,-2.3117,-2.3259,-2.3347,-2.3449,-2.3571,-2.368,-2.368,-2.368,-2.368,-2.368,-2.37,-2.3754,-2.3754,-2.3768,-2.3822,-2.391,-2.3965,-1.5755,-1.6554,-1.6951,-1.6695,-1.557,-1.414,-1.3077,-1.1842,-1.0709,-0.9755,-0.9685,-0.9822,-0.9822,-0.9944,-1.0249,-1.0853,0.0,0.0,-1.3617,-1.4438,-1.4837,0.0,0.0,0.0,0.0,0.0,0.0,0.0,0.0,0.0,-1.806,-1.7962,-1.7902,-1.7902,-1.7902,-1.7902,-1.7902,-1.7902,-1.7902,-1.7902,-1.8016,-1.8147,-1.8256,-1.8381,-1.8511,-1.862,0.0,0.0,0.0,-1.862,-1.862,-1.862,-1.862,-1.862,-1.862,-1.862,-1.862,-1.862,-1.862,-1.862,-1.862,-1.862,-1.862,-1.862,-1.862,-1.8538,-1.8468,-1.8582,-1.9198,-1.9775,-1.9775,-2.0813,-2.1888,-2.2043,-2.2426,-2.2873,-2.3151,-2.3097,-2.3049,-2.3185,-2.3219,-2.3219,-2.3219,-2.3219,-2.3219,-2.3219,-2.3219,-2.3273,-2.3429,-2.3449,-2.3503,-2.3666,-2.368,-2.3612,-2.3449,-2.3592,-2.368,-2.368,-2.368,-2.368,-2.368,-2.368,-2.368,-2.368,-2.368,-2.3754,-2.389,-2.389,-2.3965,-2.4121,-2.4121,-2.4121,-1.4433,-1.4873,-1.495,-1.4548,-1.3852,-1.314,-1.2385,-1.1593,-1.0761,-1.0247,-0.9881,-0.9822,-0.9822,-0.9944,-1.048,-1.1796,0.0,0.0,0.0,0.0,0.0,-1.4715,-1.5734,0.0,0.0,0.0,0.0,0.0,0.0,0.0,-1.8076,-1.8044,-1.7989,-1.7902,-1.7902,-1.7902,-1.7902,-1.7902,-1.7946,-1.8016,-1.8147,-1.8256,-1.8381,-1.8511,-1.8582,0.0,0.0,0.0,0.0,-1.862,-1.862,-1.862,-1.862,-1.862,-1.862,-1.862,-1.862,-1.862,-1.862,-1.862,-1.862,-1.862,-1.862,-1.862,-1.862,-1.8593,-1.8565,-1.8609,-1.8914,-1.9198,-1.9769,-2.0023,-2.0874,-2.1781,-2.2297,-2.2545,-2.3198,-2.3185,-2.3171,-2.3219,-2.3219,-2.3259,-2.3361,-2.3381,-2.3415,-2.3524,-2.3537,-2.3558,-2.3612,-2.3612,-2.3626,-2.368,-2.3768,-2.3768,-2.3626,-2.3646,-2.3714,-2.3822,-2.3822,-2.3877,-2.3978,-2.3978,-2.3978,-2.3978,-2.3978,-2.3999,-2.4053,-2.4155,-2.4277,-2.4419,-2.4419,-2.4419,-1.3365,-1.3741,-1.3852,-1.351,-1.289,-1.2306,-1.2003,-1.113,-1.0413,-1.037,-1.0032,-0.9822,-0.9822,-0.9944,-1.0419,-1.1558,0.0,0.0,0.0,0.0,0.0,0.0,0.0,0.0,0.0,0.0,0.0,0.0,0.0,0.0,-1.8201,-1.8174,-1.8114,-1.8044,-1.7989,-1.7946,-1.7902,-1.7902,-1.7962,-1.8076,-1.8103,-1.8228,-1.844,-1.8468,-1.8538,0.0,0.0,0.0,0.0,-1.862,-1.862,-1.862,-1.862,-1.862,-1.862,-1.862,-1.862,-1.862,-1.862,-1.862,-1.862,-1.862,-1.862,-1.862,-1.862,-1.862,-1.862,-1.862,-1.862,-1.8625,-1.9198,-1.9481,-2.0052,-2.1493,-2.1781,-2.2369,-2.2931,-2.3219,-2.3239,-2.3293,-2.3307,-2.3361,-2.3503,-2.3537,-2.3571,-2.3666,-2.368,-2.37,-2.3754,-2.3768,-2.3788,-2.3843,-2.3931,-2.3944,-2.3856,-2.3843,-2.389,-2.3978,-2.3978,-2.4012,-2.4121,-2.4121,-2.4121,-2.4121,-2.4175,-2.4209,-2.4209,-2.4351,-2.4473,-2.4562,-2.4562,-2.4562,0.0,-1.3068,-1.3303,-1.3162,-1.2379,-1.1665,-1.1751,-1.0878,0.0,-1.0141,-1.0032,-0.9829,-0.9863,-0.9978,-1.0069,-1.0588,0.0,0.0,0.0,0.0,0.0,0.0,0.0,0.0,0.0,0.0,0.0,0.0,0.0,0.0,-1.8424,-1.8326,-1.8256,-1.8256,-1.8147,-1.8033,-1.7935,-1.7918,-1.7973,-1.8087,-1.7973,-1.8103,-1.844,-1.8326,-1.8397,0.0,0.0,0.0,0.0,-1.862,-1.862,-1.862,-1.862,-1.862,-1.862,-1.862,-1.862,-1.862,-1.862,-1.862,-1.862,-1.862,-1.862,-1.862,-1.862,-1.862,-1.862,-1.862,-1.862,-1.862,-1.862,-1.9198,-1.9775,-2.0629,-2.1512,-2.2094,-2.2945,-2.3239,-2.3293,-2.3436,-2.347,-2.3524,-2.3666,-2.37,-2.37,-2.3714,-2.3714,-2.3754,-2.389,-2.391,-2.3965,-2.41,-2.4141,-2.4141,-2.4141,-2.4141,-2.4141,-2.4141,-2.4141,-2.4155,-2.4155,-2.4155,-2.4155,-2.4155,-2.4297,-2.4365,-2.4385,-2.4507,-2.4582,-2.4596,-2.4596,-2.4596,-1.0234,0.0,-1.065,-1.0346,-1.0085,-0.9965,0.0,-0.987,0.0,0.0,0.0,0.0,0.0,0.0,0.0,0.0,0.0,0.0,0.0,0.0,0.0,0.0,0.0,0.0,0.0,0.0,0.0,0.0,0.0,-1.8185,-1.8424,-1.8326,-1.8256,-1.8256,-1.8228,-1.8201,-1.8174,-1.8087,-1.8087,-1.8212,-1.8185,-1.8272,-1.844,-1.8408,-1.8478,0.0,0.0,0.0,-1.862,-1.862,-1.862,-1.862,-1.862,-1.862,-1.862,-1.862,-1.862,-1.862,-1.862,-1.862,-1.862,-1.862,-1.862,-1.862,-1.862,-1.862,-1.862,-1.862,-1.862,-1.862,-1.862,-1.8625,-1.9192,-1.9775,-2.0719,-2.1656,-2.2243,-2.3199,-2.3578,-2.3626,-2.3626,-2.368,-2.3822,-2.3843,-2.3877,-2.3999,-2.4012,-2.4033,-2.4066,-2.4066,-2.4087,-2.4121,-2.4229,-2.4297,-2.4297,-2.4297,-2.4297,-2.4297,-2.4406,-2.446,-2.446,-2.446,-2.446,-2.446,-2.4494,-2.4562,-2.4684,-2.4724,-2.4792,-2.4914,-2.4914,-2.4914,-0.8926,-0.9405,-0.9791,-0.9595,-0.9546,-0.9617,-0.9604,0.0,0.0,0.0,0.0,0.0,0.0,0.0,0.0,0.0,0.0,0.0,0.0,0.0,0.0,0.0,0.0,0.0,0.0,0.0,0.0,0.0,0.0,-1.8326,-1.8511,-1.8413,-1.8343,-1.8343,-1.8283,-1.8228,-1.8174,-1.8103,-1.8103,-1.8174,-1.8174,-1.8272,-1.844,-1.844,-1.8511,0.0,0.0,0.0,-1.862,-1.862,-1.862,-1.862,-1.862,-1.862,-1.862,-1.862,-1.862,-1.862,-1.862,-1.862,-1.862,-1.862,-1.862,-1.862,-1.862,-1.862,-1.862,-1.862,-1.862,-1.8636,-1.869,-1.8707,-1.9003,-1.964,-2.0292,-2.0924,-2.2093,-2.2742,-2.3394,-2.3768,-2.3788,-2.3822,-2.3978,-2.3999,-2.4033,-2.41,-2.4175,-2.4229,-2.4229,-2.4277,-2.4317,-2.4317,-2.4406,-2.4453,-2.4453,-2.4507,-2.4528,-2.4453,-2.4528,-2.4562,-2.4562,-2.4562,-2.4596,-2.467,-2.467,-2.4738,-2.4894,-2.4894,-2.4935,-2.5023,-2.5023,-2.5023,-0.8265,-0.8954,-0.9758,-0.965,-0.9677,-0.9633,0.0,0.0,0.0,0.0,0.0,0.0,0.0,0.0,0.0,0.0,0.0,0.0,0.0,0.0,0.0,0.0,0.0,0.0,0.0,0.0,0.0,0.0,0.0,-1.8478,-1.8593,-1.8478,-1.8424,-1.844,-1.8326,-1.8201,-1.8103,-1.8103,-1.8103,-1.8103,-1.8103,-1.8201,-1.8381,-1.8397,-1.8468,-1.8565,0.0,0.0,-1.8593,-1.8609,-1.862,-1.862,-1.862,-1.862,-1.862,-1.862,-1.862,-1.862,-1.862,-1.862,-1.862,-1.862,-1.862,-1.862,-1.862,-1.862,-1.862,-1.862,-1.862,-1.8647,-1.8761,-1.8788,-1.9113,-1.9828,-2.0156,-2.0462,-2.1933,-2.2245,-2.2892,-2.3601,-2.3924,-2.3965,-2.41,-2.4121,-2.4121,-2.4121,-2.4243,-2.4351,-2.4351,-2.4473,-2.4562,-2.4562,-2.4582,-2.4596,-2.4596,-2.4738,-2.4772,-2.4636,-2.4636,-2.4636,-2.4636,-2.4636,-2.4704,-2.4512,-2.4512,-2.4579,-2.47,-2.47,-2.4707,-2.4707,-2.5016,-2.5023,-0.8915,-0.9372,-0.9394,-0.8785,-0.8943,-0.9144,0.0,0.0,0.0,0.0,0.0,0.0,0.0,0.0,0.0,0.0,0.0,0.0,0.0,0.0,0.0,0.0,0.0,0.0,0.0,0.0,0.0,0.0,0.0,-1.8451,-1.8468,-1.8353,-1.8326,-1.844,-1.8326,-1.8245,-1.8228,-1.8228,-1.8228,-1.8228,-1.8228,-1.8201,-1.8131,-1.8245,-1.8299,-1.8315,0.0,-1.8468,-1.8478,-1.8576,-1.862,-1.862,-1.862,-1.862,-1.862,-1.862,-1.862,-1.862,-1.862,-1.862,-1.862,-1.862,-1.862,-1.862,-1.862,-1.862,-1.862,-1.862,-1.862,-1.8647,-1.8761,-1.8788,-1.8821,-1.924,-1.9635,-2.0312,-2.0597,-2.1874,-2.2862,-2.3179,-2.3491,-2.4087,-2.4121,-2.4121,-2.4121,-2.4121,-2.4243,-2.4351,-2.4351,-2.4473,-2.4562,-2.4562,-2.4684,-2.4758,-2.4758,-2.4894,-2.4969,-2.4948,-2.4948,-2.4948,-2.4948,-2.4948,-2.4646,-2.4061,-2.4061,-2.3448,-2.284,-2.3467,-2.4094,-2.4094,-2.472,-2.5023,-0.8464,-0.8817,-0.9101,-0.9095,-0.9405,0.0,0.0,0.0,0.0,0.0,0.0,0.0,0.0,0.0,0.0,0.0,0.0,0.0,0.0,0.0,0.0,0.0,0.0,0.0,0.0,0.0,0.0,0.0,0.0,0.0,-1.844,-1.8326,-1.8283,-1.8343,-1.8283,-1.8256,-1.8256,-1.8185,-1.8131,-1.8076,-1.8201,-1.8228,-1.8174,-1.8228,-1.8299,-1.8353,0.0,-1.844,-1.8451,-1.8565,-1.862,-1.862,-1.862,-1.862,-1.862,-1.862,-1.862,-1.862,-1.862,-1.862,-1.862,-1.862,-1.862,-1.862,-1.862,-1.862,-1.8636,-1.869,-1.8707,-1.8734,-1.8859,-1.8946,-1.9017,-1.9142,-1.95,-1.9837,-2.0439,-2.1083,-2.1736,-2.2621,-2.3284,-2.3629,-2.4243,-2.4317,-2.4372,-2.4372,-2.4494,-2.4596,-2.4596,-2.4718,-2.4813,-2.4813,-2.488,-2.4914,-2.4914,-2.4982,-2.5023,-2.5023,-2.5023,-2.5023,-2.5023,-2.4713,-2.4087,-2.3777,-2.3461,-2.284,-2.2524,-2.284,-2.3461,-2.3777,-2.4087,-2.4713,-0.8171,-0.8503,-0.897,0.0,0.0,0.0,0.0,0.0,0.0,0.0,0.0,0.0,0.0,0.0,0.0,0.0,0.0,0.0,0.0,0.0,0.0,0.0,0.0,0.0,0.0,0.0,0.0,0.0,0.0,0.0,-1.8397,-1.8315,-1.8245,-1.8212,-1.8212,-1.8228,-1.8256,-1.8185,-1.8103,-1.7989,-1.8174,-1.8245,-1.8212,-1.8245,-1.8315,-1.8397,-1.8397,-1.8408,-1.8451,-1.8565,-1.862,-1.862,-1.862,-1.862,-1.862,-1.862,-1.862,-1.862,-1.862,-1.862,-1.862,-1.862,-1.862,-1.862,-1.862,-1.862,-1.8647,-1.8761,-1.8805,-1.8859,-1.8989,-1.9087,-1.9185,-1.9294,-1.9327,-1.9327,-2.0226,-2.0232,-2.0825,-2.2023,-2.2735,-2.3434,-2.4037,-2.4473,-2.4562,-2.4562,-2.4684,-2.4792,-2.4792,-2.4935,-2.5023,-2.5023,-2.5023,-2.5023,-2.5023,-2.5023,-2.5023,-2.5023,-2.5023,-2.5016,-2.47,-2.4081,-2.3467,-2.3163,-2.2524,-2.222,-2.1903,-2.222,-2.2524,-2.3163,-2.3467,-2.4081,-0.9052,-0.9073,0.0,0.0,0.0,0.0,0.0,0.0,0.0,0.0,0.0,0.0,0.0,0.0,0.0,0.0,0.0,0.0,0.0,0.0,0.0,0.0,0.0,0.0,0.0,0.0,0.0,0.0,0.0,0.0,-1.8283,-1.8256,-1.8201,-1.8087,-1.8087,-1.8147,-1.8256,-1.8353,-1.8353,-1.8228,-1.8245,-1.8201,-1.8087,-1.8201,-1.8256,-1.8272,-1.8272,-1.8343,-1.8451,-1.8565,-1.862,-1.862,-1.862,-1.862,-1.862,-1.862,-1.862,-1.862,-1.862,-1.862,-1.862,-1.862,-1.862,-1.862,-1.862,-1.862,-1.8647,-1.8761,-1.8875,-1.8989,-1.9115,-1.9158,-1.9185,-1.9294,-1.9327,-1.9327,-1.9327,-1.9921,-2.0532,-2.0537,-2.2128,-2.3126,-2.3126,-2.3854,-2.4562,-2.4562,-2.4684,-2.4792,-2.4792,-2.4935,-2.5023,-2.5023,-2.5023,-2.5023,-2.5023,-2.5023,-2.5023,-2.5023,-2.5023,-2.472,-2.3784,-2.3784,-2.3157,-2.1599,-2.1282,-2.0966,-2.0044,-2.0966,-2.1282,-2.1599,-2.3157,-2.3784,-0.8693,-0.8851,0.0,0.0,0.0,0.0,0.0,0.0,0.0,0.0,0.0,0.0,0.0,0.0,0.0,0.0,0.0,0.0,0.0,0.0,0.0,0.0,0.0,0.0,0.0,0.0,0.0,0.0,0.0,0.0,-1.8147,-1.8147,-1.8114,-1.8076,-1.8076,-1.8103,-1.8147,-1.8114,-1.8158,-1.8256,-1.8326,-1.8343,-1.8299,-1.8272,-1.8299,-1.837,-1.837,-1.8397,-1.8451,-1.8565,-1.862,-1.862,-1.862,-1.862,-1.862,-1.862,-1.862,-1.862,-1.862,-1.862,-1.862,-1.862,-1.862,-1.862,-1.862,-1.8663,-1.875,-1.8875,-1.8989,-1.9098,-1.9142,-1.9212,-1.9267,-1.931,-1.9327,-1.9327,-1.9327,-1.9626,-1.9921,-2.0532,-2.1238,-2.1956,-2.3242,-2.3689,-2.4126,-2.4826,-2.4894,-2.4935,-2.4935,-2.4982,-2.5023,-2.5023,-2.5023,-2.5023,-2.5023,-2.5023,-2.4707,-2.4397,-2.4397,-2.4081,-2.3777,-2.284,-2.1903,-2.1282,-2.0666,-2.0388,-2.0153,-2.0388,-2.0705,-2.1403,-2.2567,-2.3144,-0.8568,-0.8553,0.0,0.0,0.0,0.0,0.0,0.0,0.0,0.0,0.0,0.0,0.0,0.0,0.0,0.0,0.0,0.0,0.0,0.0,0.0,0.0,0.0,0.0,0.0,0.0,0.0,0.0,0.0,0.0,0.0,-1.8076,-1.806,-1.8016,-1.8016,-1.8033,-1.8076,-1.8005,-1.806,-1.8256,-1.8343,-1.8397,-1.844,-1.8353,-1.8381,-1.8495,-1.8413,-1.8424,-1.8495,-1.8549,-1.8593,-1.862,-1.862,-1.862,-1.862,-1.862,-1.862,-1.862,-1.862,-1.862,-1.862,-1.862,-1.862,-1.862,-1.862,-1.868,-1.8777,-1.893,-1.9028,-1.9115,-1.9185,-1.9267,-1.9327,-1.9327,-1.9327,-1.9327,-1.9327,-1.9327,-1.9343,-1.9982,-2.0391,-2.1422,-2.2786,-2.3539,-2.3976,-2.4996,-2.5023,-2.5023,-2.5023,-2.5023,-2.5023,-2.5023,-2.5023,-2.5023,-2.5023,-2.5023,-2.472,-2.3784,-2.3461,-2.3163,-2.3157,-2.1903,-2.1282,-2.0977,-2.0355,-2.0082,-2.0169,-2.0082,-2.0399,-2.1097,-2.1634,-2.2524,0.0,0.0,0.0,0.0,0.0,0.0,0.0,0.0,0.0,0.0,0.0,0.0,0.0,0.0,0.0,0.0,0.0,0.0,0.0,0.0,0.0,0.0,0.0,0.0,0.0,0.0,0.0,0.0,0.0,0.0,0.0,-1.8076,-1.8016,-1.7902,-1.7902,-1.7962,-1.8076,-1.8076,-1.8131,-1.8256,-1.8256,-1.8315,-1.844,-1.844,-1.8511,-1.8609,-1.8353,-1.8397,-1.8609,-1.8495,-1.8511,-1.862,-1.862,-1.862,-1.862,-1.862,-1.862,-1.862,-1.862,-1.862,-1.862,-1.862,-1.862,-1.862,-1.862,-1.862,-1.868,-1.8902,-1.8973,-1.9028,-1.9267,-1.9327,-1.9327,-1.9327,-1.9327,-1.9327,-1.9327,-1.9327,-1.9365,-1.9479,-2.0212,-2.1247,-2.2316,-2.3063,-2.4081,-2.5016,-2.5023,-2.5023,-2.5023,-2.5023,-2.5023,-2.5023,-2.5023,-2.5023,-2.5023,-2.5023,-2.472,-2.3784,-2.2847,-2.222,-2.1282,-2.1282,-2.0977,-2.0039,-2.0039,-2.0039,-2.0039,-2.0039,-2.0039,-2.0039,-2.0977,-2.1587,0.0,0.0,0.0,0.0,0.0,0.0,0.0,0.0,0.0,0.0,0.0,0.0,0.0,0.0,0.0,0.0,0.0,0.0,0.0,0.0,0.0,0.0,0.0,0.0,0.0,0.0,0.0,0.0,0.0,0.0,0.0,-1.7962,-1.7935,-1.7902,-1.7902,-1.7918,-1.7962,-1.7962,-1.8016,-1.8131,-1.8131,-1.8185,-1.8315,-1.8315,-1.8326,-1.8353,-1.8283,-1.8343,-1.8495,-1.8549,-1.8593,-1.862,-1.862,-1.862,-1.862,-1.862,-1.862,-1.862,-1.862,-1.862,-1.862,-1.862,-1.862,-1.862,-1.862,-1.868,-1.8777,-1.893,-1.9028,-1.9142,-1.9283,-1.9327,-1.9327,-1.9327,-1.9327,-1.9327,-1.9327,-1.9327,-1.9337,-1.9365,-1.9787,-2.0212,-2.1247,-2.2298,-2.3044,-2.4081,-2.472,-2.5023,-2.5023,-2.5023,-2.5023,-2.5023,-2.5023,-2.4707,-2.4087,-2.4081,-2.3461,-2.222,-2.1897,-2.1599,-2.1282,-2.0661,-2.0355,-2.0039,-2.0039,-2.0082,-2.0169,-2.0082,-2.0082,-2.0169,-2.1006,-2.1587,0.0,0.0,0.0,0.0,0.0,0.0,0.0,0.0,0.0,0.0,0.0,0.0,0.0,0.0,0.0,0.0,0.0,0.0,0.0,0.0,-1.7902,0.0,0.0,0.0,0.0,0.0,0.0,0.0,0.0,0.0,0.0,-1.7902,-1.7902,-1.7902,-1.7902,-1.7902,-1.7902,-1.7902,-1.7935,-1.8005,-1.8005,-1.8044,-1.8114,-1.8272,-1.8326,-1.8326,-1.8381,-1.8381,-1.8381,-1.8549,-1.862,-1.862,-1.862,-1.862,-1.862,-1.862,-1.862,-1.862,-1.862,-1.862,-1.862,-1.862,-1.862,-1.862,-1.862,-1.8663,-1.8761,-1.893,-1.9028,-1.9115,-1.9283,-1.9327,-1.9327,-1.9327,-1.9327,-1.9327,-1.9327,-1.9327,-1.9337,-1.9381,-1.9495,-1.993,-2.0965,-2.1405,-2.2439,-2.3758,-2.4403,-2.5023,-2.5023,-2.5023,-2.5023,-2.5023,-2.5023,-2.472,-2.3784,-2.3777,-2.3157,-2.1282,-2.1282,-2.1276,-2.0666,-2.0355,-2.0039,-2.0039,-2.0039,-2.0082,-2.0153,-2.0082,-2.0082,-2.0153,-2.07,-2.1282,0.0,0.0,0.0,0.0,0.0,0.0,0.0,0.0,0.0,0.0,0.0,0.0,0.0,0.0,0.0,0.0,0.0,0.0,0.0,0.0,-1.7902,-1.7902,0.0,0.0,0.0,0.0,0.0,0.0,0.0,0.0,0.0,-1.7902,-1.7902,-1.7902,-1.7891,-1.7891,-1.7891,-1.7875,-1.7875,-1.7891,-1.7891,-1.7891,-1.7918,-1.8239,-1.8397,-1.8408,-1.8549,-1.8478,-1.8283,-1.8522,-1.862,-1.862,-1.862,-1.862,-1.862,-1.862,-1.862,-1.862,-1.8636,-1.8636,-1.862,-1.8636,-1.8636,-1.862,-1.862,-1.862,-1.8663,-1.8902,-1.8973,-1.9028,-1.9267,-1.9327,-1.9327,-1.9327,-1.9327,-1.9327,-1.9327,-1.9327,-1.9365,-1.9479,-1.9604,-2.003,-2.0772,-2.1207,-2.1903,-2.3461,-2.4397,-2.4707,-2.5016,-2.4707,-2.4707,-2.5016,-2.4707,-2.4403,-2.3777,-2.3461,-2.284,-2.1282,-2.1282,-2.0977,-2.0039,-2.0039,-2.0039,-2.0039,-2.0039,-2.0039,-2.0039,-2.0039,-2.0039,-2.0039,-2.0039,-2.0344,0.0,0.0,0.0,0.0,0.0,0.0,0.0,0.0,0.0,0.0,0.0,0.0,0.0,0.0,0.0,0.0,0.0,0.0,0.0,0.0,0.0,0.0,0.0,0.0,0.0,0.0,0.0,0.0,0.0,0.0,-1.7902,-1.7902,-1.7902,-1.7902,-1.7804,-1.7766,-1.7766,-1.7663,-1.7663,0.0,-1.7766,-1.7804,-1.7902,-1.7989,-1.8071,-1.8158,-1.8381,-1.8451,-1.8408,-1.8565,-1.862,-1.862,-1.862,-1.862,-1.862,-1.862,-1.862,-1.8636,-1.8718,-1.869,-1.8636,-1.8718,-1.869,-1.862,-1.862,-1.862,-1.8663,-1.8902,-1.8973,-1.9028,-1.9267,-1.9327,-1.9327,-1.9327,-1.9327,-1.9327,-1.9327,-1.9327,-1.9365,-1.9479,-1.9604,-1.9734,-2.0156,-2.0886,-2.1587,-2.2524,-2.284,-2.3144,-2.4094,-2.3461,-2.3144,-2.4094,-2.3461,-2.2834,-2.1903,-2.1903,-2.1282,-2.0344,-2.0355,-2.0355,-2.0039,-2.0039,-2.0039,-2.0039,-2.0039,-2.0039,-2.0039,-2.0039,-2.0039,-2.0039,-2.0039,-2.0344,0.0,0.0,0.0,0.0,0.0,0.0,0.0,0.0,0.0,0.0,0.0,0.0,0.0,0.0,0.0,0.0,0.0,0.0,0.0,0.0,0.0,-1.7973,-1.7935,-1.7935,0.0,0.0,0.0,0.0,0.0,-1.7902,-1.7902,-1.7902,-1.7902,-1.7902,-1.7848,-1.7777,-1.7723,-1.7652,-1.7663,-1.7723,-1.7663,-1.7696,-1.7821,-1.7935,-1.8044,-1.8174,-1.8353,-1.8408,-1.8353,-1.8478,-1.8495,-1.8451,-1.8511,-1.8538,-1.8538,-1.8593,-1.8647,-1.8707,-1.8707,-1.8707,-1.8707,-1.8707,-1.8663,-1.862,-1.862,-1.862,-1.8663,-1.8902,-1.8973,-1.9028,-1.9267,-1.9327,-1.9327,-1.9327,-1.9327,-1.9327,-1.9327,-1.9327,-1.9365,-1.9479,-1.9604,-1.9734,-1.9843,-2.0593,-2.1288,-2.1903,-2.2208,-2.2524,-2.3157,-2.284,-2.2524,-2.3157,-2.284,-2.222,-2.1282,-2.1282,-2.0977,-2.0044,-2.0039,-2.0039,-2.0039,-2.0039,-2.0039,-2.0039,-2.0039,-2.0039,-2.0039,-2.0039,-2.0039,-2.0039,-2.0039,-2.0355,0.0,0.0,0.0,0.0,0.0,0.0,0.0,0.0,0.0,0.0,0.0,0.0,0.0,0.0,-1.7261,-1.7342,-1.7484,-1.7609,-1.7723,-1.7837,-1.7935,-1.8033,-1.7962,-1.7946,-1.8033,-1.7973,0.0,0.0,0.0,-1.7918,-1.7902,-1.7902,-1.7902,-1.7902,-1.7891,-1.7821,-1.7723,-1.7706,-1.7696,-1.7696,-1.7581,-1.7609,-1.7723,-1.7918,-1.8087,-1.8228,-1.8353,-1.8353,-1.8272,-1.837,-1.8353,-1.8272,-1.8397,-1.844,-1.8451,-1.8593,-1.869,-1.875,-1.8707,-1.8718,-1.875,-1.868,-1.8636,-1.862,-1.862,-1.862,-1.8663,-1.8902,-1.8973,-1.9028,-1.9267,-1.9327,-1.9327,-1.9327,-1.9327,-1.9327,-1.9327,-1.9337,-1.9392,-1.9522,-1.9647,-1.9789,-1.9886,-2.0605,-2.0966,-2.0966,-2.1587,-2.222,-2.2208,-2.222,-2.222,-2.2208,-2.222,-2.1897,-2.1276,-2.0966,-2.0666,-2.0039,-2.0039,-2.0039,-2.0039,-2.0039,-2.0039,-2.0039,-2.0039,-2.0039,-2.0039,-2.0039,-2.0039,-2.0039,-2.0039,-2.0039,0.0,0.0,0.0,0.0,0.0,0.0,0.0,0.0,0.0,0.0,0.0,0.0,-1.6158,-1.7228,-1.7272,-1.7369,-1.7494,-1.7619,-1.7739,-1.7848,-1.7908,-1.7918,-1.7918,-1.7908,-1.7918,-1.8005,-1.8016,-1.7918,-1.7989,-1.8005,-1.7908,-1.7902,-1.7902,-1.7902,-1.7804,-1.7734,-1.7723,-1.7625,-1.7565,-1.7565,-1.7554,-1.7609,-1.7723,-1.775,-1.7891,-1.8103,-1.8228,-1.8272,-1.8256,-1.8272,-1.8272,-1.8272,-1.8397,-1.844,-1.8468,-1.869,-1.8718,-1.868,-1.8859,-1.8805,-1.8663,-1.8734,-1.8707,-1.862,-1.862,-1.862,-1.8663,-1.8902,-1.8973,-1.9028,-1.9267,-1.9327,-1.9327,-1.9327,-1.9327,-1.9327,-1.9327,-1.9408,-1.9522,-1.9647,-1.9843,-2.0001,-2.0012,-2.0028,-2.0044,-2.0044,-2.0355,-2.0661,-2.1282,-2.0666,-2.0661,-2.1282,-2.0666,-2.0355,-2.0044,-2.0044,-2.0044,-2.0039,-2.0039,-2.0039,-2.0039,-2.0039,-2.0039,-2.0039,-2.0039,-2.0039,-2.0039,-2.0039,-2.0039,-2.0039,-2.0039,-2.0039,0.0,0.0,0.0,0.0,0.0,0.0,0.0,0.0,0.0,0.0,-0.4571,-1.048,-1.6178,-1.7255,-1.6178,-1.2948,-1.2484,-1.3668,-1.7373,-1.7679,-1.775,-1.7891,-1.7848,-1.7837,-1.7902,-1.7946,-1.7962,-1.7902,-1.7946,-1.7962,-1.7902,-1.7902,-1.7902,-1.7902,-1.7848,-1.7793,-1.7723,-1.7663,-1.7609,-1.7538,-1.7538,-1.7565,-1.7625,-1.7625,-1.7793,-1.8076,-1.8131,-1.8158,-1.8158,-1.8158,-1.8114,-1.8076,-1.8185,-1.8272,-1.8353,-1.8522,-1.8647,-1.8718,-1.8761,-1.875,-1.8718,-1.8707,-1.8663,-1.862,-1.862,-1.862,-1.8647,-1.8821,-1.8919,-1.9017,-1.9185,-1.9283,-1.9327,-1.9327,-1.9327,-1.9327,-1.9327,-1.9424,-1.9566,-1.9761,-1.993,-2.0039,-2.0039,-2.0039,-2.0039,-2.0039,-2.0039,-2.0044,-2.0661,-2.0355,-2.0044,-2.0661,-2.0355,-2.0039,-2.0039,-2.0039,-2.0039,-2.0039,-2.0039,-2.0039,-2.0039,-2.0039,-2.0039,-2.0039,-2.0039,-2.0039,-2.0039,-2.0039,-2.0039,-2.0039,-2.0039,-2.0039,0.0,0.0,0.0,0.0,0.0,0.0,0.0,0.0,0.0,0.0,-0.6725,-1.049,-1.6219,-1.592,-1.4004,-1.1302,-0.9458,-1.0603,-1.6705,-1.7538,-1.7609,-1.7793,-1.7734,-1.7706,-1.7804,-1.7837,-1.7864,-1.7864,-1.7891,-1.7891,-1.7864,-1.7891,-1.7891,-1.7864,-1.7864,-1.7821,-1.7723,-1.7696,-1.7625,-1.7538,-1.7511,-1.7511,-1.7538,-1.7511,-1.7668,-1.7989,-1.8016,-1.8033,-1.8033,-1.8033,-1.7973,-1.7918,-1.806,-1.8174,-1.8283,-1.8468,-1.862,-1.8734,-1.868,-1.8707,-1.8734,-1.8647,-1.862,-1.862,-1.862,-1.862,-1.8647,-1.8788,-1.8902,-1.9,-1.9158,-1.9267,-1.9327,-1.9327,-1.9327,-1.9337,-1.9365,-1.9462,-1.962,-1.9832,-1.9957,-2.0039,-2.0039,-2.0039,-2.0039,-2.0039,-2.0039,-2.0039,-2.0039,-2.0039,-2.0039,-2.0039,-2.0039,-2.0039,-2.0039,-2.0039,-2.0039,-2.0039,-2.0039,-2.0039,-2.0039,-2.0039,-2.0039,-2.0039,-2.0039,-2.0039,-2.0039,-2.0039,-2.0039,-2.0039,-2.0039,-2.0039,0.0,0.0,0.0,0.0,0.0,0.0,0.0,0.0,0.0,-1.4027,-1.2133,-1.0238,-1.6219,-1.2659,-1.0762,-1.5945,-1.2183,-1.0586,-1.6341,-1.7494,-1.7538,-1.7554,-1.7554,-1.7554,-1.7554,-1.7663,-1.7734,-1.7734,-1.7837,-1.7848,-1.7734,-1.7848,-1.7848,-1.7734,-1.7734,-1.7723,-1.7723,-1.7609,-1.7538,-1.7538,-1.7429,-1.7429,-1.7538,-1.7413,-1.75,-1.775,-1.7864,-1.7918,-1.7918,-1.7918,-1.7908,-1.7935,-1.8158,-1.8256,-1.8299,-1.8652,-1.8707,-1.8647,-1.875,-1.8718,-1.8636,-1.862,-1.862,-1.862,-1.862,-1.862,-1.8663,-1.8902,-1.8973,-1.9028,-1.9256,-1.9327,-1.9327,-1.9327,-1.9327,-1.9354,-1.9479,-1.9593,-1.9718,-1.9843,-1.9957,-2.0039,-2.0039,-2.0039,-2.0039,-2.0039,-2.0039,-2.0039,-2.0039,-2.0039,-2.0039,-2.0039,-2.0039,-2.0039,-2.0039,-2.0039,-2.0039,-2.0039,-2.0039,-2.0039,-2.0039,-2.0039,-2.0039,-2.0039,-2.0039,-2.0039,-2.0039,-2.0039,-2.0039,-2.0039,-2.0039,-2.0039,0.0,0.0,0.0,0.0,0.0,0.0,0.0,0.0,-0.3367,-1.4881,-1.5583,-1.4851,-1.6793,-1.5403,-1.2406,-0.7007,-0.7548,-1.0533,-1.6326,-1.7369,-1.7342,-1.7413,-1.7429,-1.7429,-1.7429,-1.7538,-1.7609,-1.7609,-1.7652,-1.7652,-1.7609,-1.7652,-1.7652,-1.7609,-1.7609,-1.7609,-1.7609,-1.7636,-1.7652,-1.7652,-1.7609,-1.7565,-1.7538,-1.7581,-1.7598,-1.7609,-1.7821,-1.7902,-1.7902,-1.7902,-1.7902,-1.7918,-1.8076,-1.8185,-1.8283,-1.8495,-1.8593,-1.862,-1.8663,-1.8647,-1.862,-1.862,-1.862,-1.862,-1.862,-1.862,-1.8647,-1.8821,-1.8919,-1.9017,-1.9169,-1.9267,-1.9327,-1.9327,-1.9327,-1.9354,-1.9479,-1.9604,-1.9734,-1.9843,-1.9957,-2.0039,-2.0039,-2.0039,-1.9941,-1.9631,-1.9843,-1.993,-1.962,-1.9843,-2.0039,-2.0039,-2.0039,-2.0039,-2.0039,-2.0039,-2.0039,-2.0039,-2.0039,-2.0039,-2.0039,-2.0039,-2.0039,-2.0039,-2.0039,-2.0039,-2.0039,-2.0039,-2.0039,-2.0039,-2.0039,-2.0039,0.0,0.0,0.0,0.0,0.0,0.0,0.0,0.0,-0.224,-0.9911,-1.4407,-1.7282,-1.7326,-1.7326,-1.3502,-0.1886,-0.3221,-0.8318,-1.6,-1.7244,-1.7174,-1.7288,-1.7261,-1.7244,-1.7244,-1.7272,-1.7326,-1.7413,-1.7429,0.0,-1.7467,-1.7511,-1.7527,-1.7484,-1.7484,-1.7456,-1.7429,-1.7538,-1.7625,-1.7663,-1.7663,-1.7625,-1.7538,-1.7581,-1.7581,-1.7554,-1.7706,-1.7837,-1.7902,-1.7902,-1.7902,-1.7918,-1.8076,-1.8185,-1.8272,-1.844,-1.8549,-1.862,-1.862,-1.862,-1.862,-1.862,-1.862,-1.862,-1.862,-1.8647,-1.8707,-1.8821,-1.8946,-1.906,-1.9185,-1.9267,-1.9327,-1.9327,-1.9327,-1.9354,-1.9479,-1.9604,-1.9734,-1.9843,-1.9957,-2.0039,-2.0039,-2.0039,-1.993,-1.962,-1.9832,-1.993,-1.9604,-1.9843,-2.0039,-2.0039,-2.0039,-2.0039,-2.0039,-2.0039,-2.0039,-2.0039,-2.0039,-2.0039,-2.0039,-2.0039,-2.0039,-2.0039,-2.0039,-2.0039,-2.0039,-2.0039,-2.0039,-2.0039,-2.0039,-2.0039,0.0,0.0,0.0,0.0,0.0,0.0,-0.0,0.0,0.0,0.0,-0.8954,-1.6886,-1.7014,-1.6798,-1.298,-0.1886,-0.0268,-0.4264,-1.5349,-1.7147,-1.7092,-1.7174,-1.7076,-1.7005,-1.7005,-1.6891,-1.6918,-1.7163,-1.7174,-1.7228,-1.7342,-1.7467,-1.7467,-1.7342,-1.7342,-1.7299,-1.719,-1.7299,-1.7413,-1.7538,-1.7538,-1.7538,-1.7538,-1.7413,-1.7429,-1.7538,-1.7538,-1.7679,-1.7902,-1.7902,-1.7902,-1.7935,-1.8158,-1.8256,-1.8283,-1.8538,-1.862,-1.862,-1.862,-1.862,-1.862,-1.862,-1.862,-1.862,-1.862,-1.8707,-1.8821,-1.8946,-1.906,-1.9185,-1.9294,-1.9327,-1.9327,-1.9327,-1.9327,-1.9365,-1.9495,-1.9604,-1.9734,-1.9843,-1.9957,-2.0039,-2.0039,-2.0039,-2.0039,-2.0028,-2.0012,-2.0012,-2.0012,-2.0012,-2.0028,-2.0039,-2.0039,-2.0039,-2.0039,-2.0039,-2.0039,-2.0039,-2.0039,-2.0039,-2.0039,-2.0039,-2.0039,-2.0039,-2.0039,-2.0039,-2.0039,-2.0039,-2.0039,-2.0039,-2.0039,-2.0039,0.0,0.0,0.0,0.0,0.0,0.0,0.0,0.0,0.0,0.0,-0.2426,-0.7273,-1.5699,-1.049,-0.3773,-0.0539,-0.3489,-0.7225,-1.0138,-1.444,-1.7092,-1.6935,-1.7049,-1.706,-1.6891,-1.6918,-1.6951,0.0,-1.6918,-1.6978,-1.7092,-1.7217,-1.719,-1.6978,-1.7147,-1.7174,-1.706,-1.7261,-1.7413,-1.7538,-1.7538,-1.7538,-1.7538,-1.7511,-1.7511,-1.7538,-1.7636,-1.7766,-1.7902,-1.7902,-1.7902,-1.7935,-1.8158,-1.8256,-1.8283,-1.8538,-1.862,-1.862,-1.862,-1.862,-1.862,-1.862,-1.862,-1.862,-1.862,-1.8707,-1.8821,-1.8946,-1.906,-1.9185,-1.9294,-1.9327,-1.9327,-1.9327,-1.9392,-1.9495,-1.962,-1.9734,-1.9832,-1.987,-1.9957,-2.0039,-2.0039,-2.0039,-1.993,-1.9577,-1.9522,-1.9522,-1.9522,-1.9522,-1.9658,-2.0001,-2.0039,-2.0039,-2.0039,-2.0039,-2.0039,-2.0039,-2.0039,-2.0039,-2.0039,-2.0039,-2.0039,-2.0039,-2.0039,-2.0039,-2.0039,-2.0039,-2.0039,-2.0039,-2.0039,-2.0039,0.0,0.0,0.0,0.0,0.0,0.0,-0.5693,-0.2546,0.0,0.0,0.0,-0.194,-0.8812,-0.445,0.0,0.0,-0.294,-0.6682,-1.123,-1.4991,-1.7103,-1.6989,-1.706,-1.706,-1.6907,-1.6864,-1.6848,-1.682,-1.6782,-1.6793,-1.6918,-1.6989,-1.6962,-1.682,-1.7005,-1.7076,-1.7005,-1.719,-1.7369,-1.7538,-1.7538,-1.7538,-1.7538,-1.7538,-1.7538,-1.7538,-1.7609,-1.775,-1.7902,-1.7902,-1.7902,-1.7935,-1.8158,-1.8256,-1.8283,-1.8538,-1.862,-1.862,-1.862,-1.862,-1.862,-1.862,-1.8647,-1.869,-1.869,-1.8805,-1.8957,-1.9028,-1.9131,-1.924,-1.931,-1.9327,-1.9327,-1.9327,-1.9381,-1.9479,-1.9647,-1.9702,-1.9761,-1.9914,-2.0001,-2.0039,-2.0039,-2.0039,-1.9941,-1.9664,-1.962,-1.962,-1.962,-1.962,-1.9729,-2.0012,-2.0039,-2.0039,-2.0039,-2.0039,-2.0039,-2.0039,-2.0039,-2.0039,-2.0039,-2.0039,-2.0039,-2.0039,-2.0039,-2.0039,-2.0039,-2.0039,-2.0039,-2.0039,-2.0039,-2.0039,0.0,0.0,0.0,0.0,0.0,0.0,-0.9792,-0.5449,0.0,0.0,-0.0681,-0.1169,-0.124,-0.0993,-0.0498,-0.0514,-0.0261,-0.3706,-1.4781,-1.663,-1.6848,-1.7147,-1.7076,-1.7021,-1.6989,-1.6793,-1.6712,-1.6793,-1.6695,-1.6679,-1.6782,-1.6809,-1.6809,-1.6782,-1.6918,-1.6989,-1.6989,-1.7103,-1.7288,-1.7538,-1.7527,-1.7527,-1.7538,-1.7527,-1.7527,-1.7538,-1.7538,-1.7679,-1.7902,-1.7902,-1.7902,-1.7935,-1.8158,-1.8256,-1.8283,-1.8538,-1.862,-1.862,-1.862,-1.862,-1.862,-1.862,-1.869,-1.8777,-1.8788,-1.8946,-1.9142,-1.9169,-1.924,-1.9327,-1.9327,-1.9327,-1.9327,-1.9327,-1.9337,-1.9424,-1.962,-1.9604,-1.9647,-1.9957,-2.0028,-2.0028,-2.0039,-2.0039,-2.0039,-2.0039,-2.0001,-1.9984,-2.0039,-2.0001,-1.9984,-2.0039,-2.0039,-2.0039,-2.0039,-2.0039,-2.0039,-2.0039,-2.0039,-2.0039,-2.0039,-2.0039,-2.0039,-2.0039,-2.0039,-2.0039,-2.0039,-2.0039,-2.0039,-2.0039,-2.0039,-2.0039,0.0,0.0,0.0,0.0,0.0,0.0,-0.2152,-0.1205,0.0,0.0,-0.4514,-0.8551,-0.8508,-0.6505,-0.4524,-0.405,-0.1674,-0.2285,-0.9273,-1.4191,-1.713,-1.6918,-1.7049,-1.7076,-1.688,-1.6907,-1.6864,-1.6679,-1.6652,-1.6614,-1.6543,-1.6722,-1.6739,-1.6543,-1.675,-1.6864,-1.6864,-1.6978,-1.7201,-1.7538,-1.744,-1.744,-1.7538,-1.744,-1.744,-1.7538,-1.7538,-1.7679,-1.7902,-1.7902,-1.7902,-1.7935,-1.8158,-1.8256,-1.8283,-1.8538,-1.862,-1.862,-1.862,-1.862,-1.862,-1.862,-1.8636,-1.868,-1.8761,-1.8892,-1.9044,-1.924,-1.931,-1.9327,-1.9327,-1.9327,-1.9327,-1.9327,-1.9479,-1.9604,-1.9549,-1.9674,-1.9816,-1.9886,-1.9903,-1.993,-2.0028,-2.0039,-2.0039,-2.0039,-1.9718,-1.962,-2.0001,-1.9702,-1.9604,-2.0001,-2.0039,-2.0039,-2.0039,-2.0039,-2.0039,-2.0039,-2.0039,-2.0039,-2.0039,-2.0039,-2.0039,-2.0039,-2.0039,-2.0039,-2.0039,-2.0039,-2.0039,-2.0039,-2.0039,-2.0039,0.0,0.0,0.0,0.0,0.0,0.0,0.0,0.0,0.0,0.0,-0.511,-0.9698,-0.9685,-0.8543,-0.775,-0.8209,-0.6324,-0.6464,-1.0872,-1.4539,-1.7076,-1.6848,-1.6935,-1.6935,-1.675,-1.6837,-1.6837,-1.6652,-1.6641,-1.6581,-1.6472,-1.6587,-1.6625,-1.6554,-1.6668,-1.6793,-1.6907,-1.6978,-1.719,-1.7538,-1.7413,-1.7429,-1.7538,-1.7413,-1.7429,-1.7538,-1.7538,-1.7679,-1.7902,-1.7902,-1.7902,-1.7918,-1.8103,-1.8201,-1.8283,-1.8468,-1.8565,-1.862,-1.862,-1.862,-1.862,-1.862,-1.8663,-1.8734,-1.8848,-1.9,-1.9169,-1.9294,-1.9327,-1.9327,-1.9327,-1.9327,-1.9327,-1.9327,-1.9424,-1.9506,-1.9506,-1.9604,-1.9734,-1.9843,-1.9876,-1.9914,-2.0028,-2.0039,-2.0039,-2.0039,-1.9843,-1.9772,-2.0012,-1.9832,-1.9772,-2.0012,-2.0039,-2.0039,-2.0039,-2.0039,-2.0039,-2.0039,-2.0039,-2.0039,-2.0039,-2.0039,-2.0039,-2.0039,-2.0039,-2.0039,-2.0039,-2.0039,-2.0039,-2.0039,-2.0039,-2.0039,0.0,0.0,0.0,0.0,0.0,0.0,0.0,0.0,0.0,0.0,-0.3711,-0.7344,-0.8324,-0.9088,-0.9978,-1.0906,-1.0704,-1.1018,-1.3507,-1.4971,-1.6168,-1.6516,-1.6641,-1.6668,-1.6554,-1.6543,-1.657,-1.6641,-1.6483,-1.6429,-1.65,-1.6527,-1.657,-1.6641,-1.6641,-1.6739,-1.6935,-1.6962,-1.7147,-1.7484,-1.7397,-1.7413,-1.7494,-1.7402,-1.7429,-1.7538,-1.7538,-1.7679,-1.7902,-1.7902,-1.7902,-1.7918,-1.806,-1.8174,-1.8272,-1.8424,-1.8538,-1.862,-1.862,-1.862,-1.862,-1.862,-1.8718,-1.8848,-1.8946,-1.9142,-1.9327,-1.9327,-1.9327,-1.9327,-1.9327,-1.9327,-1.9327,-1.9327,-1.9337,-1.9381,-1.9452,-1.9495,-1.9577,-1.9789,-1.9832,-1.9886,-2.0012,-2.0039,-2.0039,-2.0039,-2.0039,-2.0039,-2.0039,-2.0039,-2.0039,-2.0039,-2.0039,-2.0039,-2.0039,-2.0039,-2.0039,-2.0039,-2.0039,-2.0039,-2.0039,-2.0039,-2.0039,-2.0039,-2.0039,-2.0039,-2.0039,-2.0039,-2.0039,-2.0039,-2.0039,-2.0039,0.0,0.0,0.0,0.0,0.0,0.0,0.0,0.0,0.0,0.0,0.0,0.0,-0.7684,0.0,0.0,-0.9615,-1.0455,-1.1312,-1.1978,-1.2522,-1.3585,-1.5552,-1.6231,-1.6304,-1.6173,-1.5798,-1.5853,-1.6581,-1.5951,-1.5853,-1.6581,-1.6722,-1.6739,-1.6641,-1.6641,-1.6668,-1.6722,-1.682,-1.7005,-1.7272,-1.7359,-1.7386,-1.7369,-1.7359,-1.7429,-1.7538,-1.7538,-1.7679,-1.7902,-1.7902,-1.7902,-1.7935,-1.8147,-1.8245,-1.8283,-1.8511,-1.8609,-1.862,-1.862,-1.862,-1.862,-1.862,-1.8777,-1.8957,-1.8973,-1.9142,-1.9327,-1.9327,-1.9327,-1.9327,-1.9327,-1.9327,-1.9327,-1.9327,-1.9408,-1.9462,-1.9365,-1.9435,-1.9549,-1.9691,-1.9702,-1.9772,-2.0001,-2.0039,-2.0039,-2.0039,-2.0039,-2.0039,-2.0039,-2.0039,-2.0039,-2.0039,-2.0039,-2.0039,-2.0039,-2.0039,-2.0039,-2.0039,-2.0039,-2.0039,-2.0039,-2.0039,-2.0039,-2.0039,-2.0039,-2.0039,-2.0039,-2.0039,-2.0039,-2.0039,-2.0039,-2.0039,0.0,0.0,0.0,0.0,0.0,0.0,0.0,0.0,0.0,0.0,0.0,0.0,0.0,0.0,0.0,0.0,-0.9617,0.0,-1.0849,-1.1248,-1.2293,-1.4387,-1.4309,-1.4461,-1.4825,-1.4798,-1.5092,-1.5853,-1.5586,-1.57,-1.6402,-1.6614,-1.675,-1.6853,-1.6712,-1.6722,-1.6896,-1.6875,-1.5649,-1.3969,-1.6209,-1.7342,-1.7359,-1.7369,-1.744,-1.7538,-1.7609,-1.775,-1.7902,-1.7902,-1.7902,-1.7935,-1.8158,-1.8256,-1.8272,-1.837,-1.8495,-1.862,-1.862,-1.862,-1.8636,-1.869,-1.8832,-1.8989,-1.906,-1.9196,-1.9327,-1.9327,-1.9327,-1.9327,-1.9327,-1.9327,-1.9327,-1.9327,-1.9365,-1.9381,-1.9337,-1.9424,-1.9522,-1.9577,-1.9702,-1.9832,-1.993,-2.0001,-2.0039,-2.0039,-2.0039,-2.0039,-2.0039,-2.0039,-2.0039,-2.0039,-2.0039,-2.0039,-2.0039,-2.0039,-2.0039,-2.0039,-2.0039,-2.0039,-2.0039,-2.0039,-2.0039,-2.0039,-2.0039,-2.0039,-2.0039,-2.0039,-2.0082,-2.0137,-2.0071,-2.0039,0.0,0.0,0.0,0.0,0.0,0.0,0.0,0.0,0.0,0.0,0.0,0.0,0.0,0.0,0.0,0.0,0.0,-0.9517,-1.0019,-1.034,-1.1013,-1.2599,-1.2873,-1.3091,0.0,-1.3792,-1.4195,-1.5162,-1.4994,-1.5276,-1.6233,-1.651,-1.6722,-1.6891,-1.6766,-1.6755,-1.6896,-1.5252,-1.3993,-1.3091,-1.5845,-1.6714,-1.5686,-1.6825,-1.7456,-1.7538,-1.7663,-1.7793,-1.7902,-1.7902,-1.7902,-1.7918,-1.8131,-1.8228,-1.8272,-1.8326,-1.8468,-1.862,-1.862,-1.8636,-1.868,-1.8761,-1.8902,-1.9044,-1.9131,-1.924,-1.9327,-1.9327,-1.9327,-1.9327,-1.9327,-1.9327,-1.9337,-1.9365,-1.9354,-1.9337,-1.9365,-1.9424,-1.9462,-1.9506,-1.9674,-1.9832,-1.987,-1.9968,-2.0039,-2.0039,-2.0039,-2.0039,-2.0039,-2.0039,-2.0039,-2.0039,-2.0039,-2.0039,-2.0039,-2.0039,-2.0039,-2.0039,-2.0039,-2.0039,-2.0039,-2.0039,-2.0039,-2.0039,-2.0039,-2.0039,-2.0039,-2.0039,-2.0082,-2.0169,-2.0109,-2.0099,0.0,0.0,0.0,0.0,0.0,0.0,0.0,0.0,0.0,0.0,0.0,0.0,0.0,0.0,0.0,0.0,0.0,0.0,0.0,-0.9351,-0.9569,-1.0527,-1.1903,-1.2901,-1.339,-1.2819,-1.3102,-1.4744,-1.401,-1.4309,-1.619,-1.651,-1.6641,-1.6652,-1.675,-1.6722,-1.6527,-1.116,-1.1245,-1.6656,-1.706,-1.5277,-1.1816,-1.5696,-1.7456,-1.7538,-1.7663,-1.7793,-1.7902,-1.7902,-1.7902,-1.7918,-1.8033,-1.8158,-1.8283,-1.8522,-1.862,-1.862,-1.862,-1.869,-1.8788,-1.8788,-1.8957,-1.9158,-1.9158,-1.924,-1.9327,-1.9327,-1.9327,-1.9327,-1.9327,-1.9327,-1.9354,-1.9479,-1.9408,-1.9354,-1.9479,-1.9408,-1.9365,-1.9479,-1.9604,-1.9734,-1.9859,-1.9968,-2.0039,-2.0039,-2.0039,-2.0039,-2.0039,-2.0039,-2.0039,-2.0039,-2.0039,-2.0039,-2.0039,-2.0039,-2.0039,-2.0039,-2.0039,-2.0039,-2.0039,-2.0039,-2.0039,-2.0039,-2.0039,-2.0039,-2.0039,-2.0039,-2.0039,-2.0055,-2.0169,-2.0224,0.0,0.0,0.0,0.0,0.0,0.0,0.0,0.0,0.0,0.0,0.0,0.0,0.0,0.0,0.0,0.0,0.0,0.0,0.0,-0.8671,-0.8704,-0.9329,-1.0514,-1.1232,-1.1395,-1.177,-1.2368,-1.3254,-1.3238,-1.389,-1.5499,-1.5951,-1.6342,-1.675,-1.6793,-1.6793,-1.675,-1.4686,-1.4734,-1.6639,-0.9342,-0.7248,-0.9666,-1.4996,-1.7346,-1.7696,-1.7891,-1.7989,-1.8016,-1.8016,-1.7973,-1.7918,-1.8114,-1.8217,-1.8272,-1.844,-1.8549,-1.862,-1.862,-1.869,-1.8805,-1.8886,-1.9017,-1.9169,-1.924,-1.9294,-1.9327,-1.9327,-1.9327,-1.9327,-1.9327,-1.9327,-1.9337,-1.9381,-1.9424,-1.9435,-1.9392,-1.9424,-1.9435,-1.9392,-1.9479,-1.9604,-1.9734,-1.9843,-1.9957,-2.0028,-2.0039,-2.0039,-2.0039,-2.0039,-2.0039,-2.0039,-2.0039,-2.0039,-2.0039,-2.0039,-2.0039,-2.0039,-2.0039,-2.0039,-2.0039,-2.0039,-2.0039,-2.0039,-2.0039,-2.0039,-2.0039,-2.0039,-2.0082,-2.0169,-2.0294,-2.0305,0.0,0.0,0.0,0.0,0.0,0.0,0.0,0.0,0.0,0.0,0.0,0.0,0.0,0.0,0.0,0.0,0.0,0.0,0.0,-0.8323,0.0,0.0,0.0,-1.0182,-1.0481,-1.1014,-1.1632,-1.2401,-1.2604,-1.3283,0.0,-1.5304,-1.5869,-1.6429,-1.6614,-1.6722,-1.6777,-1.6559,-1.5534,-1.3704,-0.4534,-0.1878,-0.5644,-0.9281,-1.2668,-1.5751,-1.7378,-1.8044,-1.8016,-1.8016,-1.7973,-1.7935,-1.8158,-1.8256,-1.8272,-1.844,-1.8549,-1.862,-1.862,-1.8718,-1.8875,-1.8946,-1.9087,-1.9229,-1.9294,-1.9327,-1.9327,-1.9327,-1.9327,-1.9327,-1.9327,-1.9327,-1.9337,-1.9381,-1.9424,-1.9452,-1.9452,-1.9452,-1.9435,-1.9392,-1.9452,-1.9549,-1.9664,-1.9789,-1.9914,-2.0028,-2.0039,-2.0039,-2.0039,-2.0039,-2.0039,-2.0039,-2.0039,-2.0039,-2.0039,-2.0039,-2.0039,-2.0039,-2.0039,-2.0039,-2.0039,-2.0039,-2.0039,-2.0039,-2.0039,-2.0039,-2.0039,-2.0039,-2.0082,-2.0169,-2.0321,-2.0365]}]]